[[{"header":{"parameterUnit":"m.s-1","parameterCategory":1,"la1":31.0,"la2":29.5877,"lo1":-88.7671,"lo2":-86.6584,"dx":0.0162,"dy":0.0185,"nx":115,"ny":88,"refTime":"2022-11-25T06:00:00:Z","depth":0,"parameterNumber":2,"parameterNumberName":"U-component_of_WINDS"},"data":[0.0,0.0,0.0,0.0,0.0,0.0,0.0,0.0,0.0,0.0,0.0,0.0,0.0,0.0,0.0,0.0,0.0,0.0,0.0,0.0,0.0,0.0,0.0,0.0,0.0,0.0,0.0,0.0,0.0,0.0,0.0,0.0,0.0,0.0,0.0,0.0,0.0,0.0,0.0,0.0,0.0,0.0,0.0,0.0,0.0,0.0,0.0,0.0,0.0,0.0,0.0,0.0,0.0,0.0,0.0,0.0,0.0,0.0,0.0,0.0,0.0,0.0,0.0,0.0,0.0,0.0,0.0,0.0,0.0,0.0,0.0,0.0,0.0,0.0,0.0,0.0,0.0,0.0,0.0,0.0,0.0,0.0,0.0,0.0,0.0,0.0,0.0,0.0,0.0,0.0,0.0,0.0,0.0,0.0,0.0,0.0,0.0,0.0,0.0,0.0,0.0,0.0,0.0,0.0,0.0,0.0,0.0,0.0,0.0,0.0,0.0,0.0,0.0,0.0,0.0,0.0,0.0,0.0,0.0,0.0,0.0,0.0,0.0,0.0,0.0,0.0,0.0,0.0,0.0,0.0,0.0,0.0,0.0,0.0,0.0,0.0,0.0,0.0,0.0,0.0,0.0,0.0,0.0,0.0,0.0,0.0,0.0,0.0,0.0,0.0,0.0,0.0,0.0,0.0,0.0,0.0,0.0,0.0,0.0,0.0,0.0,0.0,0.0,0.0,0.0,0.0,0.0,0.0,0.0,0.0,0.0,0.0,0.0,0.0,0.0,0.0,0.0,0.0,0.0,0.0,0.0,0.0,0.0,0.0,0.0,0.0,0.0,0.0,0.0,0.0,0.0,0.0,0.0,0.0,0.0,0.0,0.0,0.0,0.0,0.0,0.0,0.0,0.0,0.0,0.0,0.0,0.0,0.0,0.0,0.0,0.0,0.0,0.0,0.0,0.0,0.0,0.0,0.0,0.0,0.0,0.0,0.0,0.0,0.0,0.0,0.0,0.0,0.0,0.0,0.0,0.0,0.0,0.0,0.0,0.0,0.0,0.0,0.0,0.0,0.0,0.0,0.0,0.0,0.0,0.0,0.0,0.0,0.0,0.0,0.0,0.0,0.0,0.0,0.0,0.0,0.0,0.0,0.0,0.0,0.0,0.0,0.0,0.0,0.0,0.0,0.0,0.0,0.0,0.0,0.0,0.0,0.0,0.0,0.0,0.0,0.0,0.0,0.0,0.0,0.0,0.0,0.0,0.0,0.0,0.0,0.0,0.0,0.0,0.0,0.0,0.0,0.0,0.0,0.0,0.0,0.0,0.0,0.0,0.0,0.0,0.0,0.0,0.0,0.0,0.0,0.0,0.0,0.0,0.0,0.0,0.0,0.0,0.0,0.0,0.0,0.0,0.0,0.0,0.0,0.0,0.0,0.0,0.0,0.0,0.0,0.0,0.0,0.0,0.0,0.0,0.0,0.0,0.0,0.0,0.0,0.0,0.0,0.0,0.0,0.0,0.0,0.0,0.0,0.0,0.0,0.0,0.0,0.0,0.0,0.0,0.0,0.0,0.0,0.0,0.0,0.0,0.0,0.0,0.0,0.0,0.0,0.0,0.0,0.0,0.0,0.0,0.0,0.0,0.0,0.0,0.0,0.0,0.0,0.0,0.0,0.0,0.0,0.0,0.0,0.0,0.0,0.0,0.0,0.0,0.0,0.0,0.0,0.0,0.0,0.0,0.0,0.0,0.0,0.0,0.0,0.0,0.0,0.0,0.0,0.0,0.0,0.0,0.0,0.0,0.0,0.0,0.0,0.0,0.0,0.0,0.0,0.0,0.0,0.0,0.0,0.0,0.0,0.0,0.0,0.0,0.0,0.0,0.0,0.0,0.0,0.0,0.0,0.0,0.0,0.0,0.0,0.0,0.0,0.0,0.0,0.0,0.0,0.0,0.0,0.0,0.0,0.0,0.0,0.0,0.0,0.0,0.0,0.0,0.0,0.0,0.0,0.0,0.0,0.0,0.0,0.0,0.0,0.0,0.0,0.0,0.0,0.0,0.0,0.0,0.0,0.0,0.0,0.0,0.0,0.0,0.0,0.0,0.0,0.0,0.0,0.0,0.0,0.0,0.0,0.0,0.0,0.0,0.0,0.0,0.0,0.0,0.0,0.0,0.0,0.0,0.0,0.0,0.0,0.0,0.0,0.0,0.0,0.0,0.0,0.0,0.0,0.0,0.0,0.0,0.0,0.0,0.0,0.0,0.0,0.0,0.0,0.0,0.0,0.0,0.0,0.0,0.0,0.0,0.0,0.0,0.0,0.0,0.0,0.0,0.0,0.0,0.0,0.0,0.0,0.0,0.0,0.0,0.0,0.0,0.0,0.0,0.0,0.0,0.0,0.0,0.0,0.0,0.0,0.0,0.0,0.0,0.0,0.0,0.0,0.0,0.0,0.0,0.0,0.0,0.0,0.0,0.0,0.0,0.0,0.0,0.0,0.0,0.0,0.0,0.0,0.0,0.0,0.0,0.0,0.0,0.0,0.0,0.0,0.0,0.0,0.0,0.0,0.0,0.0,0.0,0.0,0.0,0.0,0.0,0.0,0.0,0.0,0.0,0.0,0.0,0.0,0.0,0.0,0.0,0.0,0.0,0.0,0.0,0.0,0.0,0.0,0.0,0.0,0.0,0.0,0.0,0.0,0.0,0.0,0.0,0.0,0.0,0.0,0.0,0.0,0.0,0.0,0.0,0.0,0.0,0.0,0.0,0.0,0.0,0.0,0.0,0.0,0.0,0.0,0.0,0.0,0.0,0.0,0.0,0.0,0.0,0.0,0.0,0.0,0.0,0.0,0.0,0.0,0.0,0.0,0.0,0.0,0.0,0.0,0.0,0.0,0.0,0.0,0.0,0.0,0.0,0.0,0.0,0.0,0.0,0.0,0.0,0.0,0.0,0.0,0.0,0.0,0.0,0.0,0.0,0.0,0.0,0.0,0.0,0.0,0.0,0.0,0.0,0.0,0.0,0.0,0.0,0.0,0.0,0.0,0.0,0.0,0.0,0.0,0.0,0.0,0.0,0.0,0.0,0.0,0.0,0.0,0.0,0.0,0.0,0.0,0.0,0.0,0.0,0.0,0.0,0.0,0.0,0.0,0.0,0.0,0.0,0.0,0.0,0.0,0.0,0.0,0.0,0.0,0.0,0.0,0.0,0.0,0.0,0.0,0.0,0.0,0.0,0.0,0.0,0.0,0.0,0.0,0.0,0.0,0.0,0.0,0.0,0.0,0.0,0.0,0.0,0.0,0.0,0.0,0.0,0.0,0.0,0.0,0.0,0.0,0.0,0.0,0.0,0.0,0.0,0.0,0.0,0.0,0.0,0.0,0.0,0.0,0.0,0.0,0.0,0.0,0.0,0.0,0.0,0.0,0.0,0.0,0.0,0.0,0.0,0.0,0.0,0.0,0.0,0.0,0.0,0.0,0.0,0.0,0.0,0.0,0.0,0.0,0.0,0.0,0.0,0.0,0.0,0.0,0.0,0.0,0.0,0.0,0.0,0.0,0.0,0.0,0.0,0.0,0.0,0.0,0.0,0.0,0.0,0.0,0.0,0.0,0.0,0.0,0.0,0.0,0.0,0.0,0.0,0.0,0.0,0.0,0.0,0.0,0.0,0.0,0.0,0.0,0.0,0.0,0.0,0.0,0.0,0.0,0.0,0.0,0.0,0.0,0.0,0.0,0.0,0.0,0.0,0.0,0.0,0.0,0.0,0.0,0.0,0.0,0.0,0.0,0.0,0.0,0.0,0.0,0.0,0.0,0.0,0.0,0.0,0.0,0.0,0.0,0.0,0.0,0.0,0.0,0.0,0.0,0.0,0.0,0.0,0.0,0.0,0.0,0.0,0.0,0.0,0.0,0.0,0.0,0.0,0.0,0.0,0.0,0.0,0.0,0.0,0.0,0.0,0.0,0.0,0.0,0.0,0.0,0.0,0.0,0.0,0.0,0.0,0.0,0.0,0.0,0.0,0.0,0.0,0.0,0.0,0.0,0.0,0.0,0.0,0.0,0.0,0.0,0.0,0.0,0.0,0.0,0.0,0.0,0.0,0.0,0.0,0.0,0.0,0.0,0.0,0.0,0.0,0.0,0.0,0.0,0.0,0.0,0.0,0.0,0.0,0.0,0.0,0.0,0.0,0.0,0.0,0.0,0.0,0.0,0.0,0.0,0.0,0.0,0.0,0.0,0.0,0.0,0.0,0.0,0.0,0.0,0.0,0.8699,0.0,0.0,0.0,0.6987,0.0,0.0,0.0,0.0,0.0,0.0,0.0,0.0,0.0,0.0,0.0,0.0,0.0,0.0,0.0,0.0,0.0,0.0,0.0,0.0,0.0,0.0,0.0,0.0,0.0,0.0,0.0,0.0,0.0,0.0,0.0,0.0,0.0,0.0,0.0,0.0,0.0,0.0,0.0,0.0,0.0,0.0,0.0,0.0,0.0,0.0,0.0,0.0,0.0,0.0,0.0,0.0,0.0,0.0,0.0,0.0,0.0,0.0,0.0,0.0,0.0,0.0,0.0,0.0,0.0,0.0,0.0,0.0,0.0,0.0,0.0,0.0,0.0,0.0,0.0,0.0,0.0,0.0,0.0,0.0,0.0,0.0,0.0,0.0,0.0,0.0,0.0,0.0,0.0,0.0,0.0,0.0,0.0,0.0,0.0,0.0,0.0,0.0,0.0,0.0,0.0,0.0,0.0,0.0,0.0,0.0,0.0,0.0,0.0,0.0,0.8553,0.8288,0.7836,0.734,0.6788,0.0,0.0,0.0,0.0,0.0,0.0,0.0,0.0,0.0,0.0,0.0,0.0,0.0,0.0,0.0,0.0,0.0,0.0,0.0,0.0,0.0,0.0,0.0,0.0,0.0,0.0,0.0,0.0,0.0,0.0,0.0,0.0,0.0,0.0,0.0,0.0,0.0,0.0,0.0,0.0,0.0,0.0,0.0,0.0,0.0,0.0,0.0,0.0,0.0,0.0,0.0,0.0,0.0,0.0,0.0,0.0,0.0,0.0,0.0,0.0,0.0,0.0,0.0,0.0,0.0,0.0,0.0,0.0,0.0,0.0,0.0,0.0,0.0,0.0,0.0,0.0,0.0,0.0,0.0,0.0,0.0,0.0,0.0,0.0,0.0,0.0,0.0,0.0,0.0,0.0,0.0,0.0,0.0,0.0,0.0,0.0,0.0,0.0,0.0,0.0,0.0,0.0,0.0,0.0,0.0,0.0,0.0,0.0,0.0,0.0,0.0,0.0,0.7727,0.7125,0.6449,0.0,0.0,0.0,0.0,0.0,0.0,0.0,0.0,0.0,0.0,0.0,0.0,0.0,0.0,0.0,0.0,0.0,0.0,0.0,0.0,0.0,0.0,0.0,0.0,0.0,0.0,0.0,0.0,0.0,0.0,0.0,0.0,0.0,0.0,0.0,0.0,0.0,0.0,0.0,0.0,0.0,0.0,0.0,0.0,0.0,0.0,0.0,0.0,0.0,0.0,0.0,0.0,0.0,0.0,0.0,0.0,0.0,0.0,0.0,0.0,0.0,0.0,0.0,0.0,0.0,0.0,0.0,0.0,0.0,0.0,0.0,0.0,0.0,0.0,0.0,0.0,0.0,0.0,0.0,0.0,0.0,0.0,0.0,0.0,0.0,0.0,0.0,0.0,0.0,0.0,0.0,0.0,0.0,0.0,0.0,0.0,0.0,0.0,0.0,0.0,0.0,0.0,0.0,0.0,0.0,0.0,0.0,0.0,0.0,0.0,0.8342,0.8208,0.762,0.0,0.5755,0.0,0.0,0.0,0.0,0.0,0.0,0.0,0.0,0.0,0.0,0.0,0.0,0.0,0.0,0.0,0.0,0.0,0.0,0.0,0.0,0.0,0.0,0.0,0.0,0.0,0.0,0.0,0.0,0.0,0.0,0.0,0.0,0.0,0.0,0.0,0.0,0.0,0.0,0.0,0.0,0.0,0.0,0.0,0.0,0.0,0.0,0.0,0.0,0.0,0.0,0.0,0.0,0.0,0.0,0.0,0.0,0.0,0.0,0.0,0.0,0.0,0.0,0.0,0.0,0.0,0.0,0.0,0.0,0.0,0.0,0.0,0.0,0.0,0.0,0.0,0.0,0.0,0.0,0.0,0.0,0.0,0.0,0.0,0.0,0.0,0.0,0.0,0.0,0.0,0.0,0.0,0.0,0.0,0.0,0.0,0.0,0.0,0.0,0.0,0.0,0.0,0.0,0.0,0.0,0.0,0.0,0.0,0.0,0.0,0.0,0.8289,0.8024,0.7139,0.6249,0.0,0.0,0.0,0.0,0.0,0.0,0.0,0.0,0.0,0.0,0.0,0.0,0.0,0.0,0.0,0.0,0.0,0.0,0.0,0.0,0.0,0.0,0.0,0.0,0.0,0.0,0.0,0.0,0.0,0.0,0.0,0.0,0.0,0.0,0.0,0.0,0.0,0.0,0.0,0.0,0.0,0.0,0.0,0.0,0.0,0.0,0.0,0.0,0.0,0.0,0.0,0.0,0.0,0.0,0.0,0.0,0.0,0.0,0.0,0.0,0.0,0.0,0.0,0.0,0.0,0.0,0.0,0.0,0.0,0.0,0.0,0.0,0.0,0.0,0.0,0.0,0.0,0.0,0.0,0.0,0.0,0.0,0.0,0.0,0.0,0.0,0.0,0.0,0.0,0.0,0.0,0.0,0.0,0.0,0.0,0.0,0.0,0.0,0.0,0.0,0.0,0.0,0.0,0.0,0.0,0.0,0.0,0.0,0.0,0.0,0.8346,0.8182,0.7664,0.6713,0.5923,0.5336,0.0,0.0,0.0,0.0,0.0,0.0,0.0,0.0,0.0,0.0,0.0,0.0,0.0,0.0,0.0,0.0,0.0,0.0,0.0,0.0,0.0,0.0,0.0,0.0,0.0,0.0,0.0,0.0,0.0,0.0,0.0,0.0,0.0,0.0,0.0,0.0,0.0,0.0,0.0,0.0,0.0,0.0,0.0,0.0,0.0,0.0,0.0,0.0,0.0,0.0,0.0,0.0,0.0,0.0,0.0,0.0,0.0,0.0,0.0,0.0,0.0,0.0,0.0,0.0,0.0,0.0,0.0,0.0,0.0,0.0,0.0,0.0,0.0,0.0,0.0,0.0,0.0,0.0,0.0,0.0,0.0,0.0,0.0,0.0,0.0,0.0,0.0,0.0,0.0,0.0,0.0,0.0,0.0,0.0,0.0,0.0,0.0,0.0,0.0,0.0,0.0,0.0,0.0,0.0,0.0,0.0,0.0,0.0,0.7928,0.8242,0.7996,0.7166,0.6544,0.5923,0.0,0.0,0.0,0.0,0.0,0.0,0.0,0.0,0.0,0.0,0.0,0.0,0.0,0.0,0.0,0.0,0.0,0.0,0.0,0.0,0.0,0.0,0.0,0.0,0.0,0.0,0.0,0.0,0.0,0.0,0.0,0.0,0.0,0.0,0.0,0.0,0.0,0.0,0.0,0.0,0.0,0.0,0.0,0.0,0.0,0.0,0.0,0.0,0.0,0.0,0.0,0.0,0.0,0.0,0.0,0.0,0.0,0.0,0.0,0.0,0.0,0.0,0.0,0.0,0.0,0.0,0.0,0.0,0.0,0.0,0.0,0.0,0.0,0.0,0.0,0.0,0.0,0.0,0.0,0.0,0.0,0.0,0.0,0.0,0.0,0.0,0.0,0.0,0.0,0.0,0.0,0.0,0.0,0.0,0.0,0.0,0.0,0.0,0.0,0.0,0.0,0.0,0.0,0.0,0.0,0.0,0.0,0.0,0.0,0.7902,0.8012,0.7784,0.7112,0.6521,0.5978,0.0,0.0,0.0,0.0,0.0,0.0,0.0,0.0,0.0,0.0,0.0,0.0,0.0,0.0,0.0,0.0,0.0,0.0,0.0,0.0,0.0,0.0,0.0,0.0,0.0,0.0,0.0,0.0,0.0,0.0,0.0,0.0,0.0,0.0,0.0,0.0,0.0,0.0,0.0,0.0,0.0,0.0,0.0,0.0,0.0,0.0,0.0,0.0,0.0,0.0,0.0,0.0,0.0,0.0,0.0,0.0,0.0,0.0,0.0,0.0,0.0,0.0,0.0,0.0,0.0,0.0,0.0,0.0,0.0,0.0,0.0,0.0,0.0,0.0,0.0,0.0,0.0,0.0,0.0,0.0,0.0,0.0,0.0,0.0,0.0,0.0,0.0,0.0,0.0,0.0,0.0,0.0,0.0,0.0,0.0,0.0,0.0,0.0,0.0,0.0,0.0,0.0,0.0,0.0,0.0,0.0,0.0,0.0,0.0,0.8187,0.8081,0.7779,0.7247,0.6644,0.6105,0.0,0.0,0.0,0.0,0.0,0.0,0.0,0.0,0.0,0.0,0.0,0.0,0.0,0.0,0.0,0.0,0.0,0.0,0.0,0.0,0.0,0.0,0.0,0.0,0.0,0.0,0.0,0.0,0.0,0.0,0.0,0.0,0.0,0.0,0.0,0.0,0.0,0.0,0.0,0.0,0.0,0.0,0.0,0.0,0.0,0.0,0.0,0.0,0.0,0.0,0.0,0.0,0.0,0.0,0.0,0.0,0.0,0.0,0.0,0.0,0.0,0.0,0.0,0.0,0.0,0.0,0.0,0.0,0.0,0.0,0.0,0.0,0.0,0.0,0.0,0.0,0.0,0.0,0.0,0.0,0.0,0.0,0.0,0.0,0.0,0.0,0.0,0.0,0.0,0.0,0.0,0.0,0.0,0.0,0.0,0.0,0.0,0.0,0.0,0.0,0.0,0.0,0.0,0.0,0.0,0.0,0.0,0.0,0.8213,0.8752,0.8469,0.8061,0.7514,0.6919,0.6295,0.0,0.0,0.0,0.0,0.0,0.0,0.0,0.0,0.0,0.0,0.0,0.0,0.0,0.0,0.0,0.0,0.0,0.0,0.0,0.0,0.0,0.0,0.0,0.0,0.0,0.0,0.0,0.0,0.0,0.0,0.0,0.0,0.0,0.0,0.0,0.0,0.0,0.0,0.0,0.0,0.0,0.0,0.0,0.0,0.0,0.0,0.0,0.0,0.0,0.0,0.0,0.0,0.0,0.0,0.0,0.0,0.0,0.0,0.0,0.0,0.0,0.0,0.0,0.0,0.0,0.0,0.0,0.0,0.0,0.0,0.0,0.0,0.0,0.0,0.0,0.0,0.0,0.0,0.0,0.0,0.0,0.0,0.0,0.0,0.0,0.0,0.0,0.0,0.0,0.0,0.0,0.0,0.0,0.0,0.0,0.0,0.0,0.0,0.0,0.0,0.0,0.0,0.0,0.0,0.0,0.0,0.0,0.0,0.0,0.8789,0.8779,0.8503,0.7925,0.7153,0.6559,0.0,0.0,0.0,0.0,0.0,0.0,0.0,0.0,0.0,0.0,0.0,0.0,0.0,0.0,0.0,0.0,0.0,0.0,0.0,0.0,0.0,0.0,0.0,0.0,0.0,0.0,0.0,0.0,0.0,0.0,0.0,0.0,0.0,0.0,0.0,0.0,0.0,0.0,0.0,0.0,0.0,0.0,0.0,0.0,0.0,0.0,0.0,0.0,0.0,0.0,0.0,0.0,0.0,0.0,0.0,0.0,0.0,0.0,0.0,0.0,0.0,0.0,0.0,0.0,0.0,0.0,0.0,0.0,0.0,0.0,0.0,0.0,0.0,0.0,0.0,0.0,0.0,0.0,0.0,0.0,0.0,0.0,0.0,0.0,0.0,0.0,0.0,0.0,0.0,0.0,0.0,0.0,0.0,0.0,0.0,0.0,0.0,0.0,0.0,0.0,0.0,0.0,0.0,0.0,0.0,0.0,0.0,0.0,0.0,0.943,0.9357,0.9026,0.8493,0.7763,0.7091,0.6416,0.0,0.0,0.0,0.0,0.0,0.0,0.0,0.0,0.0,0.0,0.0,0.0,0.0,0.0,0.0,0.0,0.0,0.0,0.0,0.0,0.0,0.0,0.0,0.0,0.0,0.0,0.0,0.0,0.0,0.0,0.0,0.0,0.0,0.0,0.0,0.0,0.0,0.0,0.0,0.0,0.0,0.0,0.0,0.0,0.0,0.0,0.0,0.0,0.0,0.0,0.0,0.0,0.0,0.0,0.0,0.0,0.0,0.0,0.0,0.0,0.0,0.0,0.0,0.0,0.0,0.0,0.0,0.0,0.0,0.0,0.0,0.0,0.0,0.0,0.0,0.0,0.0,0.0,0.0,0.0,0.0,0.0,0.0,0.0,0.0,0.0,0.0,0.0,0.0,0.0,0.0,0.0,0.0,0.0,0.0,0.0,0.0,0.0,0.0,0.0,0.0,0.0,0.0,0.0,0.0,0.0,0.0,0.0,1.0503,1.0089,0.9653,0.9172,0.8652,0.7798,0.0,0.0,0.0,0.0,0.0,0.0,0.0,0.0,0.0,0.0,0.0,0.0,0.0,0.0,0.0,0.0,0.0,0.0,0.0,0.0,0.0,0.0,0.0,0.0,0.0,0.0,0.0,0.0,0.0,0.0,0.0,0.0,0.0,0.0,0.0,0.0,0.0,0.0,0.0,0.0,0.0,0.0,0.0,0.0,0.0,0.0,0.0,0.0,0.0,0.0,0.0,0.0,0.0,0.0,0.0,0.0,0.0,0.0,0.0,0.0,0.0,0.0,0.0,0.0,0.0,0.0,0.0,0.0,0.0,0.0,0.0,0.0,0.0,0.0,0.0,0.0,0.0,0.0,0.0,0.0,0.0,0.0,0.0,0.0,0.0,0.0,0.0,0.0,0.0,0.0,0.0,0.0,0.0,0.0,0.0,0.0,0.0,0.0,0.0,0.0,0.0,0.0,0.0,0.0,0.0,0.0,0.0,0.0,0.0,1.0609,1.072,1.0471,0.9914,0.8947,0.8035,0.0,0.0,0.0,0.0,0.0,0.0,0.0,0.0,0.0,0.0,0.0,0.0,0.0,0.0,0.0,0.0,0.0,0.0,0.0,0.0,0.0,0.0,0.0,0.0,0.0,0.0,0.0,0.0,0.0,0.0,0.0,0.0,0.0,0.0,0.0,0.0,0.0,0.0,0.0,0.0,0.0,0.0,0.0,0.0,0.0,0.0,0.0,0.0,0.0,0.0,0.0,0.0,0.0,0.0,0.0,0.0,0.0,0.0,0.0,0.0,0.0,0.0,0.0,0.0,0.0,0.0,0.0,0.0,0.0,0.0,0.0,0.0,0.0,0.0,0.0,0.0,0.0,0.0,0.0,0.0,0.0,0.0,0.0,0.0,0.0,0.0,0.0,0.0,0.0,0.0,0.0,0.0,0.0,0.0,0.0,0.0,0.0,0.0,0.0,0.0,0.0,0.0,0.0,0.0,0.0,0.0,0.0,0.0,1.0005,1.0764,1.0888,1.0771,1.0326,0.9416,0.8476,0.0,0.0,0.0,0.0,0.0,0.0,0.0,0.0,0.0,0.0,0.0,0.0,0.0,0.0,0.0,0.0,0.0,0.0,0.0,0.0,0.0,0.0,0.0,0.0,0.0,0.0,0.0,0.0,0.0,0.0,0.0,0.0,0.0,0.0,0.0,0.0,0.0,0.0,0.0,0.0,0.0,0.0,0.0,0.0,0.0,0.0,0.0,0.0,0.0,0.0,0.0,0.0,0.0,0.0,0.0,0.0,0.0,0.0,0.0,0.0,0.0,0.0,0.0,0.0,0.0,0.0,0.0,0.0,0.0,0.0,0.0,0.0,0.0,0.0,0.0,0.0,0.0,0.0,0.0,0.0,0.0,0.0,0.0,0.0,0.0,0.0,0.0,0.0,0.0,0.0,0.0,0.0,0.0,0.0,0.0,0.0,0.0,0.0,0.0,0.0,0.0,0.0,0.0,0.0,0.0,0.0,0.0,0.0,1.0345,1.0859,1.087,1.0719,1.0464,0.986,0.8941,0.0,0.0,0.0,0.0,0.0,0.0,0.0,0.0,0.0,0.0,0.0,0.0,0.0,0.0,0.0,0.0,0.0,0.0,0.0,0.0,0.0,0.0,0.0,0.0,0.0,0.0,0.0,0.0,0.0,0.0,0.0,0.0,0.0,0.0,0.0,0.0,0.0,0.0,0.0,0.0,0.0,0.0,0.0,0.0,0.0,0.0,0.0,0.0,0.0,0.0,0.0,0.0,0.0,0.0,0.0,0.0,0.0,0.0,0.0,0.0,0.0,0.0,0.0,0.0,0.0,0.0,0.0,0.0,0.0,0.0,0.0,0.0,0.0,0.0,0.0,0.0,0.0,0.0,0.0,0.0,0.0,0.0,0.0,0.0,0.0,0.0,0.0,0.0,0.0,0.0,0.0,0.0,0.0,0.0,0.0,0.0,0.0,0.0,0.0,0.0,0.0,0.0,0.0,0.0,0.0,0.0,0.0,0.0,1.0217,1.082,1.0976,1.0846,1.0412,0.9585,0.8788,0.0,0.0,0.0,0.0,0.0,0.0,0.0,0.0,0.0,0.0,0.0,0.0,0.0,0.0,0.0,0.0,0.0,0.0,0.0,0.0,0.0,0.0,0.0,0.0,0.0,0.0,0.0,0.0,0.0,0.0,0.0,0.0,0.0,0.0,0.0,0.0,0.0,0.0,0.0,0.0,0.0,0.0,0.0,0.0,0.0,0.0,0.0,0.0,0.8748,0.0,0.0,0.0,0.0,0.0,0.0,0.0,0.0,0.0,0.0,0.0,0.0,0.0,0.0,0.0,0.0,0.0,0.0,0.0,0.0,0.0,0.0,0.0,0.0,0.0,0.0,0.0,0.0,0.0,0.0,0.0,0.0,0.0,0.0,0.0,0.0,0.0,0.0,0.0,0.0,0.0,0.0,0.0,0.0,0.0,0.0,0.0,0.0,0.0,0.0,0.0,0.0,0.0,0.0,0.0,0.0,0.0,0.0,0.0,1.0086,1.0597,1.0632,1.0431,0.9971,0.9248,0.8658,0.0,0.0,0.0,0.0,0.0,0.0,0.0,0.0,0.0,0.0,0.0,0.0,0.0,0.0,0.0,0.0,0.0,0.0,0.0,0.0,0.0,0.0,0.0,0.0,0.0,0.0,0.0,0.0,0.0,0.0,0.0,0.0,0.0,0.0,0.0,0.0,0.0,0.0,0.0,0.0,0.0,0.0,0.0,0.0,0.0,0.0,0.0,0.0,0.0,0.0,0.0,0.0,0.0,0.0,0.0,0.0,0.0,0.0,0.0,0.0,0.0,0.0,0.0,0.0,0.0,0.0,0.0,0.0,0.0,0.0,0.0,0.0,0.0,0.0,0.0,0.0,0.0,0.0,0.0,0.0,0.0,0.0,0.0,0.0,0.0,0.0,0.0,0.0,0.0,0.0,0.0,0.0,0.0,0.0,0.0,0.0,0.0,0.0,0.0,0.0,0.0,0.0,0.0,0.0,0.0,0.0,0.0,0.9656,1.0049,1.0425,1.0262,0.9935,0.9543,0.9008,0.861,0.8338,0.0,0.0,0.0,0.0,0.0,0.0,0.0,0.0,0.0,0.0,0.0,0.0,0.0,0.0,0.0,0.0,0.0,0.0,0.0,0.0,0.0,0.0,0.0,0.0,0.0,0.0,0.0,0.0,0.0,0.0,0.0,0.0,0.0,0.0,0.0,0.0,0.0,0.0,0.5898,0.6917,0.0,0.0,0.0,0.0,0.0,0.0,0.0,0.0,0.9596,0.0,0.0,0.0,0.0,0.0,0.0,0.0,0.0,0.0,0.0,0.0,0.0,0.0,0.0,0.0,0.0,0.0,0.0,0.0,0.0,0.0,0.0,0.0,0.0,0.0,0.0,0.0,0.0,0.0,0.0,0.0,0.0,0.0,0.0,0.0,0.0,0.0,0.0,0.0,0.0,0.0,0.0,0.0,0.0,0.0,0.0,0.0,0.0,0.0,0.0,0.0,0.0,0.0,0.0,0.0,0.0,0.9352,0.9828,1.0284,1.0716,1.0458,1.0149,0.9748,0.9129,0.86,0.8132,0.0,0.0,0.0,0.0,0.0,0.0,0.0,0.0,0.0,0.0,0.0,0.0,0.0,0.0,0.0,0.0,0.0,0.0,0.0,0.0,0.0,0.0,0.0,0.0,0.0,0.0,0.0,0.0,0.0,0.0,0.0,0.0,0.0,0.0,0.0,0.0,0.0,0.0,0.0,0.7702,0.8341,0.0,0.0,0.0,0.0,0.0,0.0,0.0,0.0,0.9679,0.0,0.0,0.0,0.0,0.0,0.0,0.0,0.0,0.0,0.0,0.0,0.0,0.0,0.0,0.0,0.0,0.0,0.0,0.0,0.0,0.0,0.0,0.0,0.0,0.0,0.0,0.0,0.0,0.0,0.0,0.0,0.0,0.0,0.0,0.0,0.0,0.0,0.0,0.0,0.0,0.0,0.0,0.0,0.0,0.0,0.0,0.0,0.0,0.0,0.0,0.0,0.0,0.0,0.0,0.0,0.9116,0.9745,1.0189,1.0503,1.0235,0.9933,0.9581,0.8943,0.8336,0.0,0.0,0.0,0.0,0.0,0.0,0.0,0.0,0.0,0.0,0.0,0.0,0.0,0.0,0.0,0.0,0.0,0.0,0.0,0.0,0.0,0.0,0.0,0.0,0.0,0.0,0.0,0.0,0.0,0.0,0.0,0.0,0.0,0.0,0.0,0.0,0.0,0.0,0.0,0.0,0.8194,0.8852,0.9659,0.0,0.0,0.0,0.0,0.0,0.0,1.0327,1.026,0.0,0.0,0.0,0.0,0.0,0.0,0.0,0.0,0.0,0.0,0.0,0.0,0.0,0.0,0.0,0.0,0.0,0.0,0.0,0.0,0.0,0.0,0.0,0.0,0.0,0.0,0.0,0.0,0.0,0.0,0.0,0.0,0.0,0.0,0.0,0.0,0.0,0.0,0.0,0.0,0.0,0.0,0.0,0.0,0.0,0.0,0.0,0.0,0.0,0.0,0.0,0.0,0.0,0.0,0.0,0.8974,0.9691,1.0154,1.0285,0.9983,0.9688,0.9398,0.8695,0.8035,0.0,0.0,0.0,0.0,0.0,0.0,0.0,0.0,0.0,0.0,0.0,0.0,0.0,0.0,0.0,0.0,0.0,0.0,0.0,0.0,0.0,0.0,0.0,0.0,0.0,0.0,0.0,0.0,0.0,0.0,0.0,0.0,0.0,0.0,0.0,0.0,0.0,0.0,0.0,0.0,0.0,0.9309,1.004,1.05,0.0,0.0,0.0,0.0,1.0844,1.0837,0.0,0.0,0.0,0.0,0.0,0.0,0.0,0.0,0.0,0.0,0.0,0.0,0.0,0.0,0.0,0.0,0.0,0.0,0.0,0.0,0.0,0.0,0.0,0.0,0.0,0.0,0.0,0.0,0.0,0.0,0.0,0.0,0.0,0.0,0.0,0.0,0.0,0.0,0.0,0.0,0.0,0.0,0.0,0.0,0.0,0.0,0.0,0.0,0.0,0.0,0.0,0.0,0.0,0.0,0.0,0.0,0.9164,0.988,1.0322,1.0369,1.0022,0.9678,0.9393,0.8519,0.7896,0.0,0.0,0.0,0.0,0.0,0.0,0.0,0.0,0.0,0.0,0.0,0.0,0.0,0.0,0.0,0.0,0.0,0.0,0.0,0.0,0.0,0.0,0.0,0.0,0.0,0.0,0.0,0.0,0.0,0.0,0.0,0.0,0.0,0.0,0.0,0.0,0.0,0.0,0.0,0.0,0.0,0.9551,1.0859,1.1143,1.1358,0.0,0.0,1.1734,1.1533,1.1445,0.0,0.0,0.0,0.0,0.0,0.0,0.0,0.0,0.0,0.0,0.0,0.0,0.0,0.0,0.0,0.0,0.0,0.0,0.0,0.0,0.0,0.0,0.0,0.0,0.0,0.0,0.0,0.0,0.0,0.0,0.0,0.0,0.0,0.0,0.0,0.0,0.0,0.0,0.0,0.0,0.0,0.0,0.0,0.0,0.0,0.0,0.0,0.0,0.0,0.0,0.0,0.0,0.0,0.0,0.0,0.8567,0.8993,0.9885,1.0284,1.0181,0.9907,0.9674,0.9403,0.8594,0.7991,0.0,0.0,0.0,0.0,0.0,0.0,0.0,0.0,0.0,0.0,0.0,0.0,0.0,0.0,0.0,0.0,0.0,0.0,0.0,0.0,0.0,0.0,0.0,0.0,0.0,0.0,0.0,0.0,0.0,0.0,0.0,0.0,0.0,0.0,0.0,0.0,0.0,0.0,0.0,0.0,0.0,0.0,1.0614,1.1174,0.0,0.0,0.0,1.1882,1.1652,0.0,0.0,0.0,0.0,0.0,0.0,0.0,0.0,0.0,0.0,0.0,0.0,0.0,0.0,0.0,0.0,0.0,0.0,0.0,0.0,0.0,0.0,0.0,0.0,0.0,0.0,0.0,0.0,0.0,0.0,0.0,0.0,0.0,0.0,0.0,0.0,0.0,0.0,0.0,0.0,0.0,0.0,0.0,0.0,0.0,0.0,0.0,0.0,0.0,0.0,0.0,0.0,0.0,0.0,0.0,0.0,0.0,0.8885,0.9896,1.0302,1.0079,0.9896,0.9671,0.9396,0.8777,0.0,0.0,0.0,0.0,0.0,0.0,0.0,0.0,0.0,0.0,0.0,0.0,0.0,0.0,0.0,0.0,0.0,0.0,0.0,0.0,0.0,0.0,0.0,0.0,0.0,0.0,0.0,0.472,0.0,0.0,0.0,0.0,0.0,0.0,0.0,0.0,0.0,0.0,0.0,0.0,0.0,0.0,1.0216,1.0573,1.1313,1.1775,0.0,0.0,1.206,1.1805,1.199,1.2037,0.0,0.0,0.0,0.0,0.0,0.0,0.0,0.0,0.0,0.0,0.0,0.0,0.0,0.0,0.0,0.0,0.0,0.0,0.0,0.0,0.0,0.0,0.0,0.0,0.0,0.0,0.0,0.0,0.0,0.0,0.0,0.0,0.0,0.0,0.0,0.0,0.0,0.0,0.0,0.0,0.0,0.0,0.0,0.0,0.0,0.0,0.0,0.0,0.0,0.0,0.0,0.0,0.0,0.0,0.869,0.9087,0.9962,1.0358,1.0285,0.9983,0.9671,0.9403,0.9043,0.8524,0.0,0.0,0.0,0.0,0.0,0.0,0.0,0.0,0.0,0.0,0.0,0.0,0.0,0.0,0.0,0.0,0.0,0.0,0.0,0.0,0.0,0.0,0.0,0.0,0.0,0.0,0.0,0.0,0.0,0.0,0.0,0.0,0.0,0.0,0.0,0.0,0.0,0.0,0.0,0.0,0.0,1.0364,1.1366,1.1895,1.2249,0.0,0.0,1.2476,1.2214,1.2422,1.2345,1.1369,0.0,0.0,0.0,0.0,0.0,0.0,0.0,0.0,0.0,0.0,0.0,0.0,0.0,0.0,0.0,0.0,0.0,0.0,0.0,0.0,0.0,0.0,0.0,0.0,0.0,0.0,0.0,0.0,0.0,0.0,0.0,0.0,0.0,0.0,0.0,0.0,0.0,0.0,0.0,0.0,0.0,0.0,0.0,0.0,0.0,0.0,0.0,0.0,0.0,0.0,0.0,0.0,0.0,0.9013,0.9298,1.0063,1.039,1.0286,0.9964,0.9694,0.9523,0.9335,0.895,0.0,0.0,0.0,0.0,0.0,0.0,0.0,0.0,0.0,0.0,0.0,0.0,0.0,0.0,0.0,0.0,0.0,0.0,0.0,0.0,0.0,0.0,0.0,0.0,0.0,0.0,0.0,0.0,0.6312,0.6432,0.6434,0.0,0.0,0.0,0.0,0.0,0.0,0.0,0.0,0.0,0.0,1.0701,1.1592,1.21,0.0,0.0,1.2519,1.249,1.2401,1.24,1.2229,1.1706,1.1492,0.0,0.0,0.0,0.0,0.0,0.0,0.0,0.0,0.0,0.0,0.0,0.0,0.0,0.0,0.0,0.0,0.0,0.0,0.0,0.0,0.0,0.0,0.0,0.0,0.0,0.0,0.0,0.0,0.0,0.0,0.0,0.0,0.0,0.0,0.0,0.0,0.0,0.0,0.0,0.0,0.0,0.0,0.0,0.0,0.0,0.0,0.0,0.0,0.0,0.0,0.0,0.0,0.9281,0.9477,1.0208,1.055,1.0472,1.0063,0.9792,0.9673,0.9695,0.9457,0.0,0.0,0.0,0.0,0.0,0.0,0.0,0.0,0.0,0.0,0.0,0.0,0.0,0.0,0.0,0.0,0.0,0.0,0.0,0.0,0.0,0.0,0.0,0.0,0.0,0.0,0.0,0.0,0.6719,0.675,0.6681,0.0,0.0,0.0,0.0,0.0,0.0,0.0,0.0,0.0,0.0,1.1059,1.1753,1.2157,1.2356,1.233,1.2338,1.239,1.239,1.2274,1.2148,1.195,0.0,0.0,0.0,0.0,0.0,0.0,0.0,0.0,0.0,0.0,0.0,0.0,0.0,0.0,0.0,0.0,0.0,0.0,0.0,0.0,0.0,0.0,0.0,0.0,0.0,0.0,0.0,0.808,0.0,0.0,0.7287,0.0,0.0,0.0,0.0,0.0,0.0,0.0,0.0,0.0,0.0,0.0,0.0,0.0,0.0,0.0,0.0,0.0,0.0,0.0,0.0,0.0,0.0,0.9466,0.9624,1.0393,1.0776,1.0786,1.0272,0.9947,0.9822,1.0233,1.0054,0.9214,0.0,0.0,0.0,0.0,0.0,0.0,0.0,0.0,0.0,0.0,0.0,0.0,0.0,0.0,0.0,0.0,0.0,0.0,0.0,0.0,0.0,0.0,0.0,0.0,0.0,0.0,0.6772,0.7022,0.715,0.0,0.0,0.0,0.0,0.0,0.0,0.0,0.0,0.0,0.0,1.0833,1.1442,1.1946,1.2086,1.2164,1.2144,1.2135,1.2126,1.2126,1.2185,1.2164,0.0,0.0,0.0,0.0,0.0,0.0,0.0,0.0,0.0,0.0,0.0,0.0,0.0,0.0,0.0,0.0,0.0,0.0,0.0,0.0,0.0,0.0,0.0,0.0,0.0,0.0,0.0,0.8406,0.8351,0.0,0.0,0.0,0.0,0.0,0.0,0.0,0.0,0.0,0.0,0.0,0.761,0.759,0.0,0.0,0.0,0.0,0.0,0.0,0.0,0.0,0.0,0.0,0.0,0.0,0.9813,1.0007,1.0599,1.0893,1.0778,1.0408,1.0175,1.0127,1.028,1.0098,0.9568,0.0,0.0,0.0,0.0,0.0,0.0,0.0,0.0,0.0,0.0,0.0,0.0,0.0,0.0,0.0,0.0,0.0,0.0,0.0,0.0,0.0,0.0,0.0,0.0,0.0,0.6836,0.0,0.0,0.0,0.0,0.0,0.0,0.0,0.0,0.0,0.0,0.0,0.9898,1.0817,1.1287,1.1779,1.238,1.2586,1.2738,0.0,0.0,0.0,0.0,0.0,0.0,0.0,0.0,0.0,0.0,0.0,0.0,0.0,0.0,1.3085,1.2899,1.2918,1.2966,1.2966,0.0,0.0,0.0,0.0,0.0,0.0,0.0,0.0,0.0,0.0,0.0,0.0,0.0,0.0,0.879,0.0,0.8345,0.0,0.0,0.0,0.0,0.0,0.0,0.0,0.0,0.7933,0.807,0.8385,0.8443,0.867,0.0,0.8959,0.8771,0.0,0.0,0.0,0.0,0.0,0.0,0.0,0.0,1.0195,1.049,1.0879,1.107,1.1089,1.0682,1.0432,1.0426,1.0398,1.0347,1.03,0.9995,0.942,0.0,0.0,0.0,0.0,0.0,0.0,0.0,0.0,0.0,0.0,0.0,0.0,0.0,0.0,0.0,0.0,0.0,0.0,0.0,0.0,0.0,0.0,0.0,0.7521,0.0,0.0,0.0,0.0,0.0,0.0,0.0,0.0,0.0,0.9027,0.9796,1.0646,1.1357,1.1625,1.1971,1.2455,0.0,0.0,0.0,0.0,0.0,0.0,0.0,1.2634,1.2569,1.2535,1.2595,1.2702,1.323,1.3562,1.3502,0.0,0.0,1.3265,1.3204,1.3254,1.3254,1.3517,1.379,1.379,1.4251,1.4719,0.0,0.0,0.0,0.0,0.0,0.0,0.0,0.0,0.9418,0.9301,0.0,0.8782,0.0,0.0,0.0,0.0,0.0,0.8226,0.0,0.0,0.8743,0.894,0.898,0.9294,0.9757,1.0265,0.9974,1.0114,1.0568,0.9204,0.0,0.0,0.0,0.0,0.0,0.0,1.0555,1.0972,1.1154,1.137,1.1633,1.1056,1.0698,1.0717,1.059,1.0789,1.128,1.0445,0.9901,0.9807,0.8684,0.0,0.0,0.0,0.0,0.0,0.0,0.0,0.0,0.0,0.0,0.0,0.0,0.0,0.0,0.0,0.0,0.0,0.0,0.0,0.0,0.8114,0.0,0.0,0.0,0.0,0.0,0.0,0.0,0.0,0.0,0.0,0.9678,1.05,1.1248,1.1647,0.0,0.0,0.0,0.0,1.2101,1.2305,1.2592,1.2798,1.2807,1.2807,1.2841,1.2961,0.0,0.0,1.3179,1.352,1.3796,1.3772,1.4033,1.4028,1.3265,1.3276,1.3349,1.3358,1.3859,1.4267,1.4367,1.4854,1.5473,1.0431,0.0,0.0,0.0,0.0,0.9917,0.9912,1.0023,0.9655,0.9523,0.9516,0.9365,0.0,0.0,0.0,0.0,0.0,0.0,0.9231,0.9364,0.949,0.971,1.0046,1.0242,1.0478,1.0719,1.0624,1.0718,1.0973,1.0691,1.0187,0.9445,0.0,0.0,0.0,0.0,1.105,1.1033,1.1464,1.1592,1.1339,1.1164,1.0989,1.0846,1.0953,1.0963,1.0897,1.0702,1.0439,1.0092,0.9451,0.0,0.0,0.0,0.0,0.0,0.0,0.0,0.0,0.0,0.0,0.0,0.0,0.0,0.0,0.0,0.0,0.0,0.0,0.0,0.8256,0.8716,0.8874,0.0,0.0,0.0,0.0,0.0,0.0,0.0,0.0,0.0,1.0507,1.1183,1.1667,0.0,0.0,1.1992,1.2046,1.2123,1.218,1.2345,0.0,0.0,0.0,1.273,1.2749,1.2766,1.2994,1.3144,1.3208,1.3558,1.3782,1.357,1.3786,1.3853,1.3456,1.3687,1.3974,1.4046,1.4288,1.4513,1.454,1.4938,1.5333,1.1329,1.1023,1.0716,1.0643,1.0687,1.0486,1.0482,1.0573,1.0193,1.0047,1.0018,0.993,0.9787,0.9674,0.9645,0.0,0.0,0.0,0.9957,1.0062,1.0177,1.038,1.0663,1.0807,1.1,1.1209,1.1131,1.1222,1.1443,1.1418,1.1113,1.0526,0.0,0.0,1.0696,1.1114,1.1344,1.1394,1.1549,1.1571,1.1491,1.1365,1.1212,1.1124,1.1179,1.1124,1.0912,1.0885,1.0711,1.0321,0.9835,0.9122,0.0,0.0,0.0,0.0,0.0,0.0,0.0,0.0,0.0,0.0,0.0,0.5555,0.606,0.0,0.0,0.0,0.8123,0.8658,0.905,0.9341,0.0,0.0,0.0,0.0,0.0,0.0,0.0,0.9543,1.0186,1.0703,1.1009,1.1662,1.2015,1.1851,1.1951,1.2066,1.2166,0.0,1.2328,1.246,1.2625,1.2756,1.2956,1.2978,1.3,1.3067,1.3259,1.3398,1.3406,1.3692,1.3837,1.3687,1.3831,1.3975,1.3743,1.4046,1.4192,1.4106,1.4263,1.4446,1.4455,1.4834,1.5181,1.1952,1.1982,1.1435,1.1224,1.1293,1.1261,1.1268,1.1251,1.0891,1.077,1.077,1.0513,1.0335,1.0193,1.0154,0.0,1.0378,1.0514,1.0556,1.0576,1.0786,1.0886,1.0906,1.1068,1.1337,1.1608,1.1461,1.1561,1.1886,1.1597,1.1435,1.1445,1.1589,1.1606,1.15,1.1323,1.1495,1.1949,1.1483,1.145,1.1854,1.1586,1.1409,1.1402,1.126,1.1152,1.1152,1.0923,1.0693,1.0472,0.9973,0.9309,0.851,0.0,0.0,0.0,0.0,0.0,0.0,0.0,0.0,0.0,0.0,0.0,0.0,0.0,0.0,0.8349,0.9382,0.0,0.9838,0.9951,0.0,0.0,0.0,0.9398,0.9405,0.9705,0.9927,1.0103,0.0,0.0,1.1282,0.0,1.2366,1.2252,1.2151,1.2192,1.2363,1.2391,1.2455,1.258,1.2938,1.3184,1.3255,1.3322,1.3366,1.3498,1.3665,1.3605,1.3619,1.3706,1.3816,1.3809,1.4003,1.4098,1.4106,1.4101,1.4057,1.3739,1.3975,1.4191,1.4253,1.4656,1.5009,1.1649,1.1415,1.1244,1.1568,1.2094,1.1846,1.178,1.1852,1.1545,1.1371,1.1371,1.1336,1.1219,1.1111,1.107,1.109,1.1131,1.0966,1.095,1.1012,1.0796,1.0704,1.0809,1.0877,1.0926,1.103,1.1187,1.1296,1.139,1.1671,1.1793,1.1813,1.1955,1.1856,1.1441,1.1688,1.1733,1.1536,1.168,1.172,1.1659,1.1601,1.1565,1.1565,1.1133,1.0881,1.0879,1.0261,1.0058,1.0379,0.9868,0.9425,0.9176,0.867,0.0,0.0,0.0,0.0,0.0,0.0,0.0,0.0,0.0,0.7188,0.785,0.0,0.9036,0.0,0.9682,1.0027,1.0115,1.0222,0.0,0.0,1.0091,1.0193,1.0351,1.0419,1.0649,1.1029,1.1466,1.1753,1.1866,1.2312,1.2635,1.2595,1.2412,1.2254,1.2333,1.2429,1.2515,1.2645,1.2795,1.2904,1.3068,1.3109,1.3123,1.3165,1.3172,1.3172,1.3172,1.325,1.3347,1.3361,1.3479,1.3569,1.3624,1.3583,1.3562,1.3513,1.3847,1.4189,1.4196,1.4443,1.4645,1.1603,1.136,1.1367,1.165,1.2037,1.1717,1.1636,1.1672,1.1492,1.1418,1.1418,1.1411,1.1373,1.1332,1.1332,1.1263,1.1212,1.1068,1.1001,1.1008,1.0786,1.0754,1.079,1.079,1.079,1.0821,1.0934,1.1008,1.1038,1.1289,1.1398,1.1398,1.1714,1.1649,1.1337,1.1672,1.1796,1.1627,1.172,1.171,1.1577,1.1404,1.1332,1.1332,1.0895,1.0641,1.0542,1.0081,0.9909,1.0044,0.9804,0.9556,0.9281,0.9057,0.8635,0.0,0.0,0.0,0.0,0.0,0.0,0.0,0.0,0.0,0.0,0.0,0.9687,0.9992,1.0406,1.0613,1.0658,1.0763,1.0802,1.067,1.075,1.0877,1.1029,1.1192,1.1451,1.1696,1.2006,1.2264,1.2359,1.2637,1.2834,1.2834,1.2785,1.2657,1.2649,1.2696,1.2739,1.282,1.2834,1.2888,1.303,1.3214,1.3261,1.3261,1.3308,1.3349,1.3356,1.3417,1.3471,1.3478,1.3539,1.3551,1.3551,1.36,1.3558,1.3615,1.3798,1.3967,1.3872,1.3965,1.4079,1.1363,1.1317,1.1317,1.1322,1.1299,1.1069,1.1068,1.1233,1.1194,1.1155,1.1077,1.1077,1.1077,1.1077,1.1116,1.1017,1.0916,1.0833,1.0767,1.0643,1.0567,1.0555,1.0538,1.0538,1.0538,1.0538,1.0575,1.0613,1.0613,1.067,1.0702,1.0777,1.1058,1.1213,1.119,1.1435,1.1692,1.1903,1.1736,1.1617,1.1565,1.1221,1.1034,1.0962,1.0612,1.0329,1.0184,1.0095,0.9927,0.9658,0.9753,0.9634,0.9193,0.9222,0.9107,0.0,0.8568,0.0,0.0,0.0,0.0,0.0,0.0,0.0,0.0,0.9572,1.0149,1.0788,1.1165,1.1355,1.1254,1.1375,1.1393,1.1336,1.1451,1.1518,1.1572,1.1911,1.2193,1.2213,1.2535,1.2753,1.282,1.2949,1.3091,1.3146,1.3193,1.3241,1.3139,1.3084,1.3064,1.3057,1.3077,1.3173,1.3275,1.3485,1.3599,1.3661,1.368,1.3795,1.3761,1.3774,1.3781,1.3781,1.3768,1.3781,1.3795,1.3788,1.3788,1.3774,1.3797,1.3765,1.3574,1.3595,1.3612,1.0175,0.9843,0.9843,0.9801,0.9796,0.9756,1.0411,1.1512,1.1199,1.0833,1.0467,1.0462,1.0462,1.0462,1.0462,1.0451,1.0434,1.0075,0.9893,0.9709,0.94,0.9232,0.9186,0.9186,0.9181,0.9181,0.949,0.9645,0.9684,0.9889,1.0144,1.0486,1.0463,1.0591,1.0859,0.0,0.0,0.0,1.1873,1.1667,1.1447,1.1306,1.1059,1.0687,1.0263,0.0,0.9952,0.9538,0.9418,0.966,0.9502,0.0,0.0,0.0,0.0,0.0,0.0,0.0,0.0,0.0,0.0,0.0,1.0056,1.017,1.0059,1.0574,1.1081,1.1478,1.144,1.142,1.1507,1.165,1.1794,1.1914,1.2026,1.221,1.2409,1.2549,1.2644,1.2819,1.3009,1.3139,1.3254,1.341,1.3539,1.362,1.3653,1.366,1.3619,1.3451,1.3322,1.3322,1.3403,1.3546,1.3695,1.3714,1.3761,1.3761,1.3774,1.3808,1.3815,1.3808,1.3802,1.3808,1.3795,1.3802,1.3802,1.3795,1.3815,1.3802,1.3802,1.3781,1.3727,1.3734,1.3754,0.8984,0.0,0.8775,0.8775,0.0,0.8775,0.9174,0.9856,0.9856,0.9609,0.9235,0.9235,0.9235,0.9194,0.9194,0.9166,0.9119,0.8915,0.8743,0.8611,0.8411,0.8278,0.8225,0.8225,0.8198,0.8154,0.8384,0.8462,0.8501,0.8794,0.9035,0.9267,0.9637,0.9845,1.0012,1.0332,1.0827,1.1463,1.1355,1.1237,1.1083,1.0872,1.065,1.0384,0.0,0.0,0.0,0.0,0.0,0.0,0.0,0.0,0.0,0.0,0.0,0.9622,0.9864,1.005,1.0057,1.0317,1.0548,1.0671,1.1131,1.1227,1.0866,1.1247,1.1608,1.1872,1.1851,1.1925,1.2104,1.2192,1.2338,1.2526,1.2615,1.2691,1.282,1.2908,1.2976,1.3111,1.3261,1.3431,1.3498,1.3599,1.3714,1.3781,1.3795,1.3802,1.3788,1.3673,1.362,1.3614,1.3632,1.3714,1.3788,1.3869,1.3953,1.396,1.4014,1.4018,1.4025,1.4025,1.4025,1.4068,1.4025,1.4025,1.4068,1.4068,1.4068,1.4025,1.4025,1.4068,1.4018,1.4007,1.3953,0.76,0.76,0.7642,0.7642,0.7642,0.76,0.76,0.7516,0.0,0.0,0.0,0.76,0.7642,0.76,0.76,0.7561,0.7455,0.7451,0.7409,0.7251,0.7247,0.7242,0.7166,0.7166,0.7128,0.7063,0.7099,0.7063,0.7102,0.7492,0.7727,0.7845,0.8595,0.9022,0.9084,0.9687,1.0171,1.0469,1.0712,1.0801,1.0781,1.0344,1.0069,1.0037,0.9301,0.8883,0.8883,0.8577,0.8534,0.8785,0.9076,0.9317,0.9487,0.9811,0.996,0.9923,1.0296,1.0525,1.0579,1.099,1.1366,1.1619,1.1965,1.2023,1.1545,1.1766,1.204,1.2169,1.2318,1.2508,1.2706,1.2733,1.2834,1.3023,1.3037,1.3043,1.3084,1.318,1.3248,1.3282,1.3451,1.3599,1.3626,1.3747,1.3849,1.3876,1.3903,1.3883,1.3869,1.3829,1.3781,1.3858,1.3878,1.3849,1.3896,1.4027,1.4109,1.4116,1.4211,1.4292,1.4299,1.4299,1.4299,1.4272,1.4299,1.4285,1.4292,1.4278,1.4299,1.4299,1.4299,1.4299,1.4285,1.4204,1.4159,0.5756,0.5753,0.5753,0.5795,0.5798,0.5795,0.5547,0.5295,0.6427,0.6511,0.5795,0.5753,0.5795,0.5753,0.5756,0.5751,0.5742,0.5742,0.5668,0.0,0.5569,0.5494,0.5474,0.5471,0.5428,0.5419,0.5419,0.5417,0.55,0.5901,0.6304,0.6667,0.715,0.7786,0.85,0.8967,0.9197,0.9272,1.0363,1.0862,1.0622,1.0135,0.9699,0.9356,0.8776,0.8497,0.8497,0.8389,0.8417,0.844,0.8515,0.8725,0.9074,0.935,0.9646,0.9958,1.0353,1.0627,1.078,1.1232,1.1833,1.2431,1.2564,1.2447,1.2064,1.2359,1.2578,1.2644,1.2766,1.2921,1.2969,1.2975,1.3037,1.3159,1.3146,1.3234,1.3308,1.3342,1.3363,1.3376,1.3519,1.3646,1.3761,1.3946,1.4082,1.419,1.4183,1.4224,1.417,1.4007,1.3919,1.4,1.4084,1.4095,1.417,1.4245,1.4258,1.4265,1.4278,1.4299,1.4299,1.4299,1.4299,1.4299,1.4299,1.4299,1.4299,1.4299,1.4299,1.4299,1.4299,1.4299,1.4299,1.4272,1.4258,0.3934,0.3932,0.3955,0.3945,0.3943,0.3919,0.3658,0.3279,0.3868,0.4204,0.4332,0.4332,0.4162,0.3952,0.3952,0.3952,0.3952,0.391,0.39,0.384,0.384,0.3817,0.3736,0.3734,0.3721,0.37,0.3698,0.3819,0.4106,0.4509,0.4953,0.5402,0.605,0.6698,0.7309,0.775,0.8074,0.8316,0.9342,0.9879,0.9729,0.9485,0.9145,0.8795,0.8316,0.7941,0.7702,0.7467,0.7467,0.7663,0.7702,0.7976,0.8607,0.8793,0.9036,0.9462,1.0086,1.0457,1.052,1.1203,1.1761,1.2085,1.2162,1.213,1.1978,1.2503,1.2888,1.2963,1.3037,1.3152,1.3186,1.3241,1.3268,1.3288,1.3336,1.3329,1.3383,1.3397,1.3431,1.3519,1.3612,1.3761,1.3946,1.4102,1.4211,1.4292,1.4299,1.4299,1.4299,1.4183,1.4109,1.4183,1.4197,1.4224,1.4285,1.4299,1.4299,1.4299,1.4299,1.4299,1.4299,1.4299,1.4299,1.4299,1.4299,1.4299,1.4299,1.4299,1.4299,1.4299,1.4299,1.4299,1.4299,1.4299,1.4299,0.2389,0.2387,0.2369,0.2404,0.2401,0.2376,0.2153,0.1857,0.1853,0.2188,0.2736,0.2903,0.2734,0.2397,0.2397,0.2397,0.2355,0.2397,0.2355,0.2397,0.2397,0.2344,0.2326,0.2283,0.2273,0.2213,0.2212,0.2417,0.2785,0.3195,0.3684,0.4259,0.5036,0.5608,0.6019,0.6506,0.6873,0.7203,0.7852,0.836,0.8679,0.8599,0.8437,0.8118,0.7633,0.7188,0.682,0.6378,0.6337,0.6617,0.6739,0.7143,0.7876,0.8078,0.828,0.8724,0.9476,1.0043,1.0294,1.0898,1.1359,1.1446,1.157,1.1623,1.1659,1.2197,1.2677,1.2886,1.2934,1.2987,1.3156,1.3224,1.3286,1.3403,1.3451,1.3471,1.3498,1.3498,1.3539,1.3632,1.3676,1.3767,1.3931,1.3984,1.3938,1.3894,1.3989,1.3989,1.3989,1.3989,1.3989,1.4166,1.421,1.4292,1.4299,1.4299,1.4299,1.4299,1.4299,1.4299,1.4299,1.4299,1.4299,1.4299,1.4299,1.4299,1.4299,1.4299,1.4299,1.4299,1.4299,1.4299,1.4299,1.4299,1.4299,0.1435,0.1434,0.1433,0.1433,0.143,0.1416,0.1409,0.1365,0.1352,0.1178,0.1054,0.1304,0.1473,0.143,0.143,0.143,0.143,0.143,0.143,0.143,0.143,0.1429,0.1427,0.1427,0.1427,0.1382,0.1424,0.1423,0.1548,0.1968,0.264,0.3439,0.394,0.4354,0.486,0.5276,0.5569,0.5611,0.5694,0.6422,0.7718,0.7467,0.7224,0.7224,0.6418,0.5969,0.5904,0.5483,0.5245,0.5323,0.5694,0.6138,0.6547,0.6989,0.7394,0.7766,0.8412,0.9151,1.0088,1.0327,1.0576,1.0977,1.0966,1.0977,1.102,1.11,1.1478,1.1951,1.2181,1.2366,1.2692,1.2788,1.2977,1.3383,1.3523,1.3612,1.3714,1.3754,1.3761,1.3774,1.3558,1.3446,1.3441,1.328,1.3046,1.3008,1.3008,1.3008,1.3008,1.3097,1.323,1.3591,1.3989,1.4255,1.4299,1.4299,1.4299,1.4299,1.4299,1.4299,1.4299,1.4299,1.4299,1.4299,1.4299,1.4299,1.4299,1.4299,1.4299,1.4299,1.4299,1.4299,1.4299,1.4299,1.4299,0.0532,0.0531,0.0528,0.0525,0.0522,0.0519,0.0518,0.0518,0.0516,0.0429,0.03,0.0472,0.0554,0.0547,0.0547,0.0505,0.0505,0.0505,0.0505,0.0505,0.0505,0.0547,0.0505,0.0547,0.0505,0.0505,0.0547,0.0673,0.0968,0.1388,0.1808,0.2187,0.2607,0.2901,0.3111,0.3574,0.3795,0.382,0.3822,0.4111,0.4769,0.5629,0.5986,0.5733,0.536,0.5085,0.4818,0.4609,0.4527,0.4527,0.4694,0.4989,0.5414,0.5625,0.5963,0.6385,0.7173,0.8029,0.8963,0.9046,0.915,0.9323,0.9366,0.9366,0.9366,0.9625,0.9974,1.0332,1.1241,1.2053,1.2434,1.2525,1.2635,1.2898,1.3117,1.3308,1.3353,1.363,1.3743,1.3571,1.3463,1.3279,1.3085,1.275,1.2387,1.2121,1.1988,1.1988,1.2032,1.2299,1.2565,1.2787,1.3192,1.3723,1.4122,1.4299,1.4299,1.4299,1.4299,1.4299,1.4299,1.4299,1.4299,1.4299,1.4299,1.4299,1.4299,1.4299,1.4299,1.4299,1.4299,1.4299,1.4299,1.4299,1.4299,0.0,0.0,0.0,0.0,0.0,0.0,0.0,0.0,0.0,0.0,0.0,0.0,0.0,0.0,0.0,0.0,0.0,0.0,0.0,0.0,0.0,0.0,0.0,0.0,0.0,0.0,0.0,0.0213,0.051,0.0764,0.1019,0.1146,0.1486,0.1698,0.1826,0.2164,0.2343,0.2319,0.232,0.2328,0.2511,0.3592,0.4257,0.4205,0.4081,0.3879,0.3561,0.3389,0.3346,0.3346,0.3432,0.3651,0.3999,0.4259,0.4694,0.5258,0.5966,0.6671,0.7458,0.752,0.7534,0.7534,0.7621,0.7749,0.7796,0.8189,0.8538,0.8795,0.9928,1.0868,1.1704,1.1956,1.206,1.2262,1.2699,1.3008,1.3058,1.3355,1.345,1.3279,1.2954,1.2583,1.2004,1.1538,1.1094,1.0693,1.0604,1.0649,1.0693,1.1005,1.1405,1.1588,1.2121,1.292,1.3856,1.4078,1.4122,1.4299,1.4299,1.4299,1.4299,1.4299,1.4299,1.4299,1.4299,1.4299,1.4299,1.4299,1.4299,1.4299,1.4299,1.4299,1.4299,1.4299,1.4299,0.0,0.0,0.0,0.0,0.0,0.0,0.0,0.0,0.0,0.0,0.0,0.0,0.0,0.0,0.0,0.0,0.0,0.0,0.0,0.0,0.0,0.0,0.0,0.0,0.0,0.0,0.0,0.0,0.0,0.0,0.0261,0.0694,0.078,0.0954,0.1257,0.1343,0.1345,0.1347,0.1347,0.1348,0.1349,0.1478,0.1997,0.2651,0.2389,0.2217,0.2089,0.1696,0.1479,0.1478,0.1916,0.2133,0.2218,0.3001,0.3829,0.4659,0.4871,0.5203,0.5651,0.5825,0.5856,0.5904,0.6296,0.6573,0.656,0.6961,0.7406,0.787,0.8029,0.877,1.0067,1.0745,1.1248,1.1772,1.2356,1.2673,1.2832,1.2902,1.2945,1.2768,1.2098,1.1117,0.9798,0.9442,0.9264,0.8911,0.8733,0.8733,0.8863,0.9175,0.962,1.0199,1.096,1.1988,1.323,1.3723,1.3901,1.4078,1.421,1.4299,1.4299,1.4299,1.4299,1.4299,1.4299,1.4299,1.4299,1.4299,1.4299,1.4299,1.4299,1.4299,1.4299,1.4299,1.4299,0.0,0.0,0.0,0.0,0.0,0.0,0.0,0.0,0.0,0.0,0.0,0.0,0.0,0.0,0.0,0.0,0.0,0.0,0.0,0.0,0.0,0.0,0.0,0.0,0.0,0.0,0.0,0.0,0.0,0.0,0.0087,0.0217,0.0261,0.0348,0.0435,0.0478,0.048,0.0,0.0483,0.0485,0.0,0.0488,0.0666,0.0976,0.1411,0.1587,0.1642,0.1464,0.1376,0.1376,0.1509,0.1598,0.1642,0.1952,0.2395,0.3061,0.3426,0.3833,0.4283,0.461,0.4801,0.4801,0.498,0.5112,0.5159,0.5515,0.5873,0.6052,0.6365,0.6958,0.7858,0.907,1.0146,1.0666,1.1434,1.1931,1.2104,1.252,1.2698,1.1988,1.0916,0.9758,0.8952,0.8327,0.7792,0.7349,0.6991,0.6946,0.7256,0.7658,0.8193,0.8952,0.9665,1.0604,1.2032,1.3097,1.3679,1.3856,1.4033,1.421,1.4299,1.4299,1.4299,1.4299,1.4299,1.4299,1.4299,1.4299,1.4299,1.4299,1.4299,1.4299,1.4299,1.4299,1.4299,0.0,0.0,0.0,0.0,0.0,0.0,0.0,0.0,0.0,0.0,0.0,0.0,0.0,0.0,0.0,0.0,0.0,0.0,0.0,0.0,0.0,0.0,0.0,0.0,0.0,0.0,0.0,0.0,0.0,0.0,0.0,0.0,0.0,0.0,0.0,0.0,0.0,0.0,0.0,0.0,0.0,0.0,0.0,0.0,0.0624,0.0936,0.0943,0.0943,0.0943,0.0943,0.0943,0.1032,0.1167,0.1167,0.1391,0.1884,0.2243,0.2557,0.2872,0.3186,0.3366,0.3366,0.3545,0.3633,0.3633,0.4037,0.435,0.4574,0.4798,0.5246,0.6049,0.7163,0.8327,0.9357,1.0293,1.0832,1.101,1.1588,1.141,1.0604,0.958,0.8599,0.7747,0.6943,0.6362,0.5828,0.5428,0.5428,0.5739,0.6183,0.672,0.7572,0.8193,0.913,1.0337,1.1449,1.2964,1.3407,1.3768,1.4033,1.4255,1.4255,1.4299,1.4299,1.4299,1.4299,1.4299,1.4299,1.4299,1.4299,1.4299,1.4299,1.4299,1.4299,1.4299,0.0,0.0,0.0,0.0,0.0,0.0,0.0,0.0,0.0,0.0,0.0,0.0,0.0,0.0,0.0,0.0,0.0,0.0,0.0,0.0,0.0,0.0,0.0,0.0,0.0,0.0,0.0,0.0,0.0,0.0,0.0,0.0,0.0,0.0,0.0,0.0,0.0,0.0,0.0,0.0,0.0,0.0,0.0,0.0,0.0,0.0,0.0,0.0,0.0,0.0,0.0,0.0,0.0628,0.0673,0.0898,0.1257,0.1392,0.1436,0.1436,0.1571,0.1706,0.1795,0.2019,0.2332,0.2423,0.2736,0.3095,0.3409,0.3588,0.3947,0.4753,0.5109,0.6094,0.8149,0.8996,0.9446,0.9897,0.9986,0.9674,0.8956,0.8242,0.7304,0.6141,0.5336,0.4843,0.4487,0.4218,0.4128,0.4305,0.4709,0.5157,0.5828,0.6678,0.7792,0.8773,0.9798,1.1494,1.292,1.3413,1.3768,1.4078,1.4166,1.4299,1.4299,1.4299,1.4299,1.4299,1.4299,1.4299,1.4299,1.4299,1.4299,1.4299,1.4299,1.4299,0.0,0.0,0.0,0.0,0.0,0.0,0.0,0.0,0.0,0.0,0.0,0.0,0.0,0.0,0.0,0.0,0.0,0.0,0.0,0.0,0.0,0.0,0.0,0.0,0.0,0.0,0.0,0.0,0.0,0.0,0.0,0.0,0.0,0.0,0.0,0.0,0.0,0.0,0.0,0.0,0.0,0.0,0.0,0.0,0.0,0.0,0.0,0.0,0.0,0.0,0.0,0.009,0.0,0.0224,0.0314,0.0449,0.0763,0.0898,0.0988,0.1212,0.1347,0.1436,0.1571,0.1661,0.1661,0.1751,0.193,0.211,0.211,0.2467,0.3319,0.3542,0.4617,0.6898,0.7569,0.8193,0.8867,0.9045,0.8911,0.851,0.7304,0.6231,0.5559,0.4619,0.3588,0.3319,0.2826,0.2513,0.2871,0.3319,0.39,0.4617,0.5557,0.6496,0.7569,0.864,0.9976,1.1627,1.252,1.3413,1.3768,1.4078,1.4166,1.4299,1.4299,1.4299,1.4299,1.4299,1.4299,1.4299,1.4299,1.4299,1.4299,1.4299,1.4299,0.0,0.0,0.0,0.0,0.0,0.0,0.0,0.0,0.0,0.0,0.0,0.0,0.0,0.0,0.0,0.0,0.0,0.0,0.0,0.0,0.0,0.0,0.0,0.0,0.0,0.0,0.0,0.0,0.0,0.0,0.0,0.0,0.0,0.0,0.0,0.0,0.0,0.0,0.0,0.0,0.0,0.0,0.0,0.0,0.0,0.0,0.0,0.0,0.0,0.0,0.0,0.0,0.0,0.0,0.0,0.0,0.0224,0.0449,0.0494,0.0673,0.0898,0.0898,0.0898,0.0898,0.0898,0.0898,0.0943,0.1122,0.1167,0.1481,0.2153,0.2333,0.3228,0.493,0.6094,0.6988,0.784,0.8063,0.784,0.7349,0.6276,0.538,0.4485,0.3678,0.2557,0.2288,0.184,0.1436,0.1884,0.2153,0.2826,0.3497,0.4124,0.5199,0.6451,0.7524,0.8506,1.0021,1.1494,1.2609,1.3451,1.3768,1.3945,1.421,1.4299,1.4299,1.4299,1.4299,1.4299,1.4299,1.4299,1.4299,1.4299,1.4299,1.4299,0.0,0.0,0.0,0.0,0.0,0.0,0.0,0.0,0.0,0.0,0.0,0.0,0.0,0.0,0.0,0.0,0.0,0.0,0.0,0.0,0.0,0.0,0.0,0.0,0.0,0.0,0.0,0.0,0.0,0.0,0.0,0.0,0.0,0.0,0.0,0.0,0.0,0.0,0.0,0.0,0.0,0.0,0.0,0.0,0.0,0.0,0.0,0.0,0.0,0.0,0.0,0.0,0.0,0.0,0.0,0.0,0.0,0.0,0.0,0.0,0.0,0.0,0.0,0.0,0.0,0.0,0.0314,0.0628,0.0673,0.0853,0.1302,0.1436,0.1975,0.2916,0.4706,0.6052,0.6905,0.7039,0.6681,0.5918,0.5201,0.4438,0.3275,0.2558,0.193,0.1526,0.1302,0.1212,0.1257,0.1436,0.1839,0.2378,0.2961,0.3857,0.5154,0.6454,0.7435,0.864,1.0154,1.1449,1.2875,1.3369,1.3856,1.4122,1.4255,1.4255,1.4299,1.4299,1.4299,1.4299,1.4299,1.4299,1.4299,1.4299,1.4255,0.0,0.0,0.0,0.0,0.0,0.0,0.0,0.0,0.0,0.0,0.0,0.0,0.0,0.0,0.0,0.0,0.0,0.0,0.0,0.0,0.0,0.0,0.0,0.0,0.0,0.0,0.0,0.0,0.0,0.0,0.0,0.0,0.0,0.0,0.0,0.0,0.0,0.0,0.0,0.0,0.0,0.0,0.0,0.0,0.0,0.0,0.0,0.0,0.0,0.0,0.0,0.0,0.0,0.0,0.0,0.0,0.0,0.0,0.0,0.0,0.0,0.0,0.0,0.0,0.0,0.0,0.0,0.0,0.018,0.0404,0.0763,0.0898,0.1391,0.2377,0.39,0.5157,0.5515,0.5559,0.5425,0.5112,0.4171,0.3409,0.2736,0.1884,0.1122,0.0898,0.0673,0.0,0.0,0.0763,0.1167,0.1525,0.2064,0.2826,0.3855,0.5201,0.641,0.7435,0.8729,1.007,1.1627,1.292,1.3591,1.4166,1.4033,1.3989,1.4166,1.4255,1.4299,1.4122,1.4166,1.4078,1.421,1.4255,1.4166,0.0,0.0,0.0,0.0,0.0,0.0,0.0,0.0,0.0,0.0,0.0,0.0,0.0,0.0,0.0,0.0,0.0,0.0,0.0,0.0,0.0,0.0,0.0,0.0,0.0,0.0,0.0,0.0,0.0,0.0,0.0,0.0,0.0,0.0,0.0,0.0,0.0,0.0,0.0,0.0,0.0,0.0,0.0,0.0,0.0,0.0,0.0,0.0,0.0,0.0,0.0,0.0,0.0,0.0,0.0,0.0,0.0,0.0,0.0,0.0,0.0,0.0,0.0,0.0,0.0,0.0,0.0,0.0,0.0,0.0,0.0359,0.0584,0.0988,0.157,0.2736,0.3723,0.4305,0.4619,0.4485,0.4081,0.3454,0.2602,0.2153,0.1211,0.0718,0.0449,0.0224,0.0,0.0,0.0,0.0539,0.0943,0.1347,0.2019,0.2916,0.4171,0.547,0.6499,0.7926,0.9134,1.056,1.221,1.3008,1.3546,1.3635,1.3723,1.3723,1.3723,1.3635,1.354,1.3723,1.3768,1.3768,1.3901,1.3901,0.0,0.0,0.0,0.0,0.0,0.0,0.0,0.0,0.0,0.0,0.0,0.0,0.0,0.0,0.0,0.0,0.0,0.0,0.0,0.0,0.0,0.0,0.0,0.0,0.0,0.0,0.0,0.0,0.0,0.0,0.0,0.0,0.0,0.0,0.0,0.0,0.0,0.0,0.0,0.0,0.0,0.0,0.0,0.0,0.0,0.0,0.0,0.0,0.0,0.0,0.0,0.0,0.0,0.0,0.0,0.0,0.0,0.0,0.0,0.0,0.0,0.0,0.0,0.0,0.0,0.0,0.0,0.0,0.0,0.0,0.009,0.0404,0.0584,0.0808,0.1167,0.1975,0.3006,0.3725,0.368,0.2871,0.2736,0.1974,0.1212,0.0628,0.0,0.0,0.0,0.0,0.0,0.0,0.0,0.0539,0.0898,0.1257,0.2198,0.3185,0.444,0.5694,0.7256,0.864,0.9892,1.1232,1.2165,1.2698,1.2698,1.2742,1.2742,1.2742,1.2698,1.292,1.3008,1.3008,1.2964,1.3236,1.3318,0.0,0.0,0.0,0.0,0.0,0.0,0.0,0.0,0.0,0.0,0.0,0.0,0.0,0.0,0.0,0.0,0.0,0.0,0.0,0.0,0.0,0.0,0.0,0.0,0.0,0.0,0.0,0.0,0.0,0.0,0.0,0.0,0.0,0.0,0.0,0.0,0.0,0.0,0.0,0.0,0.0,0.0,0.0,0.0,0.0,0.0,0.0,0.0,0.0,0.0,0.0,0.0,0.0,0.0,0.0,0.0,0.0,0.0,0.0,0.0,0.0,0.0,0.0,0.0,0.0,0.0,0.0,0.0,0.0,0.0,0.0,0.0,0.0,0.0,0.0584,0.0988,0.1347,0.1795,0.202,0.1795,0.1481,0.1077,0.0718,0.0314,0.0,0.0,0.0,0.0,0.0,0.0,0.0,0.0,0.0494,0.0898,0.1525,0.2557,0.3812,0.4888,0.6362,0.7524,0.8778,0.9758,1.0471,1.1182,1.1721,1.1677,1.1455,1.1588,1.1543,1.1943,1.2254,1.221,1.221,1.2476,1.252,0.0,0.0,0.0,0.0,0.0,0.0,0.0,0.0,0.0,0.0,0.0,0.0,0.0,0.0,0.0,0.0,0.0,0.0,0.0,0.0,0.0,0.0,0.0,0.0,0.0,0.0,0.0,0.0,0.0,0.0,0.0,0.0,0.0,0.0,0.0,0.0,0.0,0.0,0.0,0.0,0.0,0.0,0.0,0.0,0.0,0.0,0.0,0.0,0.0,0.0,0.0,0.0,0.0,0.0,0.0,0.0,0.0,0.0,0.0,0.0,0.0,0.0,0.0,0.0,0.0,0.0,0.0,0.0,0.0,0.0,0.0,0.0,0.0,0.0,0.0,0.0,0.0,0.0988,0.1302,0.1122,0.0943,0.0628,0.0359,0.0,0.0,0.0,0.0,0.0,0.0,0.0,0.0,0.0,0.0,0.0539,0.0988,0.1974,0.3275,0.4261,0.5246,0.6097,0.6991,0.7792,0.8595,0.9308,1.0026,1.007,0.9937,1.0115,1.0248,1.0471,1.0733,1.1094,1.1271,1.1188,1.1188,0.0,0.0,0.0,0.0,0.0,0.0,0.0,0.0,0.0,0.0,0.0,0.0,0.0,0.0,0.0,0.0,0.0,0.0,0.0,0.0,0.0,0.0,0.0,0.0,0.0,0.0,0.0,0.0,0.0,0.0,0.0,0.0,0.0,0.0,0.0,0.0,0.0,0.0,0.0,0.0,0.0,0.0,0.0,0.0,0.0,0.0,0.0,0.0,0.0,0.0,0.0,0.0,0.0,0.0,0.0,0.0,0.0,0.0,0.0,0.0,0.0,0.0,0.0,0.0,0.0,0.0,0.0,0.0,0.0,0.0,0.0,0.0,0.0,0.0,0.0,0.0,0.0,0.0718,0.0808,0.0673,0.0494,0.0359,0.0,0.0,0.0,0.0,0.0,0.0,0.0,0.0,0.0,0.0,0.0,0.0,0.0808,0.1122,0.2467,0.3454,0.4305,0.4798,0.538,0.6007,0.6809,0.7617,0.8153,0.8197,0.8197,0.8153,0.8372,0.8773,0.913,0.9442,0.9625,0.9763,0.9852,0.0,0.0,0.0,0.0,0.0,0.0,0.0,0.0,0.0,0.0,0.0,0.0,0.0,0.0,0.0,0.0,0.0,0.0,0.0,0.0,0.0,0.0,0.0,0.0,0.0,0.0,0.0,0.0,0.0,0.0,0.0,0.0,0.0,0.0,0.0,0.0,0.0,0.0,0.0,0.0,0.0,0.0,0.0,0.0,0.0,0.0,0.0,0.0,0.0,0.0,0.0,0.0,0.0,0.0,0.0,0.0,0.0,0.0,0.0,0.0,0.0,0.0,0.0,0.0,0.0,0.0,0.0,0.0,0.0,0.0,0.0,0.0,0.0,0.0,0.0,0.0,0.0,0.0,0.0,0.0,0.0,0.0,0.0,0.0,0.0,0.0,0.0,0.0,0.0,0.0,0.0,0.0,0.0,0.0,0.0673,0.0808,0.1481,0.2423,0.3185,0.3588,0.4081,0.4442,0.5067,0.5602,0.6141,0.641,0.6365,0.6365,0.6768,0.7345,0.7569,0.7792,0.8108,0.8421,0.8554,0.0,0.0,0.0,0.0,0.0,0.0,0.0,0.0,0.0,0.0,0.0,0.0,0.0,0.0,0.0,0.0,0.0,0.0,0.0,0.0,0.0,0.0,0.0,0.0,0.0,0.0,0.0,0.0,0.0,0.0,0.0,0.0,0.0,0.0,0.0,0.0,0.0,0.0,0.0,0.0,0.0,0.0,0.0,0.0,0.0,0.0,0.0,0.0,0.0,0.0,0.0,0.0,0.0,0.0,0.0,0.0,0.0,0.0,0.0,0.0,0.0,0.0,0.0,0.0,0.0,0.0,0.0,0.0,0.0,0.0,0.0,0.0,0.0,0.0,0.0,0.0,0.0,0.0,0.0,0.0,0.0,0.0,0.0,0.0,0.0,0.0,0.0,0.0,0.0,0.0,0.0,0.0,0.0,0.0,0.0,0.0584,0.0763,0.1615,0.2198,0.2557,0.2736,0.3097,0.3052,0.3185,0.3723,0.4711,0.498,0.5159,0.5515,0.5825,0.6004,0.6228,0.6723,0.7081,0.7122,0.0,0.0,0.0,0.0,0.0,0.0,0.0,0.0,0.0,0.0,0.0,0.0,0.0,0.0,0.0,0.0,0.0,0.0,0.0,0.0,0.0,0.0,0.0,0.0,0.0,0.0,0.0,0.0,0.0,0.0,0.0,0.0,0.0,0.0,0.0,0.0,0.0,0.0,0.0,0.0,0.0,0.0,0.0,0.0,0.0,0.0,0.0,0.0,0.0,0.0,0.0,0.0,0.0,0.0,0.0,0.0,0.0,0.0,0.0,0.0,0.0,0.0,0.0,0.0,0.0,0.0,0.0,0.0,0.0,0.0,0.0,0.0,0.0,0.0,0.0,0.0,0.0,0.0,0.0,0.0,0.0,0.0,0.0,0.0,0.0,0.0,0.0,0.0,0.0,0.0,0.0,0.0,0.0,0.0,0.0,0.0,0.0539,0.0988,0.1392,0.1661,0.1661,0.1706,0.1751,0.1975,0.2513,0.3411,0.368,0.3814,0.3902,0.4035,0.4303,0.4617,0.4975,0.5154,0.5154,0.0,0.0,0.0,0.0,0.0,0.0,0.0,0.0,0.0,0.0,0.0,0.0,0.0,0.0,0.0,0.0,0.0,0.0,0.0,0.0,0.0,0.0,0.0,0.0,0.0,0.0,0.0,0.0,0.0,0.0,0.0,0.0,0.0,0.0,0.0,0.0,0.0,0.0,0.0,0.0,0.0,0.0,0.0,0.0,0.0,0.0,0.0,0.0,0.0,0.0,0.0,0.0,0.0,0.0,0.0,0.0,0.0,0.0,0.0,0.0,0.0,0.0,0.0,0.0,0.0,0.0,0.0,0.0,0.0,0.0,0.0,0.0,0.0,0.0,0.0,0.0,0.0,0.0,0.0,0.0,0.0,0.0,0.0,0.0,0.0,0.0,0.0,0.0,0.0,0.0,0.0,0.0,0.0,0.0,0.0,0.0,0.0,0.0,0.0,0.0,0.0943,0.1032,0.1257,0.1526,0.0,0.0,0.211,0.2154,0.2153,0.2467,0.2961,0.3094,0.3139,0.3228,0.3409,0.0,0.0,0.0,0.0,0.0,0.0,0.0,0.0,0.0,0.0,0.0,0.0,0.0,0.0,0.0,0.0,0.0,0.0,0.0,0.0,0.0,0.0,0.0,0.0,0.0,0.0,0.0,0.0,0.0,0.0,0.0,0.0,0.0,0.0,0.0,0.0,0.0,0.0,0.0,0.0,0.0,0.0,0.0,0.0,0.0,0.0,0.0,0.0,0.0,0.0,0.0,0.0,0.0,0.0,0.0,0.0,0.0,0.0,0.0,0.0,0.0,0.0,0.0,0.0,0.0,0.0,0.0,0.0,0.0,0.0,0.0,0.0,0.0,0.0,0.0,0.0,0.0,0.0,0.0,0.0,0.0,0.0,0.0,0.0,0.0,0.0,0.0,0.0,0.0,0.0,0.0,0.0,0.0,0.0,0.0,0.0,0.0,0.0,0.0,0.0,0.0,0.0584,0.0,0.0,0.0,0.0,0.0,0.1077,0.1571,0.1705,0.175,0.1884,0.2019,0.2064,0.2198,0.0,0.0,0.0,0.0,0.0,0.0,0.0,0.0,0.0,0.0,0.0,0.0,0.0,0.0,0.0,0.0,0.0,0.0,0.0,0.0,0.0,0.0,0.0,0.0,0.0,0.0,0.0,0.0,0.0,0.0,0.0,0.0,0.0,0.0,0.0,0.0,0.0,0.0,0.0,0.0,0.0,0.0,0.0,0.0,0.0,0.0,0.0,0.0,0.0,0.0,0.0,0.0,0.0,0.0,0.0,0.0,0.0,0.0,0.0,0.0,0.0,0.0,0.0,0.0,0.0,0.0,0.0,0.0,0.0,0.0,0.0,0.0,0.0,0.0,0.0,0.0,0.0,0.0,0.0,0.0,0.0,0.0,0.0,0.0,0.0,0.0,0.0,0.0,0.0,0.0,0.0,0.0,0.0,0.0,0.0,0.0,0.0,0.0,0.0,0.0,0.0,0.0,0.0,0.0,0.0,0.0,0.0,0.0,0.1032,0.0988,0.0942,0.0988,0.1077,0.0,0.0,0.0,0.0,0.0,0.0,0.0,0.0,0.0,0.0,0.0,0.0,0.0,0.0,0.0,0.0,0.0,0.0,0.0,0.0,0.0,0.0,0.0,0.0,0.0,0.0,0.0,0.0,0.0,0.0,0.0,0.0,0.0,0.0,0.0,0.0,0.0,0.0,0.0,0.0,0.0,0.0,0.0,0.0,0.0,0.0,0.0,0.0,0.0,0.0,0.0,0.0,0.0,0.0,0.0,0.0,0.0,0.0,0.0,0.0,0.0,0.0,0.0,0.0,0.0,0.0,0.0,0.0,0.0,0.0,0.0,0.0,0.0,0.0,0.0,0.0,0.0,0.0,0.0,0.0,0.0,0.0,0.0,0.0,0.0,0.0,0.0,0.0,0.0,0.0,0.0,0.0,0.0,0.0,0.0,0.0,0.0,0.0,0.0,0.0,0.0,0.0,0.0,0.0,0.0,0.0,0.0,0.0,0.0,0.0,0.0,0.0,0.0,0.0,0.0,0.0,0.0,0.0,0.0,0.0,0.0,0.0,0.0,0.0,0.0,0.0,0.0,0.0,0.0,0.0,0.0,0.0,0.0,0.0,0.0,0.0,0.0,0.0,0.0,0.0,0.0,0.0,0.0,0.0,0.0,0.0,0.0,0.0,0.0,0.0,0.0,0.0,0.0,0.0,0.0,0.0,0.0,0.0,0.0,0.0,0.0,0.0,0.0,0.0,0.0,0.0,0.0,0.0,0.0,0.0,0.0,0.0,0.0,0.0,0.0,0.0,0.0,0.0,0.0,0.0,0.0,0.0,0.0,0.0,0.0,0.0,0.0,0.0,0.0,0.0,0.0,0.0,0.0,0.0,0.0,0.0,0.0,0.0,0.0,0.0,0.0,0.0,0.0,0.0,0.0,0.0,0.0,0.0,0.0,0.0,0.0,0.0,0.0,0.0,0.0,0.0,0.0,0.0,0.0,0.0,0.0,0.0,0.0,0.0,0.0,0.0,0.0,0.0,0.0,0.0,0.0,0.0,0.0,0.0,0.0,0.0,0.0,0.0,0.0,0.0,0.0,0.0,0.0,0.0,0.0,0.0,0.0,0.0,0.0,0.0,0.0,0.0,0.0,0.0,0.0,0.0,0.0,0.0,0.0,0.0,0.0,0.0,0.0,0.0,0.0,0.0,0.0,0.0,0.0,0.0,0.0,0.0,0.0,0.0,0.0,0.0,0.0,0.0,0.0,0.0,0.0,0.0,0.0,0.0,0.0,0.0,0.0,0.0,0.0,0.0,0.0,0.0,0.0,0.0,0.0,0.0,0.0,0.0,0.0,0.0,0.0,0.0,0.0,0.0,0.0,0.0,0.0,0.0,0.0,0.0,0.0,0.0,0.0,0.0,0.0,0.0,0.0,0.0,0.0,0.0,0.0,0.0,0.0,0.0,0.0,0.0,0.0,0.0,0.0,0.0,0.0,0.0,0.0,0.0,0.0,0.0,0.0,0.0,0.0,0.0,0.0,0.0,0.0,0.0,0.0,0.0,0.0,0.0,0.0,0.0,0.0,0.0,0.0,0.0,0.0,0.0,0.0,0.0,0.0,0.0,0.0,0.0,0.0,0.0,0.0,0.0,0.0,0.0,0.0,0.0,0.0,0.0,0.0,0.0,0.0,0.0,0.0,0.0,0.0,0.0,0.0,0.0,0.0,0.0,0.0,0.0,0.0,0.0,0.0,0.0,0.0,0.0,0.0,0.0,0.0,0.0,0.0,0.0,0.0,0.0,0.0,0.0,0.0,0.0,0.0,0.0,0.0,0.0,0.0,0.0,0.0,0.0,0.0,0.0,0.0,0.0,0.0,0.0,0.0,0.0,0.0,0.0,0.0,0.0,0.0,0.0,0.0,0.0,0.0,0.0,0.0,0.0,0.0,0.0,0.0,0.0,0.0,0.0,0.0,0.0,0.0,0.0,0.0,0.0,0.0,0.0,0.0,0.0,0.0,0.0,0.0,0.0,0.0,0.0,0.0,0.0,0.0,0.0,0.0,0.0,0.0,0.0,0.0,0.0,0.0,0.0,0.0,0.0,0.0,0.0,0.0,0.0,0.0,0.0,0.0,0.0,0.0,0.0,0.0,0.0,0.0,0.0,0.0,0.0,0.0,0.0,0.0,0.0,0.0,0.0,0.0,0.0,0.0,0.0,0.0,0.0,0.0,0.0,0.0,0.0,0.0,0.0,0.0,0.0,0.0,0.0,0.0,0.0,0.0,0.0,0.0,0.0,0.0,0.0,0.0,0.0,0.0,0.0,0.0,0.0,0.0,0.0,0.0,0.0,0.0,0.0,0.0,0.0,0.0,0.0,0.0,0.0,0.0,0.0,0.0,0.0,0.0,0.0,0.0,0.0,0.0,0.0,0.0,0.0,0.0,0.0,0.0,0.0,0.0,0.0,0.0,0.0,0.0,0.0,0.0,0.0,0.0,0.0,0.0,0.0,0.0,0.0,0.0,0.0,0.0,0.0,0.0,0.0,0.0,0.0,0.0,0.0,0.0,0.0,0.0,0.0,0.0,0.0,0.0,0.0,0.0,0.0,0.0,0.0,0.0,0.0,0.0,0.0,0.0,0.0,0.0,0.0,0.0,0.0,0.0,0.0,0.0,0.0,0.0,0.0,0.0,0.0,0.0,0.0,0.0,0.0,0.0,0.0,0.0,0.0,0.0,0.0,0.0,0.0,0.0,0.0,0.0,0.0,0.0,0.0,0.0,0.0,0.0,0.0,0.0,0.0,0.0,0.0,0.0,0.0,0.0,0.0,0.0,0.0,0.0,0.0,0.0,0.0,0.0,0.0,0.0,0.0,0.0,0.0,0.0,0.0,0.0,0.0,0.0,0.0,0.0,0.0,0.0,0.0,0.0,0.0,0.0,0.0,0.0,0.0,0.0,0.0,0.0,0.0,0.0,0.0,0.0,0.0,0.0,0.0,0.0,0.0,0.0,0.0,0.0,0.0,0.0,0.0,0.0,0.0,0.0,0.0,0.0,0.0,0.0,0.0,0.0,0.0,0.0,0.0,0.0,0.0,0.0,0.0,0.0,0.0,0.0,0.0,0.0,0.0,0.0,0.0,0.0,0.0,0.0,0.0,0.0,0.0,0.0,0.0,0.0,0.0,0.0,0.0,0.0,0.0,0.0,0.0,0.0,0.0,0.0,0.0,0.0,0.0,0.0,0.0,0.0,0.0,0.0,0.0,0.0,0.0,0.0,0.0,0.0,0.0,0.0,0.0,0.0,0.0,0.0,0.0,0.0,0.0,0.0,0.0,0.0,0.0,0.0,0.0,0.0,0.0,0.0,0.0,0.0,0.0,0.0,0.0,0.0,0.0,0.0,0.0,0.0,0.0,0.0,0.0,0.0,0.0,0.0,0.0,0.0,0.0,0.0,0.0,0.0,0.0,0.0,0.0,0.0,0.0,0.0,0.0,0.0,0.0,0.0,0.0,0.0,0.0,0.0,0.0,0.0,0.0,0.0,0.0,0.0,0.0,0.0,0.0,0.0,0.0,0.0,0.0,0.0,0.0,0.0,0.0,0.0,0.0,0.0,0.0,0.0,0.0,0.0,0.0,0.0,0.0,0.0,0.0,0.0,0.0,0.0,0.0,0.0,0.0,0.0,0.0,0.0,0.0,0.0,0.0,0.0,0.0,0.0,0.0,0.0,0.0,0.0,0.0,0.0,0.0,0.0,0.0,0.0,0.0,0.0,0.0,0.0,0.0,0.0,0.0,0.0,0.0,0.0,0.0,0.0,0.0,0.0,0.0,0.0,0.0,0.0,0.0,0.0,0.0,0.0,0.0,0.0,0.0,0.0,0.0,0.0,0.0,0.0,0.0,0.0,0.0,0.0,0.0,0.0,0.0,0.0,0.0,0.0,0.0,0.0,0.0,0.0,0.0,0.0,0.0,0.0,0.0,0.0,0.0,0.0,0.0,0.0,0.0,0.0,0.0,0.0,0.0,0.0,0.0,0.0,0.0,0.0,0.0,0.0,0.0,0.0,0.0,0.0,0.0,0.0,0.0,0.0,0.0,0.0,0.0,0.0,0.0,0.0,0.0,0.0,0.0,0.0,0.0,0.0,0.0,0.0,0.0,0.0,0.0,0.0,0.0,0.0,0.0,0.0,0.0,0.0,0.0,0.0,0.0,0.0,0.0,0.0,0.0,0.0,0.0,0.0,0.0,0.0,0.0,0.0,0.0,0.0,0.0,0.0,0.0,0.0,0.0,0.0,0.0,0.0,0.0,0.0,0.0,0.0,0.0,0.0,0.0,0.0,0.0,0.0,0.0,0.0,0.0,0.0,0.0,0.0,0.0,0.0,0.0,0.0,0.0,0.0,0.0,0.0,0.0,0.0,0.0,0.0,0.0,0.0,0.0,0.0,0.0,0.0,0.0,0.0,0.0,0.0,0.0,0.0,0.0,0.0,0.0,0.0,0.0,0.0,0.0,0.0,0.0,0.0,0.0,0.0,0.0,0.0,0.0,0.0,0.0,0.0,0.0,0.0,0.0,0.0,0.0,0.0,0.0,0.0,0.0,0.0,0.0,0.0,0.0,0.0,0.0,0.0,0.0,0.0,0.0,0.0,0.0,0.0,0.0,0.0,0.0,0.0,0.0,0.0,0.0,0.0,0.0,0.0,0.0,0.0,0.0,0.0,0.0,0.0,0.0,0.0,0.0,0.0,0.0,0.0,0.0,0.0,0.0,0.0,0.0,0.0,0.0,0.0,0.0,0.0,0.0,0.0,0.0,0.0,0.0,0.0,0.0,0.0,0.0,0.0,0.0,0.0,0.0,0.0,0.0,0.0,0.0,0.0,0.0,0.0,0.0,0.0,0.0,0.0,0.0,0.0,0.0,0.0,0.0,0.0,0.0,0.0,0.0,0.0,0.0,0.0,0.0,0.0,0.0,0.0,0.0,0.0,0.0,0.0,0.0,0.0,0.0,0.0,0.0,0.0,0.0,0.0,0.0,0.0,0.0,0.0,0.0,0.0,0.0,0.0,0.0,0.0,0.0,0.0,0.0,0.0,0.0,0.0,0.0,0.0,0.0,0.0,0.0,0.0,0.0,0.0,0.0,0.0,0.0,0.0,0.0,0.0,0.0,0.0,0.0,0.0,0.0,0.0,0.0,0.0,0.0,0.0,0.0,0.0,0.0,0.0,0.0,0.0,0.0,0.0,0.0,0.0,0.0,0.0,0.0,0.0,0.0,0.0,0.0,0.0,0.0,0.0,0.0,0.0,0.0,0.0,0.0,0.0,0.0,0.0,0.0,0.0,0.0,0.0,0.0,0.0,0.0,0.0,0.0,0.0,0.0,0.0,0.0,0.0,0.0,0.0,0.0,0.0,0.0,0.0,0.0,0.0,0.0,0.0,0.0,0.0,0.0,0.0,0.0,0.0,0.0,0.0,0.0,0.0,0.0,0.0,0.0,0.0,0.0,0.0,0.0,0.0,0.0,0.0,0.0,0.0,0.0,0.0,0.0,0.0,0.0,0.0,0.0,0.0,0.0,0.0,0.0,0.0,0.0,0.0,0.0,0.0,0.0,0.0,0.0,0.0,0.0,0.0,0.0,0.0,0.0,0.0,0.0,0.0,0.0,0.0,0.0,0.0,0.0,0.0,0.0,0.0,0.0,0.0,0.0,0.0,0.0,0.0,0.0,0.0,0.0,0.0,0.0,0.0,0.0,0.0,0.0,0.0,0.0,0.0,0.0,0.0,0.0,0.0,-0.0044,-0.0177,-0.031,0.0,-0.0443,-0.0576,-0.0532,0.0,0.0,0.0,-0.0572,-0.057,-0.0569,-0.0567,0.0,0.0,0.0,0.0,0.0,0.0,0.0,0.0,0.0,0.0,0.0,0.0,0.0,0.0,0.0,0.0,0.0,0.0,0.0,0.0,0.0,0.0,0.0,0.0,0.0,0.0,0.0,0.0,0.0,0.0,0.0,0.0,0.0,0.0,0.0,0.0,0.0,0.0,0.0,0.0,0.0,0.0,0.0,0.0,0.0,0.0,0.0,0.0,0.0,0.0,0.0,0.0,0.0,0.0,0.0,0.0,0.0,0.0,0.0,0.0,0.0,0.0,0.0,0.0,0.0,0.0,0.0,0.0,0.0,0.0,0.0,0.0,0.0,0.0,0.0,0.0,0.0,0.0,0.0,0.0,0.0,0.0,0.0,0.0,0.0,0.0,0.0,0.0,0.0,0.0,0.0,0.0,0.0,0.0,0.0,0.0,0.0,0.0,0.0,-0.0043,-0.0087,-0.0217,-0.0522,-0.0785,-0.0961,-0.1179,-0.1436,-0.1309,-0.1096,-0.1139,-0.1265,-0.1433,-0.1475,-0.1475,-0.1473,-0.1473,-0.1207,-0.0985,-0.0639,-0.0381,0.0,0.0,0.0,0.0,0.0,0.0,0.0,0.0,0.0,0.0,0.0,0.0,0.0,0.0,0.0,0.0,0.0,0.0,0.0,0.0,0.0,0.0,0.0,0.0,0.0,0.0,0.0,0.0,0.0,0.0,0.0,0.0,0.0,0.0,0.0,0.0,0.0,0.0,0.0,0.0,0.0,0.0,0.0,0.0,0.0,0.0,0.0,0.0,0.0,0.0,0.0,0.0,0.0,0.0,0.0,0.0,0.0,0.0,0.0,0.0,0.0,0.0,0.0,0.0,0.0,0.0,0.0,0.0,0.0,0.0,0.0,0.0,0.0,0.0,0.0,0.0,0.0,0.0,0.0,0.0,0.0,0.0,0.0,0.0,0.0,0.0,0.0,0.0,0.0,0.0,0.0,0.0,0.0,0.0,-0.0477,-0.0564,-0.0651,-0.0998,-0.1429,-0.1688,-0.2034,-0.2333,-0.2669,-0.2378,-0.1871,-0.1995,-0.2242,-0.2364,-0.2441,-0.2424,-0.2204,-0.1861,-0.1522,-0.1265,-0.0969,-0.0758,-0.0631,-0.0379,-0.0253,0.0,0.0,0.0,0.0,0.0,0.0,0.0,0.0,0.0,0.0,0.0,0.0,0.0,0.0,0.0,0.0,0.0,0.0,0.0,0.0,0.0,0.0,0.0,0.0,0.0,0.0,0.0,0.0,0.0,0.0,0.0,0.0,0.0,0.0,0.0,0.0,0.0,0.0,0.0,0.0,0.0,0.0,0.0,0.0,0.0,0.0,0.0,0.0,0.0,0.0,0.0,0.0,0.0,0.0,0.0,0.0,0.0,0.0]},{"header":{"parameterUnit":"m.s-1","parameterCategory":1,"la1":31.0,"la2":29.5877,"lo1":-88.7671,"lo2":-86.6584,"dx":0.0162,"dy":0.0185,"nx":115,"ny":88,"refTime":"2022-11-25T06:00:00:Z","depth":0,"parameterNumber":3,"parameterNumberName":"V-component_of_WINDS"},"data":[0.0,0.0,0.0,0.0,0.0,0.0,0.0,0.0,0.0,0.0,0.0,0.0,0.0,0.0,0.0,0.0,0.0,0.0,0.0,0.0,0.0,0.0,0.0,0.0,0.0,0.0,0.0,0.0,0.0,0.0,0.0,0.0,0.0,0.0,0.0,0.0,0.0,0.0,0.0,0.0,0.0,0.0,0.0,0.0,0.0,0.0,0.0,0.0,0.0,0.0,0.0,0.0,0.0,0.0,0.0,0.0,0.0,0.0,0.0,0.0,0.0,0.0,0.0,0.0,0.0,0.0,0.0,0.0,0.0,0.0,0.0,0.0,0.0,0.0,0.0,0.0,0.0,0.0,0.0,0.0,0.0,0.0,0.0,0.0,0.0,0.0,0.0,0.0,0.0,0.0,0.0,0.0,0.0,0.0,0.0,0.0,0.0,0.0,0.0,0.0,0.0,0.0,0.0,0.0,0.0,0.0,0.0,0.0,0.0,0.0,0.0,0.0,0.0,0.0,0.0,0.0,0.0,0.0,0.0,0.0,0.0,0.0,0.0,0.0,0.0,0.0,0.0,0.0,0.0,0.0,0.0,0.0,0.0,0.0,0.0,0.0,0.0,0.0,0.0,0.0,0.0,0.0,0.0,0.0,0.0,0.0,0.0,0.0,0.0,0.0,0.0,0.0,0.0,0.0,0.0,0.0,0.0,0.0,0.0,0.0,0.0,0.0,0.0,0.0,0.0,0.0,0.0,0.0,0.0,0.0,0.0,0.0,0.0,0.0,0.0,0.0,0.0,0.0,0.0,0.0,0.0,0.0,0.0,0.0,0.0,0.0,0.0,0.0,0.0,0.0,0.0,0.0,0.0,0.0,0.0,0.0,0.0,0.0,0.0,0.0,0.0,0.0,0.0,0.0,0.0,0.0,0.0,0.0,0.0,0.0,0.0,0.0,0.0,0.0,0.0,0.0,0.0,0.0,0.0,0.0,0.0,0.0,0.0,0.0,0.0,0.0,0.0,0.0,0.0,0.0,0.0,0.0,0.0,0.0,0.0,0.0,0.0,0.0,0.0,0.0,0.0,0.0,0.0,0.0,0.0,0.0,0.0,0.0,0.0,0.0,0.0,0.0,0.0,0.0,0.0,0.0,0.0,0.0,0.0,0.0,0.0,0.0,0.0,0.0,0.0,0.0,0.0,0.0,0.0,0.0,0.0,0.0,0.0,0.0,0.0,0.0,0.0,0.0,0.0,0.0,0.0,0.0,0.0,0.0,0.0,0.0,0.0,0.0,0.0,0.0,0.0,0.0,0.0,0.0,0.0,0.0,0.0,0.0,0.0,0.0,0.0,0.0,0.0,0.0,0.0,0.0,0.0,0.0,0.0,0.0,0.0,0.0,0.0,0.0,0.0,0.0,0.0,0.0,0.0,0.0,0.0,0.0,0.0,0.0,0.0,0.0,0.0,0.0,0.0,0.0,0.0,0.0,0.0,0.0,0.0,0.0,0.0,0.0,0.0,0.0,0.0,0.0,0.0,0.0,0.0,0.0,0.0,0.0,0.0,0.0,0.0,0.0,0.0,0.0,0.0,0.0,0.0,0.0,0.0,0.0,0.0,0.0,0.0,0.0,0.0,0.0,0.0,0.0,0.0,0.0,0.0,0.0,0.0,0.0,0.0,0.0,0.0,0.0,0.0,0.0,0.0,0.0,0.0,0.0,0.0,0.0,0.0,0.0,0.0,0.0,0.0,0.0,0.0,0.0,0.0,0.0,0.0,0.0,0.0,0.0,0.0,0.0,0.0,0.0,0.0,0.0,0.0,0.0,0.0,0.0,0.0,0.0,0.0,0.0,0.0,0.0,0.0,0.0,0.0,0.0,0.0,0.0,0.0,0.0,0.0,0.0,0.0,0.0,0.0,0.0,0.0,0.0,0.0,0.0,0.0,0.0,0.0,0.0,0.0,0.0,0.0,0.0,0.0,0.0,0.0,0.0,0.0,0.0,0.0,0.0,0.0,0.0,0.0,0.0,0.0,0.0,0.0,0.0,0.0,0.0,0.0,0.0,0.0,0.0,0.0,0.0,0.0,0.0,0.0,0.0,0.0,0.0,0.0,0.0,0.0,0.0,0.0,0.0,0.0,0.0,0.0,0.0,0.0,0.0,0.0,0.0,0.0,0.0,0.0,0.0,0.0,0.0,0.0,0.0,0.0,0.0,0.0,0.0,0.0,0.0,0.0,0.0,0.0,0.0,0.0,0.0,0.0,0.0,0.0,0.0,0.0,0.0,0.0,0.0,0.0,0.0,0.0,0.0,0.0,0.0,0.0,0.0,0.0,0.0,0.0,0.0,0.0,0.0,0.0,0.0,0.0,0.0,0.0,0.0,0.0,0.0,0.0,0.0,0.0,0.0,0.0,0.0,0.0,0.0,0.0,0.0,0.0,0.0,0.0,0.0,0.0,0.0,0.0,0.0,0.0,0.0,0.0,0.0,0.0,0.0,0.0,0.0,0.0,0.0,0.0,0.0,0.0,0.0,0.0,0.0,0.0,0.0,0.0,0.0,0.0,0.0,0.0,0.0,0.0,0.0,0.0,0.0,0.0,0.0,0.0,0.0,0.0,0.0,0.0,0.0,0.0,0.0,0.0,0.0,0.0,0.0,0.0,0.0,0.0,0.0,0.0,0.0,0.0,0.0,0.0,0.0,0.0,0.0,0.0,0.0,0.0,0.0,0.0,0.0,0.0,0.0,0.0,0.0,0.0,0.0,0.0,0.0,0.0,0.0,0.0,0.0,0.0,0.0,0.0,0.0,0.0,0.0,0.0,0.0,0.0,0.0,0.0,0.0,0.0,0.0,0.0,0.0,0.0,0.0,0.0,0.0,0.0,0.0,0.0,0.0,0.0,0.0,0.0,0.0,0.0,0.0,0.0,0.0,0.0,0.0,0.0,0.0,0.0,0.0,0.0,0.0,0.0,0.0,0.0,0.0,0.0,0.0,0.0,0.0,0.0,0.0,0.0,0.0,0.0,0.0,0.0,0.0,0.0,0.0,0.0,0.0,0.0,0.0,0.0,0.0,0.0,0.0,0.0,0.0,0.0,0.0,0.0,0.0,0.0,0.0,0.0,0.0,0.0,0.0,0.0,0.0,0.0,0.0,0.0,0.0,0.0,0.0,0.0,0.0,0.0,0.0,0.0,0.0,0.0,0.0,0.0,0.0,0.0,0.0,0.0,0.0,0.0,0.0,0.0,0.0,0.0,0.0,0.0,0.0,0.0,0.0,0.0,0.0,0.0,0.0,0.0,0.0,0.0,0.0,0.0,0.0,0.0,0.0,0.0,0.0,0.0,0.0,0.0,0.0,0.0,0.0,0.0,0.0,0.0,0.0,0.0,0.0,0.0,0.0,0.0,0.0,0.0,0.0,0.0,0.0,0.0,0.0,0.0,0.0,0.0,0.0,0.0,0.0,0.0,0.0,0.0,0.0,0.0,0.0,0.0,0.0,0.0,0.0,0.0,0.0,0.0,0.0,0.0,0.0,0.0,0.0,0.0,0.0,0.0,0.0,0.0,0.0,0.0,0.0,0.0,0.0,0.0,0.0,0.0,0.0,0.0,0.0,0.0,0.0,0.0,0.0,0.0,0.0,0.0,0.0,0.0,0.0,0.0,0.0,0.0,0.0,0.0,0.0,0.0,0.0,0.0,0.0,0.0,0.0,0.0,0.0,0.0,0.0,0.0,0.0,0.0,0.0,0.0,0.0,0.0,0.0,0.0,0.0,0.0,0.0,0.0,0.0,0.0,0.0,0.0,0.0,0.0,0.0,0.0,0.0,0.0,0.0,0.0,0.0,0.0,0.0,0.0,0.0,0.0,0.0,0.0,0.0,0.0,0.0,0.0,0.0,0.0,0.0,0.0,0.0,0.0,0.0,0.0,0.0,0.0,0.0,0.0,0.0,0.0,0.0,0.0,0.0,0.0,0.0,0.0,0.0,0.0,0.0,0.0,0.0,0.0,0.0,0.0,0.0,0.0,0.0,0.0,0.0,0.0,0.0,0.0,0.0,0.0,0.0,0.0,0.0,0.0,0.0,0.0,0.0,0.0,0.0,0.0,0.0,0.0,0.0,0.0,0.0,0.0,0.0,0.0,0.0,0.0,0.0,0.0,0.0,0.0,0.0,0.0,0.0,0.0,0.0,0.0,0.0,0.0,0.0,0.0,0.0,0.0,0.0,0.0,0.0,0.0,0.0,0.0,0.0,0.0,0.0,0.0,0.0,0.0,0.0,2.4228,0.0,0.0,0.0,2.4776,0.0,0.0,0.0,0.0,0.0,0.0,0.0,0.0,0.0,0.0,0.0,0.0,0.0,0.0,0.0,0.0,0.0,0.0,0.0,0.0,0.0,0.0,0.0,0.0,0.0,0.0,0.0,0.0,0.0,0.0,0.0,0.0,0.0,0.0,0.0,0.0,0.0,0.0,0.0,0.0,0.0,0.0,0.0,0.0,0.0,0.0,0.0,0.0,0.0,0.0,0.0,0.0,0.0,0.0,0.0,0.0,0.0,0.0,0.0,0.0,0.0,0.0,0.0,0.0,0.0,0.0,0.0,0.0,0.0,0.0,0.0,0.0,0.0,0.0,0.0,0.0,0.0,0.0,0.0,0.0,0.0,0.0,0.0,0.0,0.0,0.0,0.0,0.0,0.0,0.0,0.0,0.0,0.0,0.0,0.0,0.0,0.0,0.0,0.0,0.0,0.0,0.0,0.0,0.0,0.0,0.0,0.0,0.0,0.0,0.0,2.4238,2.4371,2.4479,2.4633,2.4791,0.0,0.0,0.0,0.0,0.0,0.0,0.0,0.0,0.0,0.0,0.0,0.0,0.0,0.0,0.0,0.0,0.0,0.0,0.0,0.0,0.0,0.0,0.0,0.0,0.0,0.0,0.0,0.0,0.0,0.0,0.0,0.0,0.0,0.0,0.0,0.0,0.0,0.0,0.0,0.0,0.0,0.0,0.0,0.0,0.0,0.0,0.0,0.0,0.0,0.0,0.0,0.0,0.0,0.0,0.0,0.0,0.0,0.0,0.0,0.0,0.0,0.0,0.0,0.0,0.0,0.0,0.0,0.0,0.0,0.0,0.0,0.0,0.0,0.0,0.0,0.0,0.0,0.0,0.0,0.0,0.0,0.0,0.0,0.0,0.0,0.0,0.0,0.0,0.0,0.0,0.0,0.0,0.0,0.0,0.0,0.0,0.0,0.0,0.0,0.0,0.0,0.0,0.0,0.0,0.0,0.0,0.0,0.0,0.0,0.0,0.0,0.0,2.4555,2.4696,2.4881,0.0,0.0,0.0,0.0,0.0,0.0,0.0,0.0,0.0,0.0,0.0,0.0,0.0,0.0,0.0,0.0,0.0,0.0,0.0,0.0,0.0,0.0,0.0,0.0,0.0,0.0,0.0,0.0,0.0,0.0,0.0,0.0,0.0,0.0,0.0,0.0,0.0,0.0,0.0,0.0,0.0,0.0,0.0,0.0,0.0,0.0,0.0,0.0,0.0,0.0,0.0,0.0,0.0,0.0,0.0,0.0,0.0,0.0,0.0,0.0,0.0,0.0,0.0,0.0,0.0,0.0,0.0,0.0,0.0,0.0,0.0,0.0,0.0,0.0,0.0,0.0,0.0,0.0,0.0,0.0,0.0,0.0,0.0,0.0,0.0,0.0,0.0,0.0,0.0,0.0,0.0,0.0,0.0,0.0,0.0,0.0,0.0,0.0,0.0,0.0,0.0,0.0,0.0,0.0,0.0,0.0,0.0,0.0,0.0,0.0,2.4312,2.4398,2.4588,0.0,2.5051,0.0,0.0,0.0,0.0,0.0,0.0,0.0,0.0,0.0,0.0,0.0,0.0,0.0,0.0,0.0,0.0,0.0,0.0,0.0,0.0,0.0,0.0,0.0,0.0,0.0,0.0,0.0,0.0,0.0,0.0,0.0,0.0,0.0,0.0,0.0,0.0,0.0,0.0,0.0,0.0,0.0,0.0,0.0,0.0,0.0,0.0,0.0,0.0,0.0,0.0,0.0,0.0,0.0,0.0,0.0,0.0,0.0,0.0,0.0,0.0,0.0,0.0,0.0,0.0,0.0,0.0,0.0,0.0,0.0,0.0,0.0,0.0,0.0,0.0,0.0,0.0,0.0,0.0,0.0,0.0,0.0,0.0,0.0,0.0,0.0,0.0,0.0,0.0,0.0,0.0,0.0,0.0,0.0,0.0,0.0,0.0,0.0,0.0,0.0,0.0,0.0,0.0,0.0,0.0,0.0,0.0,0.0,0.0,0.0,0.0,2.433,2.4377,2.4692,2.4891,0.0,0.0,0.0,0.0,0.0,0.0,0.0,0.0,0.0,0.0,0.0,0.0,0.0,0.0,0.0,0.0,0.0,0.0,0.0,0.0,0.0,0.0,0.0,0.0,0.0,0.0,0.0,0.0,0.0,0.0,0.0,0.0,0.0,0.0,0.0,0.0,0.0,0.0,0.0,0.0,0.0,0.0,0.0,0.0,0.0,0.0,0.0,0.0,0.0,0.0,0.0,0.0,0.0,0.0,0.0,0.0,0.0,0.0,0.0,0.0,0.0,0.0,0.0,0.0,0.0,0.0,0.0,0.0,0.0,0.0,0.0,0.0,0.0,0.0,0.0,0.0,0.0,0.0,0.0,0.0,0.0,0.0,0.0,0.0,0.0,0.0,0.0,0.0,0.0,0.0,0.0,0.0,0.0,0.0,0.0,0.0,0.0,0.0,0.0,0.0,0.0,0.0,0.0,0.0,0.0,0.0,0.0,0.0,0.0,0.0,2.3732,2.4366,2.4493,2.473,2.4971,2.5103,0.0,0.0,0.0,0.0,0.0,0.0,0.0,0.0,0.0,0.0,0.0,0.0,0.0,0.0,0.0,0.0,0.0,0.0,0.0,0.0,0.0,0.0,0.0,0.0,0.0,0.0,0.0,0.0,0.0,0.0,0.0,0.0,0.0,0.0,0.0,0.0,0.0,0.0,0.0,0.0,0.0,0.0,0.0,0.0,0.0,0.0,0.0,0.0,0.0,0.0,0.0,0.0,0.0,0.0,0.0,0.0,0.0,0.0,0.0,0.0,0.0,0.0,0.0,0.0,0.0,0.0,0.0,0.0,0.0,0.0,0.0,0.0,0.0,0.0,0.0,0.0,0.0,0.0,0.0,0.0,0.0,0.0,0.0,0.0,0.0,0.0,0.0,0.0,0.0,0.0,0.0,0.0,0.0,0.0,0.0,0.0,0.0,0.0,0.0,0.0,0.0,0.0,0.0,0.0,0.0,0.0,0.0,0.0,2.1931,2.3478,2.4428,2.4684,2.4856,2.4971,0.0,0.0,0.0,0.0,0.0,0.0,0.0,0.0,0.0,0.0,0.0,0.0,0.0,0.0,0.0,0.0,0.0,0.0,0.0,0.0,0.0,0.0,0.0,0.0,0.0,0.0,0.0,0.0,0.0,0.0,0.0,0.0,0.0,0.0,0.0,0.0,0.0,0.0,0.0,0.0,0.0,0.0,0.0,0.0,0.0,0.0,0.0,0.0,0.0,0.0,0.0,0.0,0.0,0.0,0.0,0.0,0.0,0.0,0.0,0.0,0.0,0.0,0.0,0.0,0.0,0.0,0.0,0.0,0.0,0.0,0.0,0.0,0.0,0.0,0.0,0.0,0.0,0.0,0.0,0.0,0.0,0.0,0.0,0.0,0.0,0.0,0.0,0.0,0.0,0.0,0.0,0.0,0.0,0.0,0.0,0.0,0.0,0.0,0.0,0.0,0.0,0.0,0.0,0.0,0.0,0.0,0.0,0.0,0.0,2.1858,2.3475,2.4455,2.47,2.4822,2.4958,0.0,0.0,0.0,0.0,0.0,0.0,0.0,0.0,0.0,0.0,0.0,0.0,0.0,0.0,0.0,0.0,0.0,0.0,0.0,0.0,0.0,0.0,0.0,0.0,0.0,0.0,0.0,0.0,0.0,0.0,0.0,0.0,0.0,0.0,0.0,0.0,0.0,0.0,0.0,0.0,0.0,0.0,0.0,0.0,0.0,0.0,0.0,0.0,0.0,0.0,0.0,0.0,0.0,0.0,0.0,0.0,0.0,0.0,0.0,0.0,0.0,0.0,0.0,0.0,0.0,0.0,0.0,0.0,0.0,0.0,0.0,0.0,0.0,0.0,0.0,0.0,0.0,0.0,0.0,0.0,0.0,0.0,0.0,0.0,0.0,0.0,0.0,0.0,0.0,0.0,0.0,0.0,0.0,0.0,0.0,0.0,0.0,0.0,0.0,0.0,0.0,0.0,0.0,0.0,0.0,0.0,0.0,0.0,0.0,2.3,2.4194,2.4907,2.5067,2.5234,2.5249,0.0,0.0,0.0,0.0,0.0,0.0,0.0,0.0,0.0,0.0,0.0,0.0,0.0,0.0,0.0,0.0,0.0,0.0,0.0,0.0,0.0,0.0,0.0,0.0,0.0,0.0,0.0,0.0,0.0,0.0,0.0,0.0,0.0,0.0,0.0,0.0,0.0,0.0,0.0,0.0,0.0,0.0,0.0,0.0,0.0,0.0,0.0,0.0,0.0,0.0,0.0,0.0,0.0,0.0,0.0,0.0,0.0,0.0,0.0,0.0,0.0,0.0,0.0,0.0,0.0,0.0,0.0,0.0,0.0,0.0,0.0,0.0,0.0,0.0,0.0,0.0,0.0,0.0,0.0,0.0,0.0,0.0,0.0,0.0,0.0,0.0,0.0,0.0,0.0,0.0,0.0,0.0,0.0,0.0,0.0,0.0,0.0,0.0,0.0,0.0,0.0,0.0,0.0,0.0,0.0,0.0,0.0,0.0,2.3033,2.5327,2.5588,2.576,2.5884,2.605,2.5846,0.0,0.0,0.0,0.0,0.0,0.0,0.0,0.0,0.0,0.0,0.0,0.0,0.0,0.0,0.0,0.0,0.0,0.0,0.0,0.0,0.0,0.0,0.0,0.0,0.0,0.0,0.0,0.0,0.0,0.0,0.0,0.0,0.0,0.0,0.0,0.0,0.0,0.0,0.0,0.0,0.0,0.0,0.0,0.0,0.0,0.0,0.0,0.0,0.0,0.0,0.0,0.0,0.0,0.0,0.0,0.0,0.0,0.0,0.0,0.0,0.0,0.0,0.0,0.0,0.0,0.0,0.0,0.0,0.0,0.0,0.0,0.0,0.0,0.0,0.0,0.0,0.0,0.0,0.0,0.0,0.0,0.0,0.0,0.0,0.0,0.0,0.0,0.0,0.0,0.0,0.0,0.0,0.0,0.0,0.0,0.0,0.0,0.0,0.0,0.0,0.0,0.0,0.0,0.0,0.0,0.0,0.0,0.0,0.0,2.548,2.6143,2.6563,2.67,2.6351,2.6062,0.0,0.0,0.0,0.0,0.0,0.0,0.0,0.0,0.0,0.0,0.0,0.0,0.0,0.0,0.0,0.0,0.0,0.0,0.0,0.0,0.0,0.0,0.0,0.0,0.0,0.0,0.0,0.0,0.0,0.0,0.0,0.0,0.0,0.0,0.0,0.0,0.0,0.0,0.0,0.0,0.0,0.0,0.0,0.0,0.0,0.0,0.0,0.0,0.0,0.0,0.0,0.0,0.0,0.0,0.0,0.0,0.0,0.0,0.0,0.0,0.0,0.0,0.0,0.0,0.0,0.0,0.0,0.0,0.0,0.0,0.0,0.0,0.0,0.0,0.0,0.0,0.0,0.0,0.0,0.0,0.0,0.0,0.0,0.0,0.0,0.0,0.0,0.0,0.0,0.0,0.0,0.0,0.0,0.0,0.0,0.0,0.0,0.0,0.0,0.0,0.0,0.0,0.0,0.0,0.0,0.0,0.0,0.0,0.0,2.7779,2.7763,2.7831,2.7998,2.7641,2.7055,2.6219,0.0,0.0,0.0,0.0,0.0,0.0,0.0,0.0,0.0,0.0,0.0,0.0,0.0,0.0,0.0,0.0,0.0,0.0,0.0,0.0,0.0,0.0,0.0,0.0,0.0,0.0,0.0,0.0,0.0,0.0,0.0,0.0,0.0,0.0,0.0,0.0,0.0,0.0,0.0,0.0,0.0,0.0,0.0,0.0,0.0,0.0,0.0,0.0,0.0,0.0,0.0,0.0,0.0,0.0,0.0,0.0,0.0,0.0,0.0,0.0,0.0,0.0,0.0,0.0,0.0,0.0,0.0,0.0,0.0,0.0,0.0,0.0,0.0,0.0,0.0,0.0,0.0,0.0,0.0,0.0,0.0,0.0,0.0,0.0,0.0,0.0,0.0,0.0,0.0,0.0,0.0,0.0,0.0,0.0,0.0,0.0,0.0,0.0,0.0,0.0,0.0,0.0,0.0,0.0,0.0,0.0,0.0,0.0,3.191,3.0483,2.9763,2.971,2.9744,2.8726,0.0,0.0,0.0,0.0,0.0,0.0,0.0,0.0,0.0,0.0,0.0,0.0,0.0,0.0,0.0,0.0,0.0,0.0,0.0,0.0,0.0,0.0,0.0,0.0,0.0,0.0,0.0,0.0,0.0,0.0,0.0,0.0,0.0,0.0,0.0,0.0,0.0,0.0,0.0,0.0,0.0,0.0,0.0,0.0,0.0,0.0,0.0,0.0,0.0,0.0,0.0,0.0,0.0,0.0,0.0,0.0,0.0,0.0,0.0,0.0,0.0,0.0,0.0,0.0,0.0,0.0,0.0,0.0,0.0,0.0,0.0,0.0,0.0,0.0,0.0,0.0,0.0,0.0,0.0,0.0,0.0,0.0,0.0,0.0,0.0,0.0,0.0,0.0,0.0,0.0,0.0,0.0,0.0,0.0,0.0,0.0,0.0,0.0,0.0,0.0,0.0,0.0,0.0,0.0,0.0,0.0,0.0,0.0,0.0,3.4499,3.4792,3.4051,3.2302,3.1203,3.0118,0.0,0.0,0.0,0.0,0.0,0.0,0.0,0.0,0.0,0.0,0.0,0.0,0.0,0.0,0.0,0.0,0.0,0.0,0.0,0.0,0.0,0.0,0.0,0.0,0.0,0.0,0.0,0.0,0.0,0.0,0.0,0.0,0.0,0.0,0.0,0.0,0.0,0.0,0.0,0.0,0.0,0.0,0.0,0.0,0.0,0.0,0.0,0.0,0.0,0.0,0.0,0.0,0.0,0.0,0.0,0.0,0.0,0.0,0.0,0.0,0.0,0.0,0.0,0.0,0.0,0.0,0.0,0.0,0.0,0.0,0.0,0.0,0.0,0.0,0.0,0.0,0.0,0.0,0.0,0.0,0.0,0.0,0.0,0.0,0.0,0.0,0.0,0.0,0.0,0.0,0.0,0.0,0.0,0.0,0.0,0.0,0.0,0.0,0.0,0.0,0.0,0.0,0.0,0.0,0.0,0.0,0.0,0.0,3.4395,3.7306,3.8205,3.7954,3.6538,3.4317,3.2265,0.0,0.0,0.0,0.0,0.0,0.0,0.0,0.0,0.0,0.0,0.0,0.0,0.0,0.0,0.0,0.0,0.0,0.0,0.0,0.0,0.0,0.0,0.0,0.0,0.0,0.0,0.0,0.0,0.0,0.0,0.0,0.0,0.0,0.0,0.0,0.0,0.0,0.0,0.0,0.0,0.0,0.0,0.0,0.0,0.0,0.0,0.0,0.0,0.0,0.0,0.0,0.0,0.0,0.0,0.0,0.0,0.0,0.0,0.0,0.0,0.0,0.0,0.0,0.0,0.0,0.0,0.0,0.0,0.0,0.0,0.0,0.0,0.0,0.0,0.0,0.0,0.0,0.0,0.0,0.0,0.0,0.0,0.0,0.0,0.0,0.0,0.0,0.0,0.0,0.0,0.0,0.0,0.0,0.0,0.0,0.0,0.0,0.0,0.0,0.0,0.0,0.0,0.0,0.0,0.0,0.0,0.0,0.0,3.7303,3.9916,4.0925,4.1449,4.1393,3.804,3.4727,0.0,0.0,0.0,0.0,0.0,0.0,0.0,0.0,0.0,0.0,0.0,0.0,0.0,0.0,0.0,0.0,0.0,0.0,0.0,0.0,0.0,0.0,0.0,0.0,0.0,0.0,0.0,0.0,0.0,0.0,0.0,0.0,0.0,0.0,0.0,0.0,0.0,0.0,0.0,0.0,0.0,0.0,0.0,0.0,0.0,0.0,0.0,0.0,0.0,0.0,0.0,0.0,0.0,0.0,0.0,0.0,0.0,0.0,0.0,0.0,0.0,0.0,0.0,0.0,0.0,0.0,0.0,0.0,0.0,0.0,0.0,0.0,0.0,0.0,0.0,0.0,0.0,0.0,0.0,0.0,0.0,0.0,0.0,0.0,0.0,0.0,0.0,0.0,0.0,0.0,0.0,0.0,0.0,0.0,0.0,0.0,0.0,0.0,0.0,0.0,0.0,0.0,0.0,0.0,0.0,0.0,0.0,0.0,3.8552,4.1745,4.3318,4.4116,4.422,3.9639,3.6255,0.0,0.0,0.0,0.0,0.0,0.0,0.0,0.0,0.0,0.0,0.0,0.0,0.0,0.0,0.0,0.0,0.0,0.0,0.0,0.0,0.0,0.0,0.0,0.0,0.0,0.0,0.0,0.0,0.0,0.0,0.0,0.0,0.0,0.0,0.0,0.0,0.0,0.0,0.0,0.0,0.0,0.0,0.0,0.0,0.0,0.0,0.0,0.0,2.8614,0.0,0.0,0.0,0.0,0.0,0.0,0.0,0.0,0.0,0.0,0.0,0.0,0.0,0.0,0.0,0.0,0.0,0.0,0.0,0.0,0.0,0.0,0.0,0.0,0.0,0.0,0.0,0.0,0.0,0.0,0.0,0.0,0.0,0.0,0.0,0.0,0.0,0.0,0.0,0.0,0.0,0.0,0.0,0.0,0.0,0.0,0.0,0.0,0.0,0.0,0.0,0.0,0.0,0.0,0.0,0.0,0.0,0.0,0.0,4.0642,4.3614,4.5373,4.61,4.5682,4.2042,3.8852,0.0,0.0,0.0,0.0,0.0,0.0,0.0,0.0,0.0,0.0,0.0,0.0,0.0,0.0,0.0,0.0,0.0,0.0,0.0,0.0,0.0,0.0,0.0,0.0,0.0,0.0,0.0,0.0,0.0,0.0,0.0,0.0,0.0,0.0,0.0,0.0,0.0,0.0,0.0,0.0,0.0,0.0,0.0,0.0,0.0,0.0,0.0,0.0,0.0,0.0,0.0,0.0,0.0,0.0,0.0,0.0,0.0,0.0,0.0,0.0,0.0,0.0,0.0,0.0,0.0,0.0,0.0,0.0,0.0,0.0,0.0,0.0,0.0,0.0,0.0,0.0,0.0,0.0,0.0,0.0,0.0,0.0,0.0,0.0,0.0,0.0,0.0,0.0,0.0,0.0,0.0,0.0,0.0,0.0,0.0,0.0,0.0,0.0,0.0,0.0,0.0,0.0,0.0,0.0,0.0,0.0,0.0,3.9742,4.2781,4.538,4.7138,4.7767,4.7169,4.4647,4.1738,3.8402,0.0,0.0,0.0,0.0,0.0,0.0,0.0,0.0,0.0,0.0,0.0,0.0,0.0,0.0,0.0,0.0,0.0,0.0,0.0,0.0,0.0,0.0,0.0,0.0,0.0,0.0,0.0,0.0,0.0,0.0,0.0,0.0,0.0,0.0,0.0,0.0,0.0,0.0,2.7899,2.9232,0.0,0.0,0.0,0.0,0.0,0.0,0.0,0.0,2.9535,0.0,0.0,0.0,0.0,0.0,0.0,0.0,0.0,0.0,0.0,0.0,0.0,0.0,0.0,0.0,0.0,0.0,0.0,0.0,0.0,0.0,0.0,0.0,0.0,0.0,0.0,0.0,0.0,0.0,0.0,0.0,0.0,0.0,0.0,0.0,0.0,0.0,0.0,0.0,0.0,0.0,0.0,0.0,0.0,0.0,0.0,0.0,0.0,0.0,0.0,0.0,0.0,0.0,0.0,0.0,0.0,3.7162,4.0545,4.3889,4.7117,4.8295,4.9198,4.9717,4.6694,4.3733,4.0998,0.0,0.0,0.0,0.0,0.0,0.0,0.0,0.0,0.0,0.0,0.0,0.0,0.0,0.0,0.0,0.0,0.0,0.0,0.0,0.0,0.0,0.0,0.0,0.0,0.0,0.0,0.0,0.0,0.0,0.0,0.0,0.0,0.0,0.0,0.0,0.0,0.0,0.0,0.0,3.0326,3.1128,0.0,0.0,0.0,0.0,0.0,0.0,0.0,0.0,3.0124,0.0,0.0,0.0,0.0,0.0,0.0,0.0,0.0,0.0,0.0,0.0,0.0,0.0,0.0,0.0,0.0,0.0,0.0,0.0,0.0,0.0,0.0,0.0,0.0,0.0,0.0,0.0,0.0,0.0,0.0,0.0,0.0,0.0,0.0,0.0,0.0,0.0,0.0,0.0,0.0,0.0,0.0,0.0,0.0,0.0,0.0,0.0,0.0,0.0,0.0,0.0,0.0,0.0,0.0,0.0,3.8064,4.1488,4.4913,4.8245,4.934,5.0079,5.0466,4.7247,4.4301,0.0,0.0,0.0,0.0,0.0,0.0,0.0,0.0,0.0,0.0,0.0,0.0,0.0,0.0,0.0,0.0,0.0,0.0,0.0,0.0,0.0,0.0,0.0,0.0,0.0,0.0,0.0,0.0,0.0,0.0,0.0,0.0,0.0,0.0,0.0,0.0,0.0,0.0,0.0,0.0,3.1612,3.2609,3.3275,0.0,0.0,0.0,0.0,0.0,0.0,3.1844,3.1578,0.0,0.0,0.0,0.0,0.0,0.0,0.0,0.0,0.0,0.0,0.0,0.0,0.0,0.0,0.0,0.0,0.0,0.0,0.0,0.0,0.0,0.0,0.0,0.0,0.0,0.0,0.0,0.0,0.0,0.0,0.0,0.0,0.0,0.0,0.0,0.0,0.0,0.0,0.0,0.0,0.0,0.0,0.0,0.0,0.0,0.0,0.0,0.0,0.0,0.0,0.0,0.0,0.0,0.0,0.0,3.9261,4.2503,4.5922,4.9449,5.0189,5.0724,5.1017,4.7492,4.4435,0.0,0.0,0.0,0.0,0.0,0.0,0.0,0.0,0.0,0.0,0.0,0.0,0.0,0.0,0.0,0.0,0.0,0.0,0.0,0.0,0.0,0.0,0.0,0.0,0.0,0.0,0.0,0.0,0.0,0.0,0.0,0.0,0.0,0.0,0.0,0.0,0.0,0.0,0.0,0.0,0.0,3.4144,3.5157,3.5878,0.0,0.0,0.0,0.0,3.4262,3.3855,0.0,0.0,0.0,0.0,0.0,0.0,0.0,0.0,0.0,0.0,0.0,0.0,0.0,0.0,0.0,0.0,0.0,0.0,0.0,0.0,0.0,0.0,0.0,0.0,0.0,0.0,0.0,0.0,0.0,0.0,0.0,0.0,0.0,0.0,0.0,0.0,0.0,0.0,0.0,0.0,0.0,0.0,0.0,0.0,0.0,0.0,0.0,0.0,0.0,0.0,0.0,0.0,0.0,0.0,0.0,0.0,4.102,4.3662,4.7045,5.1107,5.0818,5.1282,5.2764,4.8159,4.4778,0.0,0.0,0.0,0.0,0.0,0.0,0.0,0.0,0.0,0.0,0.0,0.0,0.0,0.0,0.0,0.0,0.0,0.0,0.0,0.0,0.0,0.0,0.0,0.0,0.0,0.0,0.0,0.0,0.0,0.0,0.0,0.0,0.0,0.0,0.0,0.0,0.0,0.0,0.0,0.0,0.0,3.5414,3.7482,3.7847,3.8191,0.0,0.0,3.8608,3.7648,3.6858,0.0,0.0,0.0,0.0,0.0,0.0,0.0,0.0,0.0,0.0,0.0,0.0,0.0,0.0,0.0,0.0,0.0,0.0,0.0,0.0,0.0,0.0,0.0,0.0,0.0,0.0,0.0,0.0,0.0,0.0,0.0,0.0,0.0,0.0,0.0,0.0,0.0,0.0,0.0,0.0,0.0,0.0,0.0,0.0,0.0,0.0,0.0,0.0,0.0,0.0,0.0,0.0,0.0,0.0,0.0,3.7671,4.1418,4.4821,4.8252,5.1623,5.1875,5.2356,5.3159,4.874,4.5316,0.0,0.0,0.0,0.0,0.0,0.0,0.0,0.0,0.0,0.0,0.0,0.0,0.0,0.0,0.0,0.0,0.0,0.0,0.0,0.0,0.0,0.0,0.0,0.0,0.0,0.0,0.0,0.0,0.0,0.0,0.0,0.0,0.0,0.0,0.0,0.0,0.0,0.0,0.0,0.0,0.0,0.0,3.8931,3.987,0.0,0.0,0.0,4.0602,3.9733,0.0,0.0,0.0,0.0,0.0,0.0,0.0,0.0,0.0,0.0,0.0,0.0,0.0,0.0,0.0,0.0,0.0,0.0,0.0,0.0,0.0,0.0,0.0,0.0,0.0,0.0,0.0,0.0,0.0,0.0,0.0,0.0,0.0,0.0,0.0,0.0,0.0,0.0,0.0,0.0,0.0,0.0,0.0,0.0,0.0,0.0,0.0,0.0,0.0,0.0,0.0,0.0,0.0,0.0,0.0,0.0,0.0,4.18,4.5698,4.9127,5.2001,5.2752,5.3151,5.3121,4.9303,0.0,0.0,0.0,0.0,0.0,0.0,0.0,0.0,0.0,0.0,0.0,0.0,0.0,0.0,0.0,0.0,0.0,0.0,0.0,0.0,0.0,0.0,0.0,0.0,0.0,0.0,0.0,1.9153,0.0,0.0,0.0,0.0,0.0,0.0,0.0,0.0,0.0,0.0,0.0,0.0,0.0,0.0,3.9682,4.0881,4.2221,4.3189,0.0,0.0,4.3029,4.2208,4.1303,4.0312,0.0,0.0,0.0,0.0,0.0,0.0,0.0,0.0,0.0,0.0,0.0,0.0,0.0,0.0,0.0,0.0,0.0,0.0,0.0,0.0,0.0,0.0,0.0,0.0,0.0,0.0,0.0,0.0,0.0,0.0,0.0,0.0,0.0,0.0,0.0,0.0,0.0,0.0,0.0,0.0,0.0,0.0,0.0,0.0,0.0,0.0,0.0,0.0,0.0,0.0,0.0,0.0,0.0,0.0,3.8404,4.2636,4.6004,4.9394,5.2757,5.3053,5.3151,5.3159,4.985,4.6848,0.0,0.0,0.0,0.0,0.0,0.0,0.0,0.0,0.0,0.0,0.0,0.0,0.0,0.0,0.0,0.0,0.0,0.0,0.0,0.0,0.0,0.0,0.0,0.0,0.0,0.0,0.0,0.0,0.0,0.0,0.0,0.0,0.0,0.0,0.0,0.0,0.0,0.0,0.0,0.0,0.0,4.1861,4.4146,4.5179,4.6015,0.0,0.0,4.6561,4.5782,4.4794,4.368,4.2247,0.0,0.0,0.0,0.0,0.0,0.0,0.0,0.0,0.0,0.0,0.0,0.0,0.0,0.0,0.0,0.0,0.0,0.0,0.0,0.0,0.0,0.0,0.0,0.0,0.0,0.0,0.0,0.0,0.0,0.0,0.0,0.0,0.0,0.0,0.0,0.0,0.0,0.0,0.0,0.0,0.0,0.0,0.0,0.0,0.0,0.0,0.0,0.0,0.0,0.0,0.0,0.0,0.0,3.9733,4.351,4.7341,5.0505,5.2916,5.409,5.4456,5.401,5.1147,4.8438,0.0,0.0,0.0,0.0,0.0,0.0,0.0,0.0,0.0,0.0,0.0,0.0,0.0,0.0,0.0,0.0,0.0,0.0,0.0,0.0,0.0,0.0,0.0,0.0,0.0,0.0,0.0,0.0,2.2855,2.3592,2.5046,0.0,0.0,0.0,0.0,0.0,0.0,0.0,0.0,0.0,0.0,4.3629,4.6064,4.7103,0.0,0.0,4.8407,4.7971,4.7631,4.6379,4.5049,4.3976,4.2335,0.0,0.0,0.0,0.0,0.0,0.0,0.0,0.0,0.0,0.0,0.0,0.0,0.0,0.0,0.0,0.0,0.0,0.0,0.0,0.0,0.0,0.0,0.0,0.0,0.0,0.0,0.0,0.0,0.0,0.0,0.0,0.0,0.0,0.0,0.0,0.0,0.0,0.0,0.0,0.0,0.0,0.0,0.0,0.0,0.0,0.0,0.0,0.0,0.0,0.0,0.0,0.0,4.0914,4.435,4.8548,5.1708,5.3715,5.5303,5.5708,5.4857,5.2789,5.041,0.0,0.0,0.0,0.0,0.0,0.0,0.0,0.0,0.0,0.0,0.0,0.0,0.0,0.0,0.0,0.0,0.0,0.0,0.0,0.0,0.0,0.0,0.0,0.0,0.0,0.0,0.0,0.0,2.4486,2.5246,2.6797,0.0,0.0,0.0,0.0,0.0,0.0,0.0,0.0,0.0,0.0,4.5954,4.7916,4.9103,5.002,5.0629,5.0185,4.981,4.981,4.8551,4.7293,4.6416,0.0,0.0,0.0,0.0,0.0,0.0,0.0,0.0,0.0,0.0,0.0,0.0,0.0,0.0,0.0,0.0,0.0,0.0,0.0,0.0,0.0,0.0,0.0,0.0,0.0,0.0,0.0,2.9702,0.0,0.0,2.8497,0.0,0.0,0.0,0.0,0.0,0.0,0.0,0.0,0.0,0.0,0.0,0.0,0.0,0.0,0.0,0.0,0.0,0.0,0.0,0.0,0.0,0.0,4.1833,4.5277,4.9427,5.2818,5.5326,5.6456,5.6593,5.5703,5.4715,5.2642,4.9263,0.0,0.0,0.0,0.0,0.0,0.0,0.0,0.0,0.0,0.0,0.0,0.0,0.0,0.0,0.0,0.0,0.0,0.0,0.0,0.0,0.0,0.0,0.0,0.0,0.0,0.0,2.6008,2.679,2.7645,0.0,0.0,0.0,0.0,0.0,0.0,0.0,0.0,0.0,0.0,4.6689,4.9074,4.9878,5.1451,5.2556,5.2601,5.2563,5.2525,5.2525,5.1749,5.0911,0.0,0.0,0.0,0.0,0.0,0.0,0.0,0.0,0.0,0.0,0.0,0.0,0.0,0.0,0.0,0.0,0.0,0.0,0.0,0.0,0.0,0.0,0.0,0.0,0.0,0.0,0.0,3.3251,3.3184,0.0,0.0,0.0,0.0,0.0,0.0,0.0,0.0,0.0,0.0,0.0,4.1694,4.1459,0.0,0.0,0.0,0.0,0.0,0.0,0.0,0.0,0.0,0.0,0.0,0.0,4.3477,4.6953,5.0541,5.3392,5.5446,5.7027,5.7703,5.7434,5.5978,5.3031,4.8519,0.0,0.0,0.0,0.0,0.0,0.0,0.0,0.0,0.0,0.0,0.0,0.0,0.0,0.0,0.0,0.0,0.0,0.0,0.0,0.0,0.0,0.0,0.0,0.0,0.0,2.7805,0.0,0.0,0.0,0.0,0.0,0.0,0.0,0.0,0.0,0.0,0.0,4.4418,4.6853,4.9631,5.1923,5.3227,5.4383,5.531,0.0,0.0,0.0,0.0,0.0,0.0,0.0,0.0,0.0,0.0,0.0,0.0,0.0,0.0,4.7893,4.4984,4.4409,4.4395,4.4395,0.0,0.0,0.0,0.0,0.0,0.0,0.0,0.0,0.0,0.0,0.0,0.0,0.0,0.0,3.77,0.0,3.688,0.0,0.0,0.0,0.0,0.0,0.0,0.0,0.0,4.3462,4.4906,4.6516,4.6545,4.6781,0.0,4.609,4.4097,0.0,0.0,0.0,0.0,0.0,0.0,0.0,0.0,4.5633,4.9087,5.2159,5.4871,5.7216,5.8525,5.9165,5.9127,5.7147,5.4177,5.0204,4.7275,4.3963,0.0,0.0,0.0,0.0,0.0,0.0,0.0,0.0,0.0,0.0,0.0,0.0,0.0,0.0,0.0,0.0,0.0,0.0,0.0,0.0,0.0,0.0,0.0,3.1176,0.0,0.0,0.0,0.0,0.0,0.0,0.0,0.0,0.0,4.213,4.4881,4.7773,4.9936,5.2438,5.4561,5.5895,0.0,0.0,0.0,0.0,0.0,0.0,0.0,5.6695,5.5829,5.5677,5.5383,5.4476,5.4712,5.5033,5.5048,0.0,0.0,5.0271,4.9601,4.9789,4.9789,5.0447,5.1021,5.1021,5.2272,5.3642,0.0,0.0,0.0,0.0,0.0,0.0,0.0,0.0,4.2924,4.295,0.0,4.2221,0.0,0.0,0.0,0.0,0.0,4.452,0.0,0.0,4.9269,5.0861,5.1092,5.2544,5.3294,5.3119,5.1464,5.0561,4.9989,4.3889,0.0,0.0,0.0,0.0,0.0,0.0,4.8233,5.162,5.4216,5.7161,6.0374,6.076,6.0864,6.0781,5.8383,5.616,5.423,5.1052,4.7734,4.4238,4.0965,0.0,0.0,0.0,0.0,0.0,0.0,0.0,0.0,0.0,0.0,0.0,0.0,0.0,0.0,0.0,0.0,0.0,0.0,0.0,0.0,3.4207,0.0,0.0,0.0,0.0,0.0,0.0,0.0,0.0,0.0,0.0,4.6025,4.8485,5.1001,5.2673,0.0,0.0,0.0,0.0,5.9644,6.048,6.054,6.0537,6.0575,6.0575,6.0248,5.9383,0.0,0.0,5.8094,5.9298,6.0357,6.0403,6.1705,6.1066,5.5387,5.4902,5.5206,5.5244,5.5845,5.6306,5.6442,5.7567,5.89,5.1413,0.0,0.0,0.0,0.0,4.7292,4.7652,4.8187,4.8262,4.8289,4.825,4.8041,0.0,0.0,0.0,0.0,0.0,0.0,5.1047,5.2769,5.3818,5.5247,5.6973,5.6818,5.7054,5.7486,5.5794,5.4662,5.3934,5.14,4.8313,4.4796,0.0,0.0,0.0,0.0,5.1164,5.3483,5.6505,5.8949,6.0628,6.1931,6.232,6.171,6.0382,5.8791,5.7055,5.4267,5.1452,4.8652,4.5314,0.0,0.0,0.0,0.0,0.0,0.0,0.0,0.0,0.0,0.0,0.0,0.0,0.0,0.0,0.0,0.0,0.0,0.0,0.0,3.686,3.8037,3.8923,0.0,0.0,0.0,0.0,0.0,0.0,0.0,0.0,0.0,5.343,5.421,5.5186,0.0,0.0,6.0463,6.0731,6.1472,6.2297,6.314,0.0,0.0,0.0,6.4179,6.4096,6.3814,6.3688,6.3537,6.3325,6.4129,6.484,6.4885,6.6277,6.6781,6.5228,6.2383,6.0677,6.054,6.1126,6.1635,6.1749,6.2979,6.4331,5.8284,5.4482,5.2671,5.2167,5.2677,5.2717,5.2997,5.3457,5.353,5.3558,5.3563,5.358,5.3129,5.2356,5.2361,0.0,0.0,0.0,5.5758,5.7247,5.7901,5.9056,6.0473,6.0329,6.0453,6.0851,5.9515,5.8583,5.8023,5.6753,5.4623,5.1593,0.0,0.0,5.0321,5.2149,5.4097,5.616,5.8559,6.0585,6.2189,6.3245,6.3589,6.3089,6.2207,6.0946,5.9238,5.7335,5.4942,5.2033,4.9023,4.5859,0.0,0.0,0.0,0.0,0.0,0.0,0.0,0.0,0.0,0.0,0.0,2.7929,2.9621,0.0,0.0,0.0,3.7609,3.9772,4.1245,4.2461,0.0,0.0,0.0,0.0,0.0,0.0,0.0,5.2936,5.5638,5.7926,5.922,6.0169,6.0578,6.0092,6.2023,6.3552,6.3891,0.0,6.4934,6.5823,6.5911,6.6204,6.7041,6.7156,6.7271,6.7616,6.7618,6.7551,6.7589,6.8249,6.8778,6.9007,6.9934,7.0862,7.0907,6.8656,6.659,6.6009,6.6215,6.6536,6.6574,6.761,6.8654,6.4488,6.3488,6.0411,5.8941,5.8609,5.8615,5.8654,5.8737,5.8765,5.8827,5.8827,5.8873,5.8429,5.7621,5.7588,0.0,5.8858,5.9627,6.0056,6.0171,6.176,6.2536,6.2651,6.3377,6.3686,6.3598,6.2791,6.2375,6.2234,6.054,5.9696,5.9574,5.5562,5.3881,5.4543,5.5497,5.7136,5.9396,6.0482,6.2157,6.4545,6.4673,6.4705,6.4666,6.3858,6.2648,6.11,6.003,5.8047,5.4829,5.222,4.9324,4.6056,0.0,0.0,0.0,0.0,0.0,0.0,0.0,0.0,0.0,0.0,0.0,0.0,0.0,0.0,3.9279,4.3212,0.0,4.5791,4.7324,0.0,0.0,0.0,5.1175,5.1373,5.4177,5.6478,5.7478,0.0,0.0,6.3577,0.0,6.6516,6.4153,6.5166,6.639,6.7113,6.7266,6.7612,6.8503,6.8555,6.8827,6.9608,6.9755,6.9985,7.0676,7.0922,7.0814,7.0891,7.1551,7.2126,7.2088,7.2886,7.3384,7.3423,7.3185,7.2955,7.1305,7.0862,7.0739,7.0647,7.1242,7.1767,6.938,6.9142,6.8339,6.6025,6.295,6.2958,6.3367,6.395,6.4046,6.4077,6.4077,6.4083,6.3628,6.2814,6.2781,6.2897,6.3128,6.4028,6.4784,6.5368,6.5839,6.6408,6.7064,6.7251,6.7322,6.7266,6.6408,6.5954,6.5858,6.4142,6.3246,6.3162,6.1505,5.9773,5.8182,5.9607,6.0713,6.1307,6.283,6.4212,6.5494,6.5583,6.559,6.559,6.4792,6.4162,6.3726,6.1731,5.9904,5.8302,5.5259,5.2282,4.9508,4.6781,0.0,0.0,0.0,0.0,0.0,0.0,0.0,0.0,0.0,3.5331,3.8265,0.0,4.1728,0.0,4.7061,4.9702,5.0999,5.2132,0.0,0.0,5.4781,5.6192,5.8148,5.9088,6.0396,6.2551,6.4615,6.6231,6.7083,6.9385,7.0755,7.0088,6.9287,6.8839,6.9064,6.9602,7.0301,7.1032,7.1203,7.158,7.2265,7.2496,7.2573,7.2803,7.2842,7.2842,7.2842,7.3503,7.4041,7.4118,7.4771,7.5271,7.534,7.5348,7.5233,7.4725,7.3591,7.2571,7.2609,7.3238,7.3835,7.2238,7.2237,7.2276,7.0806,6.8481,6.7744,6.7718,6.8148,6.8218,6.8231,6.8231,6.8192,6.7961,6.7493,6.7493,6.7306,6.6998,6.7497,6.7785,6.7823,6.7859,6.8141,6.861,6.861,6.861,6.8565,6.8073,6.7823,6.7779,6.6787,6.6332,6.6332,6.5801,6.4622,6.2892,6.2593,6.2689,6.3118,6.4411,6.5366,6.5865,6.5935,6.5947,6.5947,6.5546,6.5113,6.4733,6.3422,6.1907,6.0223,5.8005,5.5432,5.2467,5.0245,4.79,0.0,0.0,0.0,0.0,0.0,0.0,0.0,0.0,0.0,0.0,0.0,4.722,4.9669,5.2614,5.4921,5.6305,5.7199,5.8106,5.9004,5.9823,6.0911,6.2352,6.3474,6.4737,6.6122,6.809,6.9552,7.009,7.1668,7.2783,7.2783,7.2276,7.1783,7.1507,7.1776,7.2245,7.2706,7.2783,7.3091,7.3899,7.47,7.5207,7.5207,7.5476,7.5707,7.5745,7.6092,7.6399,7.6438,7.6784,7.7099,7.7099,7.713,7.7138,7.6969,7.6301,7.5357,7.462,7.5119,7.5734,7.4095,7.4062,7.4062,7.4101,7.3946,7.244,7.165,7.1427,7.1433,7.1439,7.1451,7.1451,7.1451,7.1451,7.1445,7.1065,7.0409,7.0382,6.9957,6.9147,6.9158,6.9081,6.8965,6.8965,6.8965,6.8965,6.8959,6.8953,6.8953,6.8826,6.8782,6.877,6.8607,6.8146,6.7318,6.5057,6.4257,6.5013,6.5718,6.6096,6.6224,6.6165,6.6156,6.6168,6.6067,6.5677,6.4988,6.4883,6.3803,6.1631,6.0508,5.8549,5.5494,5.3666,5.1982,0.0,4.8745,0.0,0.0,0.0,0.0,0.0,0.0,0.0,0.0,5.0268,5.3141,5.632,5.8634,6.0347,6.128,6.2131,6.3002,6.3885,6.4737,6.532,6.5628,6.7552,6.893,6.9045,7.1091,7.2559,7.2706,7.3437,7.4007,7.4315,7.4822,7.4853,7.4276,7.3969,7.3853,7.3815,7.393,7.4469,7.5284,7.6476,7.7369,7.7476,7.783,7.8484,7.8292,7.8369,7.8407,7.8407,7.833,7.8407,7.8484,7.8446,7.8446,7.8369,7.8246,7.7815,7.6738,7.6854,7.7445,7.6001,7.6045,7.6045,7.6051,7.6012,7.5702,7.4668,7.3202,7.329,7.3305,7.3319,7.328,7.328,7.328,7.328,7.3203,7.3087,7.3137,7.2689,7.1926,7.2006,7.1634,7.097,7.097,7.0932,7.0932,7.0891,7.087,7.0865,7.0087,6.9695,6.9645,6.8976,6.8562,6.8322,0.0,0.0,0.0,6.7122,6.7237,6.7949,6.7339,6.6984,6.7004,6.6438,0.0,6.5854,6.5283,6.4709,6.4159,6.2643,0.0,0.0,0.0,0.0,0.0,0.0,0.0,0.0,0.0,0.0,0.0,5.6852,5.6593,5.4271,5.6877,5.9604,6.1556,6.2874,6.3949,6.4846,6.5654,6.6462,6.7353,6.8205,6.9244,7.0597,7.1168,7.1706,7.2469,7.3546,7.4514,7.5168,7.6053,7.6784,7.7246,7.7676,7.7715,7.7484,7.6284,7.5553,7.5553,7.6015,7.6823,7.7669,7.8023,7.8292,7.8292,7.8369,7.8561,7.86,7.8561,7.8523,7.8561,7.8484,7.8523,7.8523,7.8484,7.86,7.8523,7.8523,7.8407,7.8099,7.8138,7.8253,7.6623,0.0,7.6648,7.6648,0.0,7.6648,7.6089,7.5177,7.5177,7.5209,7.5216,7.5216,7.5216,7.5221,7.5221,7.4989,7.4601,7.4625,7.4213,7.3442,7.3465,7.3009,7.2189,7.2189,7.1956,7.1568,7.1502,7.1493,7.1488,7.0981,7.0714,7.0684,7.024,6.9777,6.932,6.8878,6.8604,6.85,6.8083,6.8063,6.8523,6.8162,6.796,6.7961,0.0,0.0,0.0,0.0,0.0,0.0,0.0,0.0,0.0,0.0,0.0,5.9698,5.9144,5.8875,5.8913,5.9265,5.9819,6.071,6.3128,6.3269,6.0278,6.2393,6.4392,6.5654,6.657,6.7628,6.8866,6.9366,6.9975,7.0815,7.1315,7.1975,7.2706,7.3206,7.3591,7.4123,7.5207,7.6169,7.6553,7.7369,7.8023,7.8407,7.8484,7.8523,7.8446,7.7792,7.7246,7.7207,7.7561,7.8023,7.8446,7.8907,7.9131,7.9169,7.9477,7.9754,7.9792,7.9792,7.9792,7.9785,7.9792,7.9792,7.9785,7.9785,7.9785,7.9792,7.9792,7.9785,7.9754,7.9438,7.9131,7.6734,7.6734,7.673,7.673,7.673,7.6734,7.6734,7.6742,0.0,0.0,0.0,7.6734,7.673,7.6734,7.6734,7.6345,7.5688,7.5649,7.5222,7.4452,7.4413,7.3943,7.3165,7.3165,7.2777,7.2116,7.2073,7.2116,7.2112,7.2033,7.2008,7.1996,7.1949,7.1543,7.0787,7.0036,6.9612,6.9529,6.9096,6.8924,6.9046,6.8955,6.8917,6.8961,6.8906,6.8922,6.8922,6.8921,6.8572,6.7871,6.7793,6.709,6.5685,6.5401,6.4944,6.4238,6.41,6.4182,6.4292,6.4381,6.4871,6.5897,6.7859,6.7968,6.5474,6.6942,6.8282,6.9013,6.986,7.0937,7.229,7.2444,7.2783,7.3623,7.3699,7.3738,7.3969,7.4507,7.4892,7.5084,7.6284,7.7369,7.7522,7.8215,7.8792,7.8946,7.91,7.8984,7.8907,7.8677,7.8407,7.8592,7.8707,7.8792,7.9061,7.9554,8.0015,8.0054,8.0592,8.1054,8.1093,8.1093,8.1093,8.0939,8.1093,8.1016,8.1054,8.0977,8.1093,8.1093,8.1093,8.1093,8.1016,8.0554,8.0046,7.6894,7.6855,7.6855,7.6852,7.6891,7.6852,7.6909,7.6927,7.6841,7.6834,7.6852,7.6855,7.6852,7.6855,7.6894,7.6816,7.6699,7.6699,7.6274,0.0,7.5498,7.5033,7.4212,7.4173,7.4137,7.402,7.402,7.3981,7.4014,7.3944,7.3911,7.3879,7.3834,7.3691,7.3534,7.336,7.3253,7.3204,7.0926,7.0061,7.0809,7.017,6.9837,6.9884,6.929,6.8892,6.8892,6.8944,6.8862,6.8741,6.8732,6.8588,6.8345,6.7598,6.7044,6.688,6.678,6.7093,6.782,6.8499,6.9547,7.095,7.1482,7.0591,6.8199,7.009,7.1559,7.1706,7.2399,7.3046,7.3315,7.3353,7.3699,7.4392,7.4553,7.4815,7.5476,7.5668,7.5784,7.5861,7.6669,7.7638,7.8292,7.9092,7.9862,8.0477,8.0439,8.0669,8.0362,7.9438,7.8938,7.94,7.9623,7.9939,8.0362,8.0785,8.0862,8.09,8.0977,8.1093,8.1093,8.1093,8.1093,8.1093,8.1093,8.1093,8.1093,8.1093,8.1093,8.1093,8.1093,8.1093,8.1093,8.0939,8.0862,7.8339,7.83,7.7907,7.7712,7.7673,7.7205,7.7022,7.7039,7.7012,7.6995,7.7027,7.7027,7.6997,7.7008,7.7008,7.7008,7.7008,7.701,7.6815,7.6466,7.6466,7.5998,7.522,7.5181,7.4907,7.4478,7.4439,7.4433,7.4457,7.4395,7.4327,7.4335,7.4285,7.4229,7.4211,7.4127,7.4093,7.4066,7.2801,7.2297,7.2672,7.235,7.2196,7.2279,7.1943,7.1788,7.1775,7.18,7.18,7.1779,7.1775,7.1745,7.1712,7.1296,7.1029,7.0973,7.0927,7.1031,7.1456,7.1748,7.2212,7.2951,7.3413,7.3221,7.2058,7.2524,7.3091,7.3514,7.3937,7.4353,7.4784,7.4853,7.5007,7.5361,7.5392,7.5592,7.5899,7.5976,7.6169,7.6669,7.7445,7.8292,7.9092,7.9977,8.0592,8.1054,8.1093,8.1093,8.1093,8.0439,8.0015,8.0439,8.0516,8.0669,8.1016,8.1093,8.1093,8.1093,8.1093,8.1093,8.1093,8.1093,8.1093,8.1093,8.1093,8.1093,8.1093,8.1093,8.1093,8.1093,8.1093,8.1093,8.1093,8.1093,8.1093,7.9612,7.9534,7.8949,7.8674,7.8596,7.7776,7.7392,7.736,7.7204,7.7117,7.7139,7.7094,7.71,7.7072,7.7072,7.7072,7.7073,7.7072,7.7073,7.7072,7.7072,7.6722,7.6136,7.6098,7.5747,7.5123,7.5084,7.5078,7.5065,7.5049,7.4988,7.4996,7.4948,7.4907,7.4915,7.4835,7.4802,7.481,7.4706,7.4454,7.4024,7.4033,7.4052,7.4127,7.4178,7.4223,7.4218,7.4297,7.43,7.4237,7.4226,7.4188,7.4153,7.4131,7.4109,7.4058,7.4163,7.4403,7.4724,7.4875,7.4885,7.4912,7.5446,7.5793,7.5748,7.5149,7.4753,7.4994,7.5026,7.5334,7.582,7.5967,7.6075,7.6253,7.6284,7.6399,7.6553,7.6553,7.6784,7.7561,7.8307,7.9084,7.9769,8.0592,8.1116,8.1123,8.1147,8.1147,8.1147,8.1147,8.1147,8.1116,8.1108,8.1054,8.1093,8.1093,8.1093,8.1093,8.1093,8.1093,8.1093,8.1093,8.1093,8.1093,8.1093,8.1093,8.1093,8.1093,8.1093,8.1093,8.1093,8.1093,8.1093,8.1093,8.1093,7.9713,7.9674,7.9635,7.9596,7.944,7.8659,7.8268,7.8191,7.7449,7.7139,7.7258,7.7137,7.7134,7.7096,7.7096,7.7096,7.7096,7.7096,7.7096,7.7096,7.7096,7.7057,7.694,7.694,7.694,7.6784,7.6783,7.6705,7.6703,7.6771,7.679,7.6837,7.6774,7.6673,7.6721,7.6654,7.6634,7.6631,7.6624,7.5783,7.4209,7.4156,7.418,7.418,7.4293,7.4292,7.4493,7.4329,7.4425,7.438,7.4431,7.4356,7.4361,7.4281,7.4242,7.4282,7.492,7.5895,7.7274,7.8109,7.8352,7.8415,7.8338,7.8415,7.8409,7.8358,7.7672,7.6533,7.6101,7.619,7.6097,7.616,7.6524,7.7129,7.7184,7.7445,7.8023,7.8253,7.8292,7.8369,7.916,7.9813,8.0051,8.0711,8.1224,8.127,8.127,8.127,8.127,8.1256,8.1234,8.1214,8.1147,8.11,8.1093,8.1093,8.1093,8.1093,8.1093,8.1093,8.1093,8.1093,8.1093,8.1093,8.1093,8.1093,8.1093,8.1093,8.1093,8.1093,8.1093,8.1093,8.1093,8.1093,8.1093,8.1248,8.117,8.0662,8.0154,7.9686,7.9295,7.9139,7.9139,7.8787,7.8631,7.8671,7.8631,7.8084,7.7185,7.7146,7.7186,7.7147,7.7147,7.7147,7.7186,7.7147,7.7146,7.7147,7.7146,7.7147,7.7147,7.7146,7.7145,7.7142,7.7136,7.7088,7.7078,7.7065,7.7055,7.7046,7.7026,7.725,7.7758,7.7797,7.7625,7.7275,7.6316,7.6054,7.6582,7.6649,7.6941,7.7389,7.7441,7.7485,7.7485,7.7436,7.7417,7.7428,7.7413,7.7388,7.7354,7.7599,7.8025,7.8671,7.9015,7.916,7.914,7.9135,7.9135,7.9135,7.9104,7.8746,7.8148,7.7825,7.7743,7.7683,7.7708,7.7848,7.8122,7.8125,7.8212,7.8481,7.8553,7.8692,7.9237,7.9651,8.0157,8.0625,8.1074,8.1367,8.1407,8.1427,8.1427,8.142,8.138,8.134,8.1305,8.128,8.1192,8.1124,8.1093,8.1093,8.1093,8.1093,8.1093,8.1093,8.1093,8.1093,8.1093,8.1093,8.1093,8.1093,8.1093,8.1093,8.1093,8.1093,8.1093,8.1093,8.1093,8.1093,8.2304,8.2226,8.1601,8.0976,8.039,8.0156,8.0039,8.0,7.9805,7.9726,7.9726,7.9726,7.9062,7.8008,7.789,7.789,7.789,7.789,7.789,7.789,7.789,7.789,7.789,7.789,7.789,7.789,7.793,7.7929,7.785,7.7848,7.7806,7.7804,7.7837,7.7833,7.783,7.7782,7.809,7.8716,7.8755,7.9028,7.9335,7.8355,7.797,7.8598,7.8683,7.8967,7.9569,7.9615,7.9617,7.9617,7.9613,7.9643,7.9626,7.9613,7.9588,7.9553,7.9699,7.976,7.973,7.992,8.0076,8.0076,8.0068,8.0016,8.0051,8.0012,7.9975,7.9908,7.9775,7.9534,7.8902,7.8825,7.8928,7.9094,7.9065,7.9054,7.9362,7.9273,7.9574,8.0157,8.0369,8.0586,8.1227,8.1452,8.1514,8.1567,8.1579,8.1573,8.1567,8.1526,8.1471,8.1485,8.1407,8.1284,8.1169,8.1131,8.1124,8.1093,8.1093,8.1093,8.1093,8.1093,8.1093,8.1093,8.1093,8.1093,8.1093,8.1093,8.1093,8.1093,8.1093,8.1093,8.1093,8.1093,8.1093,8.2304,8.2304,8.2265,8.2148,8.2109,8.1289,8.0937,8.0898,8.0156,7.9765,7.9844,7.9805,7.9687,7.9609,7.9609,7.957,7.9531,7.9453,7.9453,7.9453,7.9492,7.957,7.9609,7.9609,7.9531,7.9375,7.9336,7.9414,7.9492,7.9492,7.9609,7.9528,7.9449,7.9525,7.9443,7.9403,7.9559,7.9637,7.9637,7.9715,7.9754,7.9674,7.9584,7.9643,7.9612,7.9696,7.9777,7.9708,7.9752,7.9713,7.9821,7.9776,7.9735,7.9709,7.9713,7.9747,8.036,8.0731,8.0818,8.1393,8.1822,8.1858,8.1711,8.1806,8.1651,8.1618,8.1578,8.1731,8.1519,8.0893,7.9482,7.9275,7.9402,7.9958,7.9989,8.0295,8.1021,8.0891,8.1161,8.1189,8.1253,8.1353,8.164,8.1682,8.1703,8.1781,8.1801,8.1801,8.1747,8.1713,8.1662,8.1591,8.1532,8.1427,8.1234,8.1192,8.1162,8.1131,8.1108,8.1093,8.1093,8.1093,8.1093,8.1093,8.1093,8.1093,8.1093,8.1093,8.1093,8.1093,8.1093,8.1093,8.1093,8.1093,8.1093,8.2304,8.2304,8.2304,8.2304,8.2265,8.1953,8.1836,8.1797,8.1484,8.1367,8.1367,8.1367,8.1367,8.1367,8.1367,8.0742,7.9765,7.9726,7.9726,7.9726,7.9726,7.9726,7.9726,7.9726,7.9726,7.9726,7.9726,7.9726,7.9726,7.9726,7.9726,7.9726,7.9726,7.9726,7.9725,7.9725,7.9959,8.0469,8.0545,8.078,8.125,8.1366,8.1364,8.1322,8.0808,8.0805,8.135,8.1354,8.1355,8.1355,8.1353,8.1351,8.135,8.1344,8.1293,8.1309,8.1529,8.1668,8.1724,8.198,8.2164,8.2164,8.2154,8.2106,8.2143,8.208,8.2056,8.2043,8.2019,8.1579,8.1144,8.0781,8.0811,8.1019,8.1033,8.104,8.1291,8.1347,8.1319,8.1427,8.1538,8.1685,8.1738,8.1804,8.1856,8.1937,8.1968,8.1972,8.1906,8.1869,8.1817,8.1738,8.1656,8.1579,8.142,8.1256,8.1199,8.1169,8.1139,8.1108,8.1093,8.1093,8.1093,8.1093,8.1093,8.1093,8.1093,8.1093,8.1093,8.1093,8.1093,8.1093,8.1093,8.1093,8.1093,8.2304,8.2304,8.2304,8.2304,8.2304,8.2304,8.2304,8.2304,8.2304,8.2304,8.2304,8.2304,8.2304,8.2304,8.2304,8.1719,8.0586,8.0547,8.0547,8.0547,8.0547,8.0547,8.0547,8.0547,8.0547,8.0547,8.0547,8.0547,8.0547,8.0547,8.0547,8.0547,8.0547,8.0547,8.0547,8.0508,8.0859,8.1328,8.1406,8.1719,8.2226,8.2304,8.2304,8.2226,8.1716,8.1674,8.2299,8.2299,8.2299,8.2299,8.2299,8.2298,8.2296,8.2296,8.2254,8.2244,8.2235,8.2226,8.2254,8.2243,8.2236,8.2236,8.2228,8.2185,8.2185,8.2166,8.215,8.2138,8.2125,8.2098,8.2004,8.1875,8.1804,8.1732,8.1619,8.1589,8.1565,8.1485,8.151,8.1579,8.1706,8.1815,8.1861,8.1933,8.198,8.2059,8.2125,8.2125,8.2065,8.1994,8.1951,8.1916,8.1817,8.1718,8.1613,8.1465,8.1277,8.1205,8.1184,8.1139,8.11,8.11,8.1093,8.1093,8.1093,8.1093,8.1093,8.1093,8.1093,8.1093,8.1093,8.1093,8.1093,8.1093,8.1093,8.2304,8.2304,8.2304,8.2304,8.2304,8.2304,8.2304,8.2304,8.2304,8.2304,8.2304,8.2304,8.2304,8.2304,8.2304,8.2226,8.207,8.2031,8.2031,8.207,8.2109,8.2109,8.207,8.2031,8.2031,8.2031,8.2187,8.2187,8.207,8.2031,8.207,8.2187,8.207,8.1992,8.2226,8.2031,8.2148,8.2187,8.2148,8.2226,8.2304,8.2304,8.2304,8.2304,8.2226,8.2226,8.2304,8.2304,8.2304,8.2304,8.2304,8.2304,8.2302,8.2302,8.23,8.2295,8.2293,8.2292,8.2292,8.2289,8.2287,8.2285,8.2241,8.2193,8.223,8.222,8.2207,8.2195,8.2187,8.2171,8.2128,8.2067,8.2,8.1822,8.1733,8.1721,8.1707,8.1696,8.1734,8.1776,8.1852,8.1941,8.2036,8.2092,8.2123,8.2182,8.2196,8.2201,8.2153,8.2131,8.2104,8.2059,8.1994,8.1856,8.1757,8.164,8.1459,8.1284,8.1244,8.1184,8.1131,8.1116,8.1093,8.1093,8.1093,8.1093,8.1093,8.1093,8.1093,8.1093,8.1093,8.1093,8.1093,8.1093,8.1093,8.2304,8.2304,8.2304,8.2304,8.2304,8.2304,8.2304,8.2304,8.2304,8.2304,8.2304,8.2304,8.2304,8.2304,8.2304,8.2304,8.2304,8.2304,8.2304,8.2304,8.2304,8.2304,8.2304,8.2304,8.2304,8.2304,8.2304,8.2304,8.2304,8.2304,8.2304,8.2304,8.2304,8.2304,8.2304,8.2304,8.2304,8.2304,8.2304,8.2304,8.2304,8.2304,8.2304,8.2304,8.2304,8.2304,8.2304,8.2304,8.2304,8.2304,8.2304,8.2304,8.2304,8.2304,8.2304,8.2303,8.2301,8.23,8.2299,8.2296,8.2293,8.2292,8.2289,8.2288,8.2288,8.2286,8.2282,8.2277,8.2277,8.2228,8.2198,8.215,8.2097,8.1936,8.1877,8.1817,8.1786,8.1767,8.1781,8.1824,8.1941,8.2029,8.2077,8.2136,8.2187,8.2198,8.2217,8.2266,8.2215,8.2198,8.2134,8.2097,8.2038,8.1969,8.1877,8.1771,8.1619,8.144,8.1347,8.1244,8.1184,8.1131,8.1116,8.1093,8.1093,8.1093,8.1093,8.1093,8.1093,8.1093,8.1093,8.1093,8.1093,8.1093,8.1093,8.2304,8.2304,8.2304,8.2304,8.2304,8.2304,8.2304,8.2304,8.2304,8.2304,8.2304,8.2304,8.2304,8.2304,8.2304,8.2304,8.2304,8.2304,8.2304,8.2304,8.2304,8.2304,8.2304,8.2304,8.2304,8.2304,8.2304,8.2304,8.2304,8.2304,8.2304,8.2304,8.2304,8.2304,8.2304,8.2304,8.2304,8.2304,8.2304,8.2304,8.2304,8.2304,8.2304,8.2304,8.2304,8.2304,8.2304,8.2304,8.2304,8.2304,8.2304,8.2304,8.2304,8.2304,8.2304,8.2304,8.2304,8.2303,8.2303,8.2302,8.23,8.23,8.23,8.23,8.23,8.23,8.2299,8.2297,8.2296,8.2291,8.2237,8.2232,8.2163,8.2078,8.2,8.1929,8.1891,8.1869,8.1891,8.1937,8.2026,8.2089,8.2143,8.2183,8.2226,8.2234,8.2284,8.2292,8.2244,8.2237,8.2217,8.2152,8.2123,8.2062,8.1973,8.1881,8.1785,8.1613,8.1459,8.1333,8.1198,8.1184,8.1154,8.1108,8.1093,8.1093,8.1093,8.1093,8.1093,8.1093,8.1093,8.1093,8.1093,8.1093,8.1093,8.2304,8.2304,8.2304,8.2304,8.2304,8.2304,8.2304,8.2304,8.2304,8.2304,8.2304,8.2304,8.2304,8.2304,8.2304,8.2304,8.2304,8.2304,8.2304,8.2304,8.2304,8.2304,8.2304,8.2304,8.2304,8.2304,8.2304,8.2304,8.2304,8.2304,8.2304,8.2304,8.2304,8.2304,8.2304,8.2304,8.2304,8.2304,8.2304,8.2304,8.2304,8.2304,8.2304,8.2304,8.2304,8.2304,8.2304,8.2304,8.2304,8.2304,8.2304,8.2304,8.2304,8.2304,8.2304,8.2304,8.2304,8.2304,8.2304,8.2304,8.2304,8.2304,8.2304,8.2304,8.2304,8.2304,8.2304,8.2302,8.2302,8.23,8.2294,8.2292,8.2281,8.2214,8.2092,8.2043,8.2014,8.2003,8.2033,8.2052,8.2101,8.2107,8.22,8.2265,8.2282,8.229,8.2294,8.2296,8.2295,8.2292,8.2245,8.2231,8.2212,8.2175,8.2065,8.2012,8.189,8.1771,8.1597,8.1465,8.1291,8.1251,8.1169,8.1124,8.11,8.11,8.1093,8.1093,8.1093,8.1093,8.1093,8.1093,8.1093,8.1093,8.11,8.2304,8.2304,8.2304,8.2304,8.2304,8.2304,8.2304,8.2304,8.2304,8.2304,8.2304,8.2304,8.2304,8.2304,8.2304,8.2304,8.2304,8.2304,8.2304,8.2304,8.2304,8.2304,8.2304,8.2304,8.2304,8.2304,8.2304,8.2304,8.2304,8.2304,8.2304,8.2304,8.2304,8.2304,8.2304,8.2304,8.2304,8.2304,8.2304,8.2304,8.2304,8.2304,8.2304,8.2304,8.2304,8.2304,8.2304,8.2304,8.2304,8.2304,8.2304,8.2304,8.2304,8.2304,8.2304,8.2304,8.2304,8.2304,8.2304,8.2304,8.2304,8.2304,8.2304,8.2304,8.2304,8.2304,8.2304,8.2304,8.2304,8.2304,8.2301,8.23,8.2254,8.2192,8.2134,8.2104,8.208,8.2077,8.2086,8.2106,8.216,8.2195,8.222,8.2244,8.2297,8.23,8.2302,8.2304,8.2304,8.2301,8.2296,8.2251,8.224,8.2217,8.2136,8.2101,8.2015,8.189,8.1762,8.1647,8.144,8.1284,8.1214,8.1116,8.1139,8.1147,8.1116,8.11,8.1093,8.1124,8.1116,8.1131,8.1108,8.11,8.1116,8.2304,8.2304,8.2304,8.2304,8.2304,8.2304,8.2304,8.2304,8.2304,8.2304,8.2304,8.2304,8.2304,8.2304,8.2304,8.2304,8.2304,8.2304,8.2304,8.2304,8.2304,8.2304,8.2304,8.2304,8.2304,8.2304,8.2304,8.2304,8.2304,8.2304,8.2304,8.2304,8.2304,8.2304,8.2304,8.2304,8.2304,8.2304,8.2304,8.2304,8.2304,8.2304,8.2304,8.2304,8.2304,8.2304,8.2304,8.2304,8.2304,8.2304,8.2304,8.2304,8.2304,8.2304,8.2304,8.2304,8.2304,8.2304,8.2304,8.2304,8.2304,8.2304,8.2304,8.2304,8.2304,8.2304,8.2304,8.2304,8.2304,8.2304,8.2304,8.2302,8.2299,8.225,8.222,8.2181,8.2153,8.2136,8.2143,8.2164,8.2193,8.2224,8.2237,8.2257,8.2301,8.2303,8.2304,8.2304,8.2304,8.2304,8.2303,8.2299,8.2293,8.2241,8.2214,8.216,8.2083,8.2008,8.1844,8.1757,8.1585,8.1394,8.127,8.1222,8.1207,8.1192,8.1192,8.1192,8.1207,8.1183,8.1192,8.1184,8.1184,8.1162,8.1162,8.2304,8.2304,8.2304,8.2304,8.2304,8.2304,8.2304,8.2304,8.2304,8.2304,8.2304,8.2304,8.2304,8.2304,8.2304,8.2304,8.2304,8.2304,8.2304,8.2304,8.2304,8.2304,8.2304,8.2304,8.2304,8.2304,8.2304,8.2304,8.2304,8.2304,8.2304,8.2304,8.2304,8.2304,8.2304,8.2304,8.2304,8.2304,8.2304,8.2304,8.2304,8.2304,8.2304,8.2304,8.2304,8.2304,8.2304,8.2304,8.2304,8.2304,8.2304,8.2304,8.2304,8.2304,8.2304,8.2304,8.2304,8.2304,8.2304,8.2304,8.2304,8.2304,8.2304,8.2304,8.2304,8.2304,8.2304,8.2304,8.2304,8.2304,8.2304,8.2304,8.2302,8.2301,8.2296,8.2281,8.2211,8.222,8.2222,8.2215,8.222,8.2242,8.2296,8.2302,8.2304,8.2304,8.2304,8.2304,8.2304,8.2304,8.2304,8.2303,8.23,8.2295,8.2236,8.2204,8.2146,8.2068,8.1906,8.1771,8.1669,8.1534,8.14,8.1319,8.1319,8.1312,8.1312,8.1312,8.1319,8.1284,8.127,8.127,8.1277,8.1273,8.122,8.2304,8.2304,8.2304,8.2304,8.2304,8.2304,8.2304,8.2304,8.2304,8.2304,8.2304,8.2304,8.2304,8.2304,8.2304,8.2304,8.2304,8.2304,8.2304,8.2304,8.2304,8.2304,8.2304,8.2304,8.2304,8.2304,8.2304,8.2304,8.2304,8.2304,8.2304,8.2304,8.2304,8.2304,8.2304,8.2304,8.2304,8.2304,8.2304,8.2304,8.2304,8.2304,8.2304,8.2304,8.2304,8.2304,8.2304,8.2304,8.2304,8.2304,8.2304,8.2304,8.2304,8.2304,8.2304,8.2304,8.2304,8.2304,8.2304,8.2304,8.2304,8.2304,8.2304,8.2304,8.2304,8.2304,8.2304,8.2304,8.2304,8.2304,8.2304,8.2304,8.2304,8.2304,8.2302,8.2299,8.2293,8.2285,8.228,8.2285,8.2291,8.2297,8.2301,8.2304,8.2304,8.2304,8.2304,8.2304,8.2304,8.2304,8.2304,8.2304,8.2303,8.23,8.2251,8.2226,8.2177,8.212,8.198,8.1881,8.1796,8.1685,8.1596,8.1502,8.1466,8.1472,8.1504,8.1485,8.1491,8.1433,8.1387,8.1394,8.1394,8.1353,8.1347,8.2304,8.2304,8.2304,8.2304,8.2304,8.2304,8.2304,8.2304,8.2304,8.2304,8.2304,8.2304,8.2304,8.2304,8.2304,8.2304,8.2304,8.2304,8.2304,8.2304,8.2304,8.2304,8.2304,8.2304,8.2304,8.2304,8.2304,8.2304,8.2304,8.2304,8.2304,8.2304,8.2304,8.2304,8.2304,8.2304,8.2304,8.2304,8.2304,8.2304,8.2304,8.2304,8.2304,8.2304,8.2304,8.2304,8.2304,8.2304,8.2304,8.2304,8.2304,8.2304,8.2304,8.2304,8.2304,8.2304,8.2304,8.2304,8.2304,8.2304,8.2304,8.2304,8.2304,8.2304,8.2304,8.2304,8.2304,8.2304,8.2304,8.2304,8.2304,8.2304,8.2304,8.2304,8.2304,8.2304,8.2304,8.2299,8.2294,8.2297,8.2299,8.2302,8.2304,8.2304,8.2304,8.2304,8.2304,8.2304,8.2304,8.2304,8.2304,8.2304,8.2304,8.2303,8.2299,8.2242,8.22,8.2155,8.2098,8.2039,8.1968,8.1856,8.1776,8.1698,8.1652,8.1647,8.1663,8.1641,8.1625,8.1596,8.1523,8.1514,8.149,8.1541,8.1541,8.2304,8.2304,8.2304,8.2304,8.2304,8.2304,8.2304,8.2304,8.2304,8.2304,8.2304,8.2304,8.2304,8.2304,8.2304,8.2304,8.2304,8.2304,8.2304,8.2304,8.2304,8.2304,8.2304,8.2304,8.2304,8.2304,8.2304,8.2304,8.2304,8.2304,8.2304,8.2304,8.2304,8.2304,8.2304,8.2304,8.2304,8.2304,8.2304,8.2304,8.2304,8.2304,8.2304,8.2304,8.2304,8.2304,8.2304,8.2304,8.2304,8.2304,8.2304,8.2304,8.2304,8.2304,8.2304,8.2304,8.2304,8.2304,8.2304,8.2304,8.2304,8.2304,8.2304,8.2304,8.2304,8.2304,8.2304,8.2304,8.2304,8.2304,8.2304,8.2304,8.2304,8.2304,8.2304,8.2304,8.2304,8.2301,8.2301,8.2302,8.2303,8.2304,8.2304,8.2304,8.2304,8.2304,8.2304,8.2304,8.2304,8.2304,8.2304,8.2304,8.2304,8.2304,8.2301,8.2258,8.2228,8.2193,8.2153,8.2125,8.2089,8.2046,8.1944,8.1912,8.186,8.1856,8.1856,8.186,8.1799,8.1757,8.1718,8.1682,8.17,8.1723,8.1713,8.2304,8.2304,8.2304,8.2304,8.2304,8.2304,8.2304,8.2304,8.2304,8.2304,8.2304,8.2304,8.2304,8.2304,8.2304,8.2304,8.2304,8.2304,8.2304,8.2304,8.2304,8.2304,8.2304,8.2304,8.2304,8.2304,8.2304,8.2304,8.2304,8.2304,8.2304,8.2304,8.2304,8.2304,8.2304,8.2304,8.2304,8.2304,8.2304,8.2304,8.2304,8.2304,8.2304,8.2304,8.2304,8.2304,8.2304,8.2304,8.2304,8.2304,8.2304,8.2304,8.2304,8.2304,8.2304,8.2304,8.2304,8.2304,8.2304,8.2304,8.2304,8.2304,8.2304,8.2304,8.2304,8.2304,8.2304,8.2304,8.2304,8.2304,8.2304,8.2304,8.2304,8.2304,8.2304,8.2304,8.2304,8.2304,8.2304,8.2304,8.2304,8.2304,8.2304,8.2304,8.2304,8.2304,8.2304,8.2304,8.2304,8.2304,8.2304,8.2304,8.2304,8.2304,8.2302,8.2301,8.2252,8.223,8.2204,8.2187,8.2164,8.2185,8.2109,8.2035,8.2036,8.2015,8.2019,8.2019,8.1987,8.1898,8.1877,8.1856,8.1865,8.1833,8.1819,8.2304,8.2304,8.2304,8.2304,8.2304,8.2304,8.2304,8.2304,8.2304,8.2304,8.2304,8.2304,8.2304,8.2304,8.2304,8.2304,8.2304,8.2304,8.2304,8.2304,8.2304,8.2304,8.2304,8.2304,8.2304,8.2304,8.2304,8.2304,8.2304,8.2304,8.2304,8.2304,8.2304,8.2304,8.2304,8.2304,8.2304,8.2304,8.2304,8.2304,8.2304,8.2304,8.2304,8.2304,8.2304,8.2304,8.2304,8.2304,8.2304,8.2304,8.2304,8.2304,8.2344,8.2383,8.2344,8.2344,8.2304,8.2304,8.2304,8.2304,8.2304,8.2304,8.2304,8.2304,8.2304,8.2304,8.2304,8.2304,8.2304,8.2304,8.2304,8.2304,8.2304,8.2304,8.2304,8.2304,8.2304,8.2304,8.2304,8.2304,8.2304,8.2304,8.2304,8.2304,8.2304,8.2304,8.2304,8.2304,8.2304,8.2304,8.2304,8.2304,8.2304,8.2304,8.2304,8.2302,8.2301,8.225,8.2236,8.2226,8.222,8.2246,8.2248,8.2204,8.2181,8.217,8.2154,8.2143,8.208,8.202,8.2007,8.199,8.199,8.196,8.1917,8.2304,8.2304,8.2304,8.2304,8.2304,8.2304,8.2304,8.2304,8.2304,8.2304,8.2304,8.2304,8.2304,8.2304,8.2304,8.2304,8.2304,8.2304,8.2304,8.2304,8.2304,8.2304,8.2304,8.2304,8.2304,8.2304,8.2304,8.2304,8.2304,8.2304,8.2304,8.2304,8.2304,8.2304,8.2304,8.2304,8.2304,8.2304,8.2304,8.2304,8.2304,8.2304,8.2304,8.2304,8.2304,8.2304,8.2304,8.2578,8.2656,8.2734,8.2812,8.289,8.2851,8.2812,8.2734,8.2578,8.2422,8.2304,8.2304,8.2304,8.2304,8.2304,8.2304,8.2304,8.2304,8.2304,8.2304,8.2304,8.2304,8.2304,8.2304,8.2304,8.2304,8.2304,8.2304,8.2304,8.2304,8.2304,8.2304,8.2304,8.2304,8.2304,8.2304,8.2304,8.2304,8.2304,8.2304,8.2304,8.2304,8.2304,8.2304,8.2304,8.2304,8.2304,8.2304,8.2304,8.2303,8.2299,8.2293,8.2288,8.2288,8.2287,8.2286,8.2281,8.2266,8.2234,8.2222,8.2216,8.2173,8.2127,8.2114,8.2097,8.2076,8.2065,8.2065,8.2304,8.2304,8.2304,8.2304,8.2304,8.2304,8.2304,8.2304,8.2304,8.2304,8.2304,8.2304,8.2304,8.2304,8.2304,8.2304,8.2304,8.2304,8.2304,8.2304,8.2304,8.2304,8.2304,8.2304,8.2304,8.2304,8.2304,8.2304,8.2304,8.2304,8.2304,8.2304,8.2304,8.2304,8.2304,8.2304,8.2304,8.2304,8.2304,8.2304,8.2304,8.2304,8.2304,8.2304,8.2304,8.2304,8.2422,8.2851,8.3281,8.3437,8.4101,8.4492,8.4609,8.4609,8.414,8.3476,8.2812,8.2304,8.2344,8.2304,8.2304,8.2304,8.2304,8.2304,8.2304,8.2304,8.2304,8.2304,8.2304,8.2304,8.2304,8.2304,8.2304,8.2304,8.2304,8.2304,8.2304,8.2304,8.2304,8.2304,8.2304,8.2304,8.2304,8.2304,8.2304,8.2304,8.2304,8.2304,8.2304,8.2304,8.2304,8.2304,8.2304,8.2304,8.2304,8.2304,8.2304,8.2304,8.2304,8.2304,8.2299,8.2298,8.2295,8.229,8.2304,8.2304,8.2277,8.2276,8.2237,8.2228,8.2212,8.2168,8.2166,8.2163,8.2195,8.2304,8.2304,8.2304,8.2304,8.2304,8.2304,8.2304,8.2304,8.2304,8.2304,8.2304,8.2304,8.2304,8.2304,8.2304,8.2304,8.2304,8.2304,8.2304,8.2304,8.2304,8.2304,8.2304,8.2304,8.2304,8.2304,8.2304,8.2304,8.2304,8.2304,8.2304,8.2304,8.2304,8.2304,8.2304,8.2304,8.2304,8.2304,8.2304,8.2304,8.2304,8.2304,8.2304,8.2304,8.2304,8.2304,8.25,8.3125,8.3554,8.375,8.4414,8.4883,8.4883,8.4844,8.4648,8.4414,8.4023,8.3359,8.25,8.2383,8.2344,8.2304,8.2304,8.2304,8.2304,8.2304,8.2304,8.2304,8.2304,8.2304,8.2304,8.2304,8.2304,8.2304,8.2304,8.2304,8.2304,8.2304,8.2304,8.2304,8.2304,8.2304,8.2304,8.2304,8.2304,8.2304,8.2304,8.2304,8.2304,8.2304,8.2304,8.2304,8.2304,8.2304,8.2304,8.2304,8.2304,8.2304,8.2304,8.2304,8.2304,8.2302,8.2304,8.2304,8.2304,8.2304,8.2304,8.2297,8.2289,8.2248,8.2247,8.2244,8.2241,8.224,8.2236,8.2304,8.2304,8.2304,8.2304,8.2304,8.2304,8.2304,8.2304,8.2304,8.2304,8.2304,8.2304,8.2304,8.2304,8.2304,8.2304,8.2304,8.2304,8.2304,8.2304,8.2304,8.2304,8.2304,8.2304,8.2304,8.2304,8.2304,8.2304,8.2304,8.2304,8.2304,8.2304,8.2304,8.2304,8.2304,8.2304,8.2304,8.2304,8.2304,8.2304,8.2304,8.2304,8.2304,8.2304,8.2304,8.2304,8.2461,8.3437,8.3945,8.414,8.5156,8.5781,8.5781,8.5781,8.5586,8.5351,8.5117,8.4531,8.3515,8.2929,8.2578,8.2383,8.2304,8.2304,8.2304,8.2304,8.2304,8.2304,8.2304,8.2304,8.2304,8.2304,8.2304,8.2304,8.2304,8.2304,8.2304,8.2226,8.2265,8.2304,8.2304,8.2304,8.2304,8.2304,8.2304,8.2304,8.2304,8.2265,8.2187,8.2109,8.2187,8.2148,8.2187,8.2187,8.2226,8.2265,8.2265,8.2148,8.2148,8.2226,8.2187,8.2226,8.2304,8.2304,8.2187,8.2304,8.2304,8.2304,8.2298,8.2299,8.226,8.2299,8.2297,8.2304,8.2265,8.2304,8.2304,8.2304,8.2304,8.2304,8.2304,8.2304,8.2304,8.2304,8.2304,8.2304,8.2304,8.2304,8.2304,8.2304,8.2304,8.2304,8.2304,8.2304,8.2304,8.2304,8.2304,8.2304,8.2304,8.2304,8.2304,8.2304,8.2304,8.2304,8.2304,8.2304,8.2304,8.2304,8.2304,8.2304,8.2304,8.2304,8.2304,8.2304,8.2304,8.2304,8.2304,8.2304,8.2304,8.2304,8.2344,8.2383,8.3711,8.4609,8.4687,8.5937,8.6875,8.6797,8.6875,8.6601,8.625,8.6133,8.5547,8.4687,8.3828,8.3125,8.2617,8.2304,8.2304,8.2304,8.2304,8.2304,8.2304,8.2304,8.2304,8.2304,8.2304,8.2304,8.2304,8.2304,8.2304,8.2226,8.207,8.2109,8.2265,8.2109,8.1758,8.1679,8.1523,8.2109,8.2187,8.1914,8.1875,8.1719,8.1679,8.1836,8.1914,8.2031,8.207,8.2109,8.1992,8.1601,8.1523,8.1523,8.1758,8.1953,8.2031,8.1719,8.1797,8.1601,8.1953,8.2148,8.1758,8.164,8.2109,8.2304,8.2304,8.2304,8.2304,8.2226,8.2304,8.2304,8.2304,8.2304,8.2304,8.2304,8.2304,8.2304,8.2304,8.2304,8.2304,8.2304,8.2304,8.2304,8.2304,8.2304,8.2304,8.2304,8.2304,8.2304,8.2304,8.2304,8.2304,8.2304,8.2304,8.2304,8.2304,8.2304,8.2304,8.2304,8.2304,8.2304,8.2304,8.2304,8.2304,8.2304,8.2304,8.2304,8.2304,8.2304,8.2304,8.2304,8.2304,8.2304,8.2304,8.2304,8.25,8.3476,8.4258,8.5039,8.6094,8.6836,8.7383,8.7422,8.7304,8.6992,8.6914,8.6484,8.5742,8.4883,8.4023,8.3203,8.2656,8.2304,8.2344,8.2304,8.2304,8.2304,8.2304,8.2304,8.2304,8.2304,8.2304,8.2304,8.2265,8.2226,8.1992,8.1679,8.1523,8.1484,8.0976,8.0508,8.0547,8.0586,8.1367,8.1992,8.1679,8.1406,8.1172,8.1015,8.1133,8.1172,8.1172,8.1094,8.1094,8.0937,8.0742,8.0859,8.0898,8.1015,8.1133,8.0703,8.0508,8.0703,8.0859,8.0898,8.0859,8.0742,8.0976,8.1601,8.2031,8.2304,8.2304,8.2148,8.1875,8.2304,8.2304,8.2304,8.2304,8.2304,8.2304,8.2304,8.2304,8.2304,8.2304,8.2304,8.2304,8.2304,8.2304,8.2304,8.2304,8.2304,8.2304,8.2304,8.2304,8.2304,8.2304,8.2304,8.2304,8.2304,8.2304,8.2304,8.2304,8.2304,8.2304,8.2304,8.2304,8.2304,8.2304,8.2304,8.2304,8.2304,8.2304,8.2304,8.2304,8.2304,8.2304,8.2304,8.2304,8.2304,8.2304,8.2539,8.3203,8.3867,8.4648,8.5547,8.6445,8.6992,8.7344,8.7461,8.75,8.7422,8.7109,8.6523,8.5508,8.4531,8.3554,8.3086,8.2656,8.2383,8.2304,8.2304,8.2304,8.2304,8.2304,8.2304,8.2304,8.2031,8.1914,8.1719,8.164,8.1172,8.082,8.0703,8.0586,8.0156,7.9883,7.9922,8.0039,8.0312,8.0937,8.0781,8.0508,8.0351,8.0195,8.0117,8.0117,8.0117,7.9961,7.9805,7.9961,8.0156,8.0234,8.0234,8.0078,8.0,7.9648,7.9648,8.0078,8.0117,7.9805,7.9844,8.0078,8.0586,8.1172,8.1367,8.1406,8.1211,8.0976,8.0937,8.2304,8.2304,8.2304,8.2304,8.2304,8.2304,8.2304,8.2304,8.2304,8.2304,8.2304,8.2304,8.2304,8.2304,8.2304,8.2304,8.2304,8.2304,8.2304,8.2304,8.2304,8.2304,8.2304,8.2304,8.2304,8.2304,8.2304,8.2304,8.2304,8.2304,8.2304,8.2304,8.2304,8.2304,8.2304,8.2304,8.2304,8.2304,8.2304,8.2304,8.2304,8.2304,8.2304,8.2304,8.2304,8.2304,8.25,8.2929,8.3476,8.4023,8.5078,8.582,8.6211,8.6836,8.7109,8.7187,8.7226,8.7265,8.7187,8.5742,8.4648,8.3867,8.3515,8.3047,8.25,8.2304,8.2304,8.2304,8.2304,8.2304,8.2304,8.2187,8.1719,8.1445,8.1289,8.0898,8.0429,7.9961,7.9805,7.9648,7.9648,7.9648,7.9609,7.9609,7.9531,7.9687,7.9726,7.9609,7.9414,7.9258,7.9062,7.9023,7.8984,7.8984,7.8945,7.9336,7.9531,7.9609,7.9453,7.914,7.914,7.9062,7.9219,7.9492,7.9297,7.8906,7.9219,7.9609,7.9726,7.9765,8.0039,8.0117,7.9922,7.9922,8.0039,8.2304,8.2304,8.2304,8.2304,8.2304,8.2304,8.2304,8.2304,8.2304,8.2304,8.2304,8.2304,8.2304,8.2304,8.2304,8.2304,8.2304,8.2304,8.2304,8.2304,8.2304,8.2304,8.2304,8.2304,8.2304,8.2304,8.2304,8.2304,8.2304,8.2304,8.2304,8.2304,8.2304,8.2304,8.2304,8.2304,8.2304,8.2304,8.2304,8.2304,8.2304,8.2304,8.2304,8.2304,8.2304,8.2304,8.2304,8.2773,8.3008,8.3437,8.4492,8.4844,8.5234,8.5859,8.5859,8.5859,8.582,8.5781,8.5742,8.5039,8.4844,8.4336,8.3828,8.3242,8.2461,8.2304,8.2304,8.2304,8.2304,8.2304,8.2304,8.1679,8.1211,8.1015,8.0742,8.0234,7.9765,7.9219,7.8906,7.8672,7.8594,7.8359,7.8281,7.8555,7.8594,7.8633,7.8711,7.8437,7.8242,7.8008,7.7851,7.7812,7.7812,7.793,7.8086,7.8437,7.8515,7.8398,7.8203,7.789,7.7969,7.832,7.8242,7.8281,7.8164,7.8047,7.832,7.8476,7.8164,7.8164,7.875,7.9258,7.9375,7.9453,7.9531,8.1562,8.1836,8.1875,8.2031,8.2265,8.2304,8.2304,8.2304,8.2304,8.2304,8.2304,8.2304,8.2304,8.2304,8.2304,8.2304,8.2304,8.2304,8.2304,8.2304,8.2304,8.2304,8.2304,8.2304,8.2304,8.2304,8.2304,8.2304,8.2304,8.2304,8.2304,8.2304,8.2304,8.2304,8.2304,8.2304,8.2304,8.2304,8.2304,8.2304,8.2304,8.2304,8.2304,8.2304,8.2304,8.2304,8.2304,8.2383,8.2539,8.3086,8.3476,8.3828,8.4336,8.4726,8.4844,8.4883,8.4922,8.4922,8.4961,8.4961,8.4726,8.4297,8.3867,8.3203,8.2539,8.2304,8.2304,8.2304,8.2304,8.207,8.1797,8.1133,8.0703,8.0469,7.9844,7.9336,7.8789,7.8242,7.8125,7.789,7.7812,7.7422,7.7226,7.7305,7.7578,7.7656,7.7695,7.7461,7.7305,7.7265,7.7226,7.7265,7.7265,7.7461,7.75,7.7539,7.75,7.7265,7.7226,7.7226,7.7265,7.7695,7.7383,7.7226,7.7461,7.7578,7.7383,7.7305,7.7461,7.7617,7.8008,7.8437,7.8789,7.8828,7.8828,8.0195,8.0898,8.0976,8.1445,8.2148,8.2265,8.2304,8.2304,8.2304,8.2304,8.2304,8.2304,8.2304,8.2304,8.2304,8.2304,8.2304,8.2304,8.2304,8.2304,8.2304,8.2304,8.2304,8.2304,8.2304,8.2304,8.2304,8.2304,8.2304,8.2304,8.2304,8.2304,8.2304,8.2304,8.2304,8.2304,8.2304,8.2304,8.2304,8.2304,8.2304,8.2304,8.2304,8.2304,8.2304,8.2304,8.2304,8.2344,8.2344,8.2656,8.3047,8.3359,8.3828,8.4375,8.4648,8.4765,8.4648,8.457,8.4492,8.4414,8.4179,8.3672,8.3515,8.3008,8.2617,8.2304,8.2304,8.2226,8.2109,8.164,8.1172,8.0586,8.0039,7.9453,7.8711,7.8164,7.7656,7.7383,7.7383,7.7344,7.7344,7.7226,7.7226,7.7226,7.7226,7.7305,7.7422,7.7383,7.7265,7.7265,7.7226,7.7226,7.7226,7.7226,7.7226,7.7226,7.7226,7.7226,7.7226,7.7226,7.7226,7.7226,7.7226,7.7226,7.7226,7.7226,7.7226,7.7226,7.7226,7.7422,7.7617,7.7695,7.8047,7.7851,7.7734,7.9844,8.0078,8.0078,8.0586,8.1406,8.2031,8.2304,8.2304,8.2304,8.2304,8.2304,8.2304,8.2304,8.2304,8.2304,8.2304,8.2304,8.2304,8.2304,8.2304,8.2304,8.2304,8.2304,8.2304,8.2304,8.2304,8.2304,8.2304,8.2304,8.2304,8.2304,8.2304,8.2304,8.2304,8.2304,8.2304,8.2304,8.2304,8.2304,8.2304,8.2304,8.2304,8.2304,8.2304,8.2304,8.2304,8.2304,8.2304,8.2304,8.2422,8.2539,8.2656,8.2734,8.2929,8.3047,8.3047,8.3008,8.3047,8.3047,8.3047,8.289,8.2656,8.2578,8.2617,8.2344,8.2226,8.2226,8.2187,8.1797,8.125,8.0625,8.0,7.9375,7.8672,7.8047,7.7656,7.7226,7.7226,7.7226,7.7226,7.7226,7.7226,7.7226,7.7226,7.7226,7.7226,7.7226,7.7226,7.7226,7.7226,7.7226,7.7226,7.7226,7.7226,7.7226,7.7226,7.7226,7.7226,7.7226,7.7226,7.7226,7.7226,7.7226,7.7226,7.7226,7.7226,7.7226,7.7226,7.7226,7.7226,7.7344,7.7265,7.7226,7.7226,7.7226,7.8906,7.9219,7.9219,7.9687,8.0508,8.1054,8.1289,8.1406,8.1992,8.2304,8.2304,8.2304,8.2304,8.2304,8.2304,8.2304,8.2304,8.2304,8.2304,8.2304,8.2304,8.2304,8.2304,8.2304,8.2304,8.2304,8.2304,8.2304,8.2304,8.2304,8.2304,8.2304,8.2304,8.2304,8.2304,8.2304,8.2304,8.2304,8.2304,8.2304,8.2304,8.2304,8.2304,8.2304,8.2304,8.2265,8.2265,8.2265,8.2265,8.2187,8.2109,8.1797,8.1679,8.1523,8.1289,8.1289,8.1289,8.1289,8.1289,8.1289,8.1289,8.1289,8.1328,8.1211,8.1562,8.1679,8.2031,8.2226,8.1523,8.082,8.0117,7.9414,7.8711,7.8008,7.7617,7.7265,7.7226,7.7226,7.7226,7.7226,7.7226,7.7226,7.7226,7.7226,7.7226,7.7226,7.7226,7.7226,7.7226,7.7226,7.7226,7.7226,7.7226,7.7226,7.7226,7.7226,7.7226,7.7226,7.7226,7.7226,7.7226,7.7226,7.7226,7.7226,7.7226,7.7226,7.7226,7.7226,7.7226,7.7226,7.7226,7.7226,7.7226,7.7226,7.7226,7.7695,7.8398,7.8476,7.8984,7.957,7.9765,7.9844,7.9883,8.1328,8.2031,8.1992,8.2031,8.1914,8.1719,8.1875,8.2031,8.2109,8.2187,8.2304,8.2265,8.2304,8.2304,8.2265,8.2226,8.2109,8.2187,8.2187,8.2031,8.2265,8.2304,8.2304,8.2304,8.2304,8.2304,8.2304,8.2304,8.2304,8.2304,8.2304,8.2304,8.2304,8.2304,8.2304,8.2265,8.2187,8.2109,8.2109,8.2109,8.2109,8.1797,8.1445,8.0937,8.0664,8.0351,8.0039,7.9922,8.0117,8.0117,8.0156,8.0156,8.0039,7.9961,7.9726,8.0,8.0547,8.1015,8.1367,8.1328,8.0625,8.0078,7.9375,7.8711,7.8008,7.7656,7.7383,7.7226,7.7226,7.7226,7.7226,7.7226,7.7226,7.7226,7.7226,7.7226,7.7226,7.7226,7.7226,7.7226,7.7226,7.7226,7.7226,7.7226,7.7226,7.7226,7.7226,7.7226,7.7226,7.7226,7.7226,7.7226,7.7226,7.7226,7.7226,7.7226,7.7226,7.7226,7.7226,7.7226,7.7226,7.7226,7.7226,7.7226,7.7226,7.7226,7.7226,7.7305,7.7578,7.8242,7.8633,7.8867,7.9453,7.9687,7.9726,8.0078,8.0312,8.0312,8.0351,8.0429,8.0586,8.1133,8.1328,8.1406,8.1719,8.2226,8.2148,8.2109,8.1914,8.2031,8.1523,8.1679,8.1914,8.1836,8.1562,8.1914,8.2109,8.2226,8.2226,8.2148,8.2031,8.2031,8.2031,8.2031,8.1953,8.1992,8.1992,8.2031,8.2226,8.2304,8.2031,8.1797,8.1367,8.1133,8.0703,8.0508,8.0195,8.0156,8.0039,8.0,7.9765,7.9687,7.9687,7.9531,7.9453,7.9453,7.9414,7.9414,7.9531,7.957,7.9687,7.9883,8.0195,8.0273,8.0078,7.9805,7.9258,7.875,7.8086,7.7539,7.7344,7.7226,7.7226,7.7226,7.7226,7.7226,7.7226,7.7226,7.7226,7.7226,7.7226,7.7226,7.7226,7.7226,7.7226,7.7226,7.7226,7.7226,7.7226,7.7226,7.7226,7.7226,7.7226,7.7226,7.7226,7.7226,7.7226,7.7226,7.7226,7.7226,7.7226,7.7226,7.7226,7.7226,7.7226,7.7226,7.7226,7.7226,7.7226,7.7226,7.7226,7.7226,7.7226,7.7265,7.7695,7.793,7.8008,7.8398,7.8594,7.8594,7.8594,7.8594,7.8789,7.9297,7.9687,7.9687,8.0234,8.0429,8.0508,8.0859,8.0937,8.1054,8.1289,8.1054,8.0859,8.0703,8.0703,8.0898,8.0703,8.0703,8.1211,8.1094,8.1054,8.1211,8.1211,8.1211,8.1211,8.1171,8.1249,8.1094,8.121,8.1209,8.1326,8.1484,8.1406,8.1133,8.074,8.0427,8.031,7.992,7.9844,7.9531,7.9375,7.8828,7.8672,7.8437,7.8515,7.8515,7.8476,7.8594,7.8633,7.8672,7.8711,7.875,7.8633,7.8437,7.8398,7.8672,7.9336,7.9219,7.914,7.8711,7.8437,7.789,7.75,7.7265,7.7226,7.7226,7.7226,7.7226,7.7226,7.7226,7.7226,7.7226,7.7226,7.7226,7.7226,7.7226,7.7226,7.7226,7.7226,7.7226,7.7226,7.7226,7.7226,7.7226,7.7226,7.7226,7.7226,7.7226,7.7226,7.7226,7.7226,7.7226,7.7226,7.7226,7.7226,7.7226,7.7226,7.7226,7.7226,7.7226,7.7226,7.7226,7.7226,7.7226,7.7226,7.7226,7.7226,7.7226,7.7226,7.7226,7.7226,7.7265,7.7265,7.7265,7.7265,7.7461,7.875,7.9297,7.9375,7.957,7.957,7.9687,8.0039,7.9922,7.9922,7.9922,8.0156,8.0039,7.9687,7.9687,7.9765,7.9765,7.9805,8.0039,8.0039,8.0039,7.9765,7.9726,7.9765,7.9726,7.9764,7.9957,8.0072,8.0069,7.9792,7.9989,8.0344,8.0304,7.999,7.9596,7.9556,7.9517,7.94,7.94,7.9053,7.8548,7.8083,7.7694,7.7578,7.7539,7.7578,7.7617,7.7539,7.7461,7.7539,7.7461,7.7344,7.7226,7.7226,7.7305,7.7617,7.8281,7.8437,7.8359,7.8242,7.8008,7.7812,7.7422,7.7226,7.7226,7.7226,7.7226,7.7226,7.7226,7.7226,7.7226,7.7226,7.7226,7.7226,7.7226,7.7226,7.7226,7.7226,7.7226,7.7226,7.7226,7.7226,7.7226,7.7226,7.7226,7.7226,7.7226,7.7226,7.7226,7.7226,7.7226,7.7226,7.7226,7.7226,7.7226,7.7187,7.7226,7.7226,7.7226,7.7148,7.7226,7.7226,7.7226,7.7226,7.7226,7.7226,7.7226,7.7226,7.7226,7.7226,7.7226,7.7226,7.7226,7.7226,7.7226,7.7305,7.7383,7.7656,7.7734,7.8476,7.875,7.8789,7.914,7.957,7.9726,7.9375,7.9531,7.9414,7.8867,7.875,7.8867,7.914,7.9609,7.9219,7.9414,7.9648,7.9531,7.9569,7.9607,7.9607,7.9564,7.9401,7.9357,7.931,7.9184,7.89,7.9261,7.9783,7.9506,7.9031,7.8792,7.8478,7.7931,7.7703,7.7517,7.7524,7.7333,7.722,7.7184,7.7185,7.7225,7.7226,7.7226,7.7226,7.7226,7.7226,7.7226,7.7226,7.7226,7.7265,7.7265,7.7656,7.7656,7.7617,7.7617,7.7461,7.7461,7.7226,7.7226,7.7226,7.7226,7.7226,7.7226,7.7226,7.7226,7.7226,7.7226,7.7226,7.7226,7.7226,7.7226,7.7226,7.7226,7.7226,7.7226,7.7226,7.7187,7.7187,7.7226,7.7226,7.7226,7.7226,7.7226,7.7226,7.7187,7.7187,7.7226,7.7226,7.7187,7.7187,7.7187,7.7187,7.7187,7.707,7.7031,7.7148,7.7226,7.7148,7.6953,7.6719]}]]